<?xml version="1.0" encoding="UTF-8" standalone="no" ?>
<gpx xmlns="http://www.topografix.com/GPX/1/1" xmlns:xsi="http://www.w3.org/2001/XMLSchema-instance" xsi:schemaLocation="http://www.topografix.com/GPX/1/1 http://www.topografix.com/GPX/1/1/gpx.xsd" version="1.1" creator="VisuGPX - https://www.visugpx.com">
  <metadata>
    <name>La Merandolaise 2026 38 kms</name>
  </metadata>
  <trk>
    <name><![CDATA[CCM_2024_38M_Définitif-18345415]]></name>
    <trkseg>
      <trkpt lat="43.75412" lon="5.20247">
        <ele>154</ele>
        <time>2024-02-11T18:47:30Z</time>
      </trkpt>
      <trkpt lat="43.75404" lon="5.20231">
        <ele>153</ele>
        <time>2024-02-11T18:47:33Z</time>
      </trkpt>
      <trkpt lat="43.75408" lon="5.20201">
        <ele>153</ele>
        <time>2024-02-11T18:47:38Z</time>
      </trkpt>
      <trkpt lat="43.75414" lon="5.202">
        <ele>154</ele>
        <time>2024-02-11T18:47:40Z</time>
      </trkpt>
      <trkpt lat="43.75428" lon="5.20203">
        <ele>155</ele>
        <time>2024-02-11T18:47:43Z</time>
      </trkpt>
      <trkpt lat="43.75451" lon="5.20212">
        <ele>156</ele>
        <time>2024-02-11T18:47:49Z</time>
      </trkpt>
      <trkpt lat="43.75453" lon="5.2021">
        <ele>157</ele>
        <time>2024-02-11T18:47:49Z</time>
      </trkpt>
      <trkpt lat="43.75457" lon="5.20203">
        <ele>157</ele>
        <time>2024-02-11T18:47:51Z</time>
      </trkpt>
      <trkpt lat="43.75461" lon="5.20142">
        <ele>158</ele>
        <time>2024-02-11T18:48:01Z</time>
      </trkpt>
      <trkpt lat="43.75468" lon="5.20132">
        <ele>159</ele>
        <time>2024-02-11T18:48:03Z</time>
      </trkpt>
      <trkpt lat="43.75478" lon="5.20132">
        <ele>160</ele>
        <time>2024-02-11T18:48:06Z</time>
      </trkpt>
      <trkpt lat="43.755" lon="5.20143">
        <ele>162</ele>
        <time>2024-02-11T18:48:11Z</time>
      </trkpt>
      <trkpt lat="43.75517" lon="5.20147">
        <ele>163</ele>
        <time>2024-02-11T18:48:15Z</time>
      </trkpt>
      <trkpt lat="43.75534" lon="5.20157">
        <ele>163</ele>
        <time>2024-02-11T18:48:20Z</time>
      </trkpt>
      <trkpt lat="43.75558" lon="5.20182">
        <ele>165</ele>
        <time>2024-02-11T18:48:27Z</time>
      </trkpt>
      <trkpt lat="43.75567" lon="5.20188">
        <ele>166</ele>
        <time>2024-02-11T18:48:29Z</time>
      </trkpt>
      <trkpt lat="43.75575" lon="5.2019">
        <ele>166</ele>
        <time>2024-02-11T18:48:31Z</time>
      </trkpt>
      <trkpt lat="43.75584" lon="5.20198">
        <ele>167</ele>
        <time>2024-02-11T18:48:33Z</time>
      </trkpt>
      <trkpt lat="43.7559" lon="5.202">
        <ele>167</ele>
        <time>2024-02-11T18:48:35Z</time>
      </trkpt>
      <trkpt lat="43.75599" lon="5.20201">
        <ele>168</ele>
        <time>2024-02-11T18:48:37Z</time>
      </trkpt>
      <trkpt lat="43.75602" lon="5.20198">
        <ele>168</ele>
        <time>2024-02-11T18:48:38Z</time>
      </trkpt>
      <trkpt lat="43.75618" lon="5.20156">
        <ele>169</ele>
        <time>2024-02-11T18:48:46Z</time>
      </trkpt>
      <trkpt lat="43.75624" lon="5.20151">
        <ele>170</ele>
        <time>2024-02-11T18:48:47Z</time>
      </trkpt>
      <trkpt lat="43.75626" lon="5.20145">
        <ele>170</ele>
        <time>2024-02-11T18:48:49Z</time>
      </trkpt>
      <trkpt lat="43.7563" lon="5.20115">
        <ele>171</ele>
        <time>2024-02-11T18:48:54Z</time>
      </trkpt>
      <trkpt lat="43.75632" lon="5.20053">
        <ele>176</ele>
        <time>2024-02-11T18:49:04Z</time>
      </trkpt>
      <trkpt lat="43.75641" lon="5.19984">
        <ele>183</ele>
        <time>2024-02-11T18:49:16Z</time>
      </trkpt>
      <trkpt lat="43.75666" lon="5.19869">
        <ele>188</ele>
        <time>2024-02-11T18:49:36Z</time>
      </trkpt>
      <trkpt lat="43.75673" lon="5.19847">
        <ele>190</ele>
        <time>2024-02-11T18:49:40Z</time>
      </trkpt>
      <trkpt lat="43.75697" lon="5.19795">
        <ele>195</ele>
        <time>2024-02-11T18:49:51Z</time>
      </trkpt>
      <trkpt lat="43.75703" lon="5.19766">
        <ele>196</ele>
        <time>2024-02-11T18:49:56Z</time>
      </trkpt>
      <trkpt lat="43.75706" lon="5.19725">
        <ele>195</ele>
        <time>2024-02-11T18:50:03Z</time>
      </trkpt>
      <trkpt lat="43.75713" lon="5.19712">
        <ele>196</ele>
        <time>2024-02-11T18:50:05Z</time>
      </trkpt>
      <trkpt lat="43.75743" lon="5.19678">
        <ele>200</ele>
        <time>2024-02-11T18:50:15Z</time>
      </trkpt>
      <trkpt lat="43.75751" lon="5.19656">
        <ele>200</ele>
        <time>2024-02-11T18:50:19Z</time>
      </trkpt>
      <trkpt lat="43.75773" lon="5.19617">
        <ele>200</ele>
        <time>2024-02-11T18:50:27Z</time>
      </trkpt>
      <trkpt lat="43.75796" lon="5.19594">
        <ele>201</ele>
        <time>2024-02-11T18:50:34Z</time>
      </trkpt>
      <trkpt lat="43.75816" lon="5.19547">
        <ele>197</ele>
        <time>2024-02-11T18:50:43Z</time>
      </trkpt>
      <trkpt lat="43.75836" lon="5.19524">
        <ele>197</ele>
        <time>2024-02-11T18:50:49Z</time>
      </trkpt>
      <trkpt lat="43.75848" lon="5.19516">
        <ele>197</ele>
        <time>2024-02-11T18:50:52Z</time>
      </trkpt>
      <trkpt lat="43.75875" lon="5.19523">
        <ele>201</ele>
        <time>2024-02-11T18:50:58Z</time>
      </trkpt>
      <trkpt lat="43.75908" lon="5.19525">
        <ele>206</ele>
        <time>2024-02-11T18:51:06Z</time>
      </trkpt>
      <trkpt lat="43.75932" lon="5.19531">
        <ele>207</ele>
        <time>2024-02-11T18:51:12Z</time>
      </trkpt>
      <trkpt lat="43.75938" lon="5.19539">
        <ele>208</ele>
        <time>2024-02-11T18:51:14Z</time>
      </trkpt>
      <trkpt lat="43.75932" lon="5.19553">
        <ele>210</ele>
        <time>2024-02-11T18:51:17Z</time>
      </trkpt>
      <trkpt lat="43.75912" lon="5.19562">
        <ele>211</ele>
        <time>2024-02-11T18:51:21Z</time>
      </trkpt>
      <trkpt lat="43.75904" lon="5.19572">
        <ele>212</ele>
        <time>2024-02-11T18:51:24Z</time>
      </trkpt>
      <trkpt lat="43.75904" lon="5.19581">
        <ele>213</ele>
        <time>2024-02-11T18:51:26Z</time>
      </trkpt>
      <trkpt lat="43.75908" lon="5.19595">
        <ele>215</ele>
        <time>2024-02-11T18:51:28Z</time>
      </trkpt>
      <trkpt lat="43.75907" lon="5.19605">
        <ele>217</ele>
        <time>2024-02-11T18:51:30Z</time>
      </trkpt>
      <trkpt lat="43.759" lon="5.1961">
        <ele>217</ele>
        <time>2024-02-11T18:51:32Z</time>
      </trkpt>
      <trkpt lat="43.75878" lon="5.19652">
        <ele>220</ele>
        <time>2024-02-11T18:51:40Z</time>
      </trkpt>
      <trkpt lat="43.75867" lon="5.19662">
        <ele>221</ele>
        <time>2024-02-11T18:51:43Z</time>
      </trkpt>
      <trkpt lat="43.75855" lon="5.19681">
        <ele>222</ele>
        <time>2024-02-11T18:51:48Z</time>
      </trkpt>
      <trkpt lat="43.75852" lon="5.19699">
        <ele>224</ele>
        <time>2024-02-11T18:51:51Z</time>
      </trkpt>
      <trkpt lat="43.7586" lon="5.19739">
        <ele>228</ele>
        <time>2024-02-11T18:51:58Z</time>
      </trkpt>
      <trkpt lat="43.75856" lon="5.19762">
        <ele>229</ele>
        <time>2024-02-11T18:52:02Z</time>
      </trkpt>
      <trkpt lat="43.75846" lon="5.19793">
        <ele>231</ele>
        <time>2024-02-11T18:52:08Z</time>
      </trkpt>
      <trkpt lat="43.75828" lon="5.19818">
        <ele>231</ele>
        <time>2024-02-11T18:52:13Z</time>
      </trkpt>
      <trkpt lat="43.75827" lon="5.19825">
        <ele>231</ele>
        <time>2024-02-11T18:52:15Z</time>
      </trkpt>
      <trkpt lat="43.7583" lon="5.19829">
        <ele>233</ele>
        <time>2024-02-11T18:52:16Z</time>
      </trkpt>
      <trkpt lat="43.75841" lon="5.19832">
        <ele>234</ele>
        <time>2024-02-11T18:52:18Z</time>
      </trkpt>
      <trkpt lat="43.75844" lon="5.19841">
        <ele>234</ele>
        <time>2024-02-11T18:52:20Z</time>
      </trkpt>
      <trkpt lat="43.75847" lon="5.1987">
        <ele>233</ele>
        <time>2024-02-11T18:52:25Z</time>
      </trkpt>
      <trkpt lat="43.75845" lon="5.19882">
        <ele>233</ele>
        <time>2024-02-11T18:52:27Z</time>
      </trkpt>
      <trkpt lat="43.75847" lon="5.19902">
        <ele>232</ele>
        <time>2024-02-11T18:52:30Z</time>
      </trkpt>
      <trkpt lat="43.75853" lon="5.19915">
        <ele>232</ele>
        <time>2024-02-11T18:52:33Z</time>
      </trkpt>
      <trkpt lat="43.75861" lon="5.19949">
        <ele>229</ele>
        <time>2024-02-11T18:52:39Z</time>
      </trkpt>
      <trkpt lat="43.7587" lon="5.19968">
        <ele>228</ele>
        <time>2024-02-11T18:52:43Z</time>
      </trkpt>
      <trkpt lat="43.75882" lon="5.1998">
        <ele>228</ele>
        <time>2024-02-11T18:52:46Z</time>
      </trkpt>
      <trkpt lat="43.75896" lon="5.19982">
        <ele>231</ele>
        <time>2024-02-11T18:52:50Z</time>
      </trkpt>
      <trkpt lat="43.75913" lon="5.19991">
        <ele>233</ele>
        <time>2024-02-11T18:52:54Z</time>
      </trkpt>
      <trkpt lat="43.75924" lon="5.20007">
        <ele>232</ele>
        <time>2024-02-11T18:52:58Z</time>
      </trkpt>
      <trkpt lat="43.7593" lon="5.20033">
        <ele>229</ele>
        <time>2024-02-11T18:53:02Z</time>
      </trkpt>
      <trkpt lat="43.75933" lon="5.20068">
        <ele>226</ele>
        <time>2024-02-11T18:53:08Z</time>
      </trkpt>
      <trkpt lat="43.75935" lon="5.20071">
        <ele>226</ele>
        <time>2024-02-11T18:53:09Z</time>
      </trkpt>
      <trkpt lat="43.75942" lon="5.20073">
        <ele>226</ele>
        <time>2024-02-11T18:53:10Z</time>
      </trkpt>
      <trkpt lat="43.75973" lon="5.20061">
        <ele>228</ele>
        <time>2024-02-11T18:53:18Z</time>
      </trkpt>
      <trkpt lat="43.75983" lon="5.2006">
        <ele>228</ele>
        <time>2024-02-11T18:53:20Z</time>
      </trkpt>
      <trkpt lat="43.75992" lon="5.20063">
        <ele>229</ele>
        <time>2024-02-11T18:53:22Z</time>
      </trkpt>
      <trkpt lat="43.76004" lon="5.20076">
        <ele>229</ele>
        <time>2024-02-11T18:53:26Z</time>
      </trkpt>
      <trkpt lat="43.76011" lon="5.20082">
        <ele>229</ele>
        <time>2024-02-11T18:53:28Z</time>
      </trkpt>
      <trkpt lat="43.76014" lon="5.20082">
        <ele>228</ele>
        <time>2024-02-11T18:53:29Z</time>
      </trkpt>
      <trkpt lat="43.76024" lon="5.20071">
        <ele>227</ele>
        <time>2024-02-11T18:53:32Z</time>
      </trkpt>
      <trkpt lat="43.76045" lon="5.20058">
        <ele>223</ele>
        <time>2024-02-11T18:53:37Z</time>
      </trkpt>
      <trkpt lat="43.7606" lon="5.20035">
        <ele>219</ele>
        <time>2024-02-11T18:53:42Z</time>
      </trkpt>
      <trkpt lat="43.76071" lon="5.2003">
        <ele>217</ele>
        <time>2024-02-11T18:53:45Z</time>
      </trkpt>
      <trkpt lat="43.76079" lon="5.20022">
        <ele>215</ele>
        <time>2024-02-11T18:53:47Z</time>
      </trkpt>
      <trkpt lat="43.76087" lon="5.20007">
        <ele>212</ele>
        <time>2024-02-11T18:53:50Z</time>
      </trkpt>
      <trkpt lat="43.76092" lon="5.19981">
        <ele>208</ele>
        <time>2024-02-11T18:53:55Z</time>
      </trkpt>
      <trkpt lat="43.76096" lon="5.19979">
        <ele>208</ele>
        <time>2024-02-11T18:53:56Z</time>
      </trkpt>
      <trkpt lat="43.76101" lon="5.19971">
        <ele>206</ele>
        <time>2024-02-11T18:53:58Z</time>
      </trkpt>
      <trkpt lat="43.76109" lon="5.19968">
        <ele>205</ele>
        <time>2024-02-11T18:54:00Z</time>
      </trkpt>
      <trkpt lat="43.76112" lon="5.19961">
        <ele>204</ele>
        <time>2024-02-11T18:54:01Z</time>
      </trkpt>
      <trkpt lat="43.76112" lon="5.19953">
        <ele>203</ele>
        <time>2024-02-11T18:54:02Z</time>
      </trkpt>
      <trkpt lat="43.76109" lon="5.19947">
        <ele>202</ele>
        <time>2024-02-11T18:54:04Z</time>
      </trkpt>
      <trkpt lat="43.76116" lon="5.19928">
        <ele>199</ele>
        <time>2024-02-11T18:54:07Z</time>
      </trkpt>
      <trkpt lat="43.76119" lon="5.19915">
        <ele>197</ele>
        <time>2024-02-11T18:54:09Z</time>
      </trkpt>
      <trkpt lat="43.76118" lon="5.1991">
        <ele>196</ele>
        <time>2024-02-11T18:54:10Z</time>
      </trkpt>
      <trkpt lat="43.76144" lon="5.199">
        <ele>195</ele>
        <time>2024-02-11T18:54:17Z</time>
      </trkpt>
      <trkpt lat="43.76158" lon="5.19907">
        <ele>195</ele>
        <time>2024-02-11T18:54:20Z</time>
      </trkpt>
      <trkpt lat="43.76173" lon="5.19902">
        <ele>195</ele>
        <time>2024-02-11T18:54:24Z</time>
      </trkpt>
      <trkpt lat="43.7622" lon="5.1991">
        <ele>200</ele>
        <time>2024-02-11T18:54:35Z</time>
      </trkpt>
      <trkpt lat="43.76236" lon="5.19925">
        <ele>201</ele>
        <time>2024-02-11T18:54:39Z</time>
      </trkpt>
      <trkpt lat="43.76241" lon="5.19933">
        <ele>202</ele>
        <time>2024-02-11T18:54:41Z</time>
      </trkpt>
      <trkpt lat="43.76246" lon="5.19963">
        <ele>203</ele>
        <time>2024-02-11T18:54:46Z</time>
      </trkpt>
      <trkpt lat="43.76264" lon="5.19995">
        <ele>204</ele>
        <time>2024-02-11T18:54:53Z</time>
      </trkpt>
      <trkpt lat="43.76279" lon="5.20013">
        <ele>207</ele>
        <time>2024-02-11T18:54:58Z</time>
      </trkpt>
      <trkpt lat="43.76311" lon="5.20038">
        <ele>208</ele>
        <time>2024-02-11T18:55:06Z</time>
      </trkpt>
      <trkpt lat="43.76323" lon="5.2004">
        <ele>207</ele>
        <time>2024-02-11T18:55:09Z</time>
      </trkpt>
      <trkpt lat="43.76332" lon="5.20036">
        <ele>206</ele>
        <time>2024-02-11T18:55:11Z</time>
      </trkpt>
      <trkpt lat="43.7634" lon="5.20039">
        <ele>207</ele>
        <time>2024-02-11T18:55:13Z</time>
      </trkpt>
      <trkpt lat="43.76351" lon="5.20036">
        <ele>207</ele>
        <time>2024-02-11T18:55:16Z</time>
      </trkpt>
      <trkpt lat="43.76358" lon="5.2005">
        <ele>209</ele>
        <time>2024-02-11T18:55:19Z</time>
      </trkpt>
      <trkpt lat="43.76366" lon="5.20107">
        <ele>217</ele>
        <time>2024-02-11T18:55:29Z</time>
      </trkpt>
      <trkpt lat="43.76382" lon="5.20151">
        <ele>226</ele>
        <time>2024-02-11T18:55:37Z</time>
      </trkpt>
      <trkpt lat="43.76385" lon="5.20178">
        <ele>229</ele>
        <time>2024-02-11T18:55:42Z</time>
      </trkpt>
      <trkpt lat="43.76383" lon="5.20194">
        <ele>231</ele>
        <time>2024-02-11T18:55:44Z</time>
      </trkpt>
      <trkpt lat="43.76384" lon="5.20211">
        <ele>233</ele>
        <time>2024-02-11T18:55:47Z</time>
      </trkpt>
      <trkpt lat="43.76403" lon="5.20255">
        <ele>234</ele>
        <time>2024-02-11T18:55:56Z</time>
      </trkpt>
      <trkpt lat="43.76403" lon="5.20303">
        <ele>234</ele>
        <time>2024-02-11T18:56:04Z</time>
      </trkpt>
      <trkpt lat="43.764" lon="5.20345">
        <ele>236</ele>
        <time>2024-02-11T18:56:11Z</time>
      </trkpt>
      <trkpt lat="43.76406" lon="5.20358">
        <ele>236</ele>
        <time>2024-02-11T18:56:14Z</time>
      </trkpt>
      <trkpt lat="43.76424" lon="5.20375">
        <ele>237</ele>
        <time>2024-02-11T18:56:19Z</time>
      </trkpt>
      <trkpt lat="43.76445" lon="5.20383">
        <ele>243</ele>
        <time>2024-02-11T18:56:24Z</time>
      </trkpt>
      <trkpt lat="43.76465" lon="5.2038">
        <ele>247</ele>
        <time>2024-02-11T18:56:28Z</time>
      </trkpt>
      <trkpt lat="43.76472" lon="5.20386">
        <ele>249</ele>
        <time>2024-02-11T18:56:30Z</time>
      </trkpt>
      <trkpt lat="43.76477" lon="5.20403">
        <ele>251</ele>
        <time>2024-02-11T18:56:33Z</time>
      </trkpt>
      <trkpt lat="43.76469" lon="5.20423">
        <ele>250</ele>
        <time>2024-02-11T18:56:37Z</time>
      </trkpt>
      <trkpt lat="43.76472" lon="5.20444">
        <ele>252</ele>
        <time>2024-02-11T18:56:41Z</time>
      </trkpt>
      <trkpt lat="43.7647" lon="5.20472">
        <ele>254</ele>
        <time>2024-02-11T18:56:46Z</time>
      </trkpt>
      <trkpt lat="43.7648" lon="5.20505">
        <ele>257</ele>
        <time>2024-02-11T18:56:52Z</time>
      </trkpt>
      <trkpt lat="43.7648" lon="5.20523">
        <ele>259</ele>
        <time>2024-02-11T18:56:55Z</time>
      </trkpt>
      <trkpt lat="43.76502" lon="5.20557">
        <ele>259</ele>
        <time>2024-02-11T18:57:02Z</time>
      </trkpt>
      <trkpt lat="43.76517" lon="5.20574">
        <ele>262</ele>
        <time>2024-02-11T18:57:07Z</time>
      </trkpt>
      <trkpt lat="43.76523" lon="5.20576">
        <ele>263</ele>
        <time>2024-02-11T18:57:08Z</time>
      </trkpt>
      <trkpt lat="43.76531" lon="5.20584">
        <ele>265</ele>
        <time>2024-02-11T18:57:11Z</time>
      </trkpt>
      <trkpt lat="43.76534" lon="5.20584">
        <ele>265</ele>
        <time>2024-02-11T18:57:11Z</time>
      </trkpt>
      <trkpt lat="43.76535" lon="5.20579">
        <ele>265</ele>
        <time>2024-02-11T18:57:12Z</time>
      </trkpt>
      <trkpt lat="43.76546" lon="5.20578">
        <ele>267</ele>
        <time>2024-02-11T18:57:15Z</time>
      </trkpt>
      <trkpt lat="43.76566" lon="5.20565">
        <ele>271</ele>
        <time>2024-02-11T18:57:20Z</time>
      </trkpt>
      <trkpt lat="43.7657" lon="5.20561">
        <ele>271</ele>
        <time>2024-02-11T18:57:21Z</time>
      </trkpt>
      <trkpt lat="43.7657" lon="5.20556">
        <ele>272</ele>
        <time>2024-02-11T18:57:22Z</time>
      </trkpt>
      <trkpt lat="43.76578" lon="5.20555">
        <ele>273</ele>
        <time>2024-02-11T18:57:24Z</time>
      </trkpt>
      <trkpt lat="43.76595" lon="5.20541">
        <ele>278</ele>
        <time>2024-02-11T18:57:29Z</time>
      </trkpt>
      <trkpt lat="43.76597" lon="5.20537">
        <ele>279</ele>
        <time>2024-02-11T18:57:29Z</time>
      </trkpt>
      <trkpt lat="43.76619" lon="5.20528">
        <ele>284</ele>
        <time>2024-02-11T18:57:35Z</time>
      </trkpt>
      <trkpt lat="43.76623" lon="5.20524">
        <ele>285</ele>
        <time>2024-02-11T18:57:36Z</time>
      </trkpt>
      <trkpt lat="43.76627" lon="5.20525">
        <ele>286</ele>
        <time>2024-02-11T18:57:37Z</time>
      </trkpt>
      <trkpt lat="43.76647" lon="5.20542">
        <ele>288</ele>
        <time>2024-02-11T18:57:42Z</time>
      </trkpt>
      <trkpt lat="43.76657" lon="5.20559">
        <ele>289</ele>
        <time>2024-02-11T18:57:46Z</time>
      </trkpt>
      <trkpt lat="43.76663" lon="5.20562">
        <ele>290</ele>
        <time>2024-02-11T18:57:47Z</time>
      </trkpt>
      <trkpt lat="43.76697" lon="5.20598">
        <ele>295</ele>
        <time>2024-02-11T18:57:57Z</time>
      </trkpt>
      <trkpt lat="43.76713" lon="5.20603">
        <ele>298</ele>
        <time>2024-02-11T18:58:01Z</time>
      </trkpt>
      <trkpt lat="43.7672" lon="5.20612">
        <ele>300</ele>
        <time>2024-02-11T18:58:04Z</time>
      </trkpt>
      <trkpt lat="43.76742" lon="5.20616">
        <ele>302</ele>
        <time>2024-02-11T18:58:09Z</time>
      </trkpt>
      <trkpt lat="43.76748" lon="5.20631">
        <ele>304</ele>
        <time>2024-02-11T18:58:12Z</time>
      </trkpt>
      <trkpt lat="43.76762" lon="5.20636">
        <ele>306</ele>
        <time>2024-02-11T18:58:15Z</time>
      </trkpt>
      <trkpt lat="43.76762" lon="5.20641">
        <ele>306</ele>
        <time>2024-02-11T18:58:16Z</time>
      </trkpt>
      <trkpt lat="43.76759" lon="5.20644">
        <ele>305</ele>
        <time>2024-02-11T18:58:17Z</time>
      </trkpt>
      <trkpt lat="43.76747" lon="5.20648">
        <ele>304</ele>
        <time>2024-02-11T18:58:20Z</time>
      </trkpt>
      <trkpt lat="43.76732" lon="5.20645">
        <ele>304</ele>
        <time>2024-02-11T18:58:23Z</time>
      </trkpt>
      <trkpt lat="43.76713" lon="5.20645">
        <ele>303</ele>
        <time>2024-02-11T18:58:28Z</time>
      </trkpt>
      <trkpt lat="43.76713" lon="5.20647">
        <ele>303</ele>
        <time>2024-02-11T18:58:28Z</time>
      </trkpt>
      <trkpt lat="43.76727" lon="5.20654">
        <ele>304</ele>
        <time>2024-02-11T18:58:31Z</time>
      </trkpt>
      <trkpt lat="43.76754" lon="5.20685">
        <ele>310</ele>
        <time>2024-02-11T18:58:40Z</time>
      </trkpt>
      <trkpt lat="43.76763" lon="5.20688">
        <ele>311</ele>
        <time>2024-02-11T18:58:42Z</time>
      </trkpt>
      <trkpt lat="43.76768" lon="5.20687">
        <ele>311</ele>
        <time>2024-02-11T18:58:43Z</time>
      </trkpt>
      <trkpt lat="43.76776" lon="5.20678">
        <ele>311</ele>
        <time>2024-02-11T18:58:45Z</time>
      </trkpt>
      <trkpt lat="43.76794" lon="5.20675">
        <ele>312</ele>
        <time>2024-02-11T18:58:50Z</time>
      </trkpt>
      <trkpt lat="43.76798" lon="5.20666">
        <ele>311</ele>
        <time>2024-02-11T18:58:51Z</time>
      </trkpt>
      <trkpt lat="43.76806" lon="5.20662">
        <ele>312</ele>
        <time>2024-02-11T18:58:53Z</time>
      </trkpt>
      <trkpt lat="43.76807" lon="5.20665">
        <ele>313</ele>
        <time>2024-02-11T18:58:54Z</time>
      </trkpt>
      <trkpt lat="43.76804" lon="5.2067">
        <ele>313</ele>
        <time>2024-02-11T18:58:55Z</time>
      </trkpt>
      <trkpt lat="43.76802" lon="5.20684">
        <ele>314</ele>
        <time>2024-02-11T18:58:57Z</time>
      </trkpt>
      <trkpt lat="43.76792" lon="5.20705">
        <ele>317</ele>
        <time>2024-02-11T18:59:02Z</time>
      </trkpt>
      <trkpt lat="43.76793" lon="5.20709">
        <ele>317</ele>
        <time>2024-02-11T18:59:02Z</time>
      </trkpt>
      <trkpt lat="43.76796" lon="5.2071">
        <ele>318</ele>
        <time>2024-02-11T18:59:03Z</time>
      </trkpt>
      <trkpt lat="43.7681" lon="5.20711">
        <ele>319</ele>
        <time>2024-02-11T18:59:06Z</time>
      </trkpt>
      <trkpt lat="43.76845" lon="5.20658">
        <ele>316</ele>
        <time>2024-02-11T18:59:18Z</time>
      </trkpt>
      <trkpt lat="43.76854" lon="5.20651">
        <ele>317</ele>
        <time>2024-02-11T18:59:21Z</time>
      </trkpt>
      <trkpt lat="43.76867" lon="5.20646">
        <ele>317</ele>
        <time>2024-02-11T18:59:24Z</time>
      </trkpt>
      <trkpt lat="43.76869" lon="5.20642">
        <ele>317</ele>
        <time>2024-02-11T18:59:25Z</time>
      </trkpt>
      <trkpt lat="43.76864" lon="5.20586">
        <ele>316</ele>
        <time>2024-02-11T18:59:34Z</time>
      </trkpt>
      <trkpt lat="43.76855" lon="5.2053">
        <ele>316</ele>
        <time>2024-02-11T18:59:44Z</time>
      </trkpt>
      <trkpt lat="43.76805" lon="5.2046">
        <ele>316</ele>
        <time>2024-02-11T19:00:01Z</time>
      </trkpt>
      <trkpt lat="43.76768" lon="5.20402">
        <ele>320</ele>
        <time>2024-02-11T19:00:14Z</time>
      </trkpt>
      <trkpt lat="43.7676" lon="5.20393">
        <ele>320</ele>
        <time>2024-02-11T19:00:16Z</time>
      </trkpt>
      <trkpt lat="43.76756" lon="5.20383">
        <ele>320</ele>
        <time>2024-02-11T19:00:18Z</time>
      </trkpt>
      <trkpt lat="43.76755" lon="5.20361">
        <ele>318</ele>
        <time>2024-02-11T19:00:22Z</time>
      </trkpt>
      <trkpt lat="43.76759" lon="5.20328">
        <ele>315</ele>
        <time>2024-02-11T19:00:27Z</time>
      </trkpt>
      <trkpt lat="43.76759" lon="5.2029">
        <ele>311</ele>
        <time>2024-02-11T19:00:34Z</time>
      </trkpt>
      <trkpt lat="43.76772" lon="5.20245">
        <ele>304</ele>
        <time>2024-02-11T19:00:42Z</time>
      </trkpt>
      <trkpt lat="43.76779" lon="5.20234">
        <ele>301</ele>
        <time>2024-02-11T19:00:44Z</time>
      </trkpt>
      <trkpt lat="43.76788" lon="5.20178">
        <ele>293</ele>
        <time>2024-02-11T19:00:54Z</time>
      </trkpt>
      <trkpt lat="43.76782" lon="5.2014">
        <ele>288</ele>
        <time>2024-02-11T19:01:01Z</time>
      </trkpt>
      <trkpt lat="43.76768" lon="5.20099">
        <ele>282</ele>
        <time>2024-02-11T19:01:08Z</time>
      </trkpt>
      <trkpt lat="43.76763" lon="5.20075">
        <ele>279</ele>
        <time>2024-02-11T19:01:13Z</time>
      </trkpt>
      <trkpt lat="43.76757" lon="5.20062">
        <ele>278</ele>
        <time>2024-02-11T19:01:15Z</time>
      </trkpt>
      <trkpt lat="43.76755" lon="5.20049">
        <ele>276</ele>
        <time>2024-02-11T19:01:17Z</time>
      </trkpt>
      <trkpt lat="43.76756" lon="5.20041">
        <ele>275</ele>
        <time>2024-02-11T19:01:19Z</time>
      </trkpt>
      <trkpt lat="43.76762" lon="5.20032">
        <ele>274</ele>
        <time>2024-02-11T19:01:21Z</time>
      </trkpt>
      <trkpt lat="43.7676" lon="5.20014">
        <ele>272</ele>
        <time>2024-02-11T19:01:24Z</time>
      </trkpt>
      <trkpt lat="43.76767" lon="5.19998">
        <ele>269</ele>
        <time>2024-02-11T19:01:27Z</time>
      </trkpt>
      <trkpt lat="43.76774" lon="5.19993">
        <ele>268</ele>
        <time>2024-02-11T19:01:29Z</time>
      </trkpt>
      <trkpt lat="43.7678" lon="5.19979">
        <ele>266</ele>
        <time>2024-02-11T19:01:32Z</time>
      </trkpt>
      <trkpt lat="43.76825" lon="5.19984">
        <ele>263</ele>
        <time>2024-02-11T19:01:42Z</time>
      </trkpt>
      <trkpt lat="43.76832" lon="5.19981">
        <ele>262</ele>
        <time>2024-02-11T19:01:44Z</time>
      </trkpt>
      <trkpt lat="43.76843" lon="5.19982">
        <ele>260</ele>
        <time>2024-02-11T19:01:46Z</time>
      </trkpt>
      <trkpt lat="43.76845" lon="5.19976">
        <ele>259</ele>
        <time>2024-02-11T19:01:48Z</time>
      </trkpt>
      <trkpt lat="43.76851" lon="5.19973">
        <ele>258</ele>
        <time>2024-02-11T19:01:49Z</time>
      </trkpt>
      <trkpt lat="43.76856" lon="5.19975">
        <ele>257</ele>
        <time>2024-02-11T19:01:50Z</time>
      </trkpt>
      <trkpt lat="43.76884" lon="5.19999">
        <ele>254</ele>
        <time>2024-02-11T19:01:58Z</time>
      </trkpt>
      <trkpt lat="43.76891" lon="5.20012">
        <ele>254</ele>
        <time>2024-02-11T19:02:01Z</time>
      </trkpt>
      <trkpt lat="43.769" lon="5.20021">
        <ele>254</ele>
        <time>2024-02-11T19:02:03Z</time>
      </trkpt>
      <trkpt lat="43.76923" lon="5.20032">
        <ele>252</ele>
        <time>2024-02-11T19:02:09Z</time>
      </trkpt>
      <trkpt lat="43.76933" lon="5.20044">
        <ele>253</ele>
        <time>2024-02-11T19:02:12Z</time>
      </trkpt>
      <trkpt lat="43.76944" lon="5.20052">
        <ele>254</ele>
        <time>2024-02-11T19:02:15Z</time>
      </trkpt>
      <trkpt lat="43.76964" lon="5.2006">
        <ele>253</ele>
        <time>2024-02-11T19:02:20Z</time>
      </trkpt>
      <trkpt lat="43.76986" lon="5.20088">
        <ele>250</ele>
        <time>2024-02-11T19:02:27Z</time>
      </trkpt>
      <trkpt lat="43.76991" lon="5.20091">
        <ele>250</ele>
        <time>2024-02-11T19:02:28Z</time>
      </trkpt>
      <trkpt lat="43.77011" lon="5.20076">
        <ele>251</ele>
        <time>2024-02-11T19:02:33Z</time>
      </trkpt>
      <trkpt lat="43.7702" lon="5.20077">
        <ele>252</ele>
        <time>2024-02-11T19:02:35Z</time>
      </trkpt>
      <trkpt lat="43.77028" lon="5.20085">
        <ele>253</ele>
        <time>2024-02-11T19:02:38Z</time>
      </trkpt>
      <trkpt lat="43.77039" lon="5.20102">
        <ele>255</ele>
        <time>2024-02-11T19:02:42Z</time>
      </trkpt>
      <trkpt lat="43.7704" lon="5.20119">
        <ele>255</ele>
        <time>2024-02-11T19:02:44Z</time>
      </trkpt>
      <trkpt lat="43.77043" lon="5.20125">
        <ele>256</ele>
        <time>2024-02-11T19:02:46Z</time>
      </trkpt>
      <trkpt lat="43.7706" lon="5.20138">
        <ele>257</ele>
        <time>2024-02-11T19:02:50Z</time>
      </trkpt>
      <trkpt lat="43.77065" lon="5.20139">
        <ele>257</ele>
        <time>2024-02-11T19:02:51Z</time>
      </trkpt>
      <trkpt lat="43.77084" lon="5.20151">
        <ele>257</ele>
        <time>2024-02-11T19:02:56Z</time>
      </trkpt>
      <trkpt lat="43.77093" lon="5.20153">
        <ele>258</ele>
        <time>2024-02-11T19:02:58Z</time>
      </trkpt>
      <trkpt lat="43.77104" lon="5.20149">
        <ele>259</ele>
        <time>2024-02-11T19:03:01Z</time>
      </trkpt>
      <trkpt lat="43.77114" lon="5.2014">
        <ele>261</ele>
        <time>2024-02-11T19:03:04Z</time>
      </trkpt>
      <trkpt lat="43.77125" lon="5.20138">
        <ele>263</ele>
        <time>2024-02-11T19:03:06Z</time>
      </trkpt>
      <trkpt lat="43.7714" lon="5.20148">
        <ele>263</ele>
        <time>2024-02-11T19:03:10Z</time>
      </trkpt>
      <trkpt lat="43.77152" lon="5.20169">
        <ele>262</ele>
        <time>2024-02-11T19:03:15Z</time>
      </trkpt>
      <trkpt lat="43.77163" lon="5.20205">
        <ele>263</ele>
        <time>2024-02-11T19:03:21Z</time>
      </trkpt>
      <trkpt lat="43.77171" lon="5.20215">
        <ele>263</ele>
        <time>2024-02-11T19:03:24Z</time>
      </trkpt>
      <trkpt lat="43.77184" lon="5.20245">
        <ele>264</ele>
        <time>2024-02-11T19:03:30Z</time>
      </trkpt>
      <trkpt lat="43.7719" lon="5.20283">
        <ele>266</ele>
        <time>2024-02-11T19:03:36Z</time>
      </trkpt>
      <trkpt lat="43.77186" lon="5.20331">
        <ele>267</ele>
        <time>2024-02-11T19:03:45Z</time>
      </trkpt>
      <trkpt lat="43.77177" lon="5.20387">
        <ele>269</ele>
        <time>2024-02-11T19:03:54Z</time>
      </trkpt>
      <trkpt lat="43.77181" lon="5.2043">
        <ele>270</ele>
        <time>2024-02-11T19:04:02Z</time>
      </trkpt>
      <trkpt lat="43.77173" lon="5.20487">
        <ele>272</ele>
        <time>2024-02-11T19:04:11Z</time>
      </trkpt>
      <trkpt lat="43.77168" lon="5.20503">
        <ele>273</ele>
        <time>2024-02-11T19:04:14Z</time>
      </trkpt>
      <trkpt lat="43.77145" lon="5.20622">
        <ele>281</ele>
        <time>2024-02-11T19:04:35Z</time>
      </trkpt>
      <trkpt lat="43.77136" lon="5.20706">
        <ele>284</ele>
        <time>2024-02-11T19:04:49Z</time>
      </trkpt>
      <trkpt lat="43.7713" lon="5.20726">
        <ele>284</ele>
        <time>2024-02-11T19:04:53Z</time>
      </trkpt>
      <trkpt lat="43.77115" lon="5.20761">
        <ele>286</ele>
        <time>2024-02-11T19:05:00Z</time>
      </trkpt>
      <trkpt lat="43.77114" lon="5.20776">
        <ele>286</ele>
        <time>2024-02-11T19:05:02Z</time>
      </trkpt>
      <trkpt lat="43.77118" lon="5.20806">
        <ele>286</ele>
        <time>2024-02-11T19:05:08Z</time>
      </trkpt>
      <trkpt lat="43.77117" lon="5.20845">
        <ele>287</ele>
        <time>2024-02-11T19:05:14Z</time>
      </trkpt>
      <trkpt lat="43.77091" lon="5.21004">
        <ele>292</ele>
        <time>2024-02-11T19:05:42Z</time>
      </trkpt>
      <trkpt lat="43.7708" lon="5.21037">
        <ele>294</ele>
        <time>2024-02-11T19:05:48Z</time>
      </trkpt>
      <trkpt lat="43.77076" lon="5.2106">
        <ele>296</ele>
        <time>2024-02-11T19:05:52Z</time>
      </trkpt>
      <trkpt lat="43.77076" lon="5.21149">
        <ele>300</ele>
        <time>2024-02-11T19:06:07Z</time>
      </trkpt>
      <trkpt lat="43.77064" lon="5.21299">
        <ele>305</ele>
        <time>2024-02-11T19:06:32Z</time>
      </trkpt>
      <trkpt lat="43.77056" lon="5.21306">
        <ele>305</ele>
        <time>2024-02-11T19:06:34Z</time>
      </trkpt>
      <trkpt lat="43.77056" lon="5.2138">
        <ele>305</ele>
        <time>2024-02-11T19:06:47Z</time>
      </trkpt>
      <trkpt lat="43.77064" lon="5.21444">
        <ele>303</ele>
        <time>2024-02-11T19:06:58Z</time>
      </trkpt>
      <trkpt lat="43.77065" lon="5.21472">
        <ele>301</ele>
        <time>2024-02-11T19:07:03Z</time>
      </trkpt>
      <trkpt lat="43.7706" lon="5.2149">
        <ele>301</ele>
        <time>2024-02-11T19:07:06Z</time>
      </trkpt>
      <trkpt lat="43.77055" lon="5.21528">
        <ele>300</ele>
        <time>2024-02-11T19:07:12Z</time>
      </trkpt>
      <trkpt lat="43.77056" lon="5.2155">
        <ele>299</ele>
        <time>2024-02-11T19:07:16Z</time>
      </trkpt>
      <trkpt lat="43.77085" lon="5.21585">
        <ele>296</ele>
        <time>2024-02-11T19:07:25Z</time>
      </trkpt>
      <trkpt lat="43.771" lon="5.21609">
        <ele>299</ele>
        <time>2024-02-11T19:07:30Z</time>
      </trkpt>
      <trkpt lat="43.77099" lon="5.2163">
        <ele>299</ele>
        <time>2024-02-11T19:07:34Z</time>
      </trkpt>
      <trkpt lat="43.77106" lon="5.21644">
        <ele>301</ele>
        <time>2024-02-11T19:07:37Z</time>
      </trkpt>
      <trkpt lat="43.77101" lon="5.21725">
        <ele>297</ele>
        <time>2024-02-11T19:07:51Z</time>
      </trkpt>
      <trkpt lat="43.77102" lon="5.21781">
        <ele>291</ele>
        <time>2024-02-11T19:08:00Z</time>
      </trkpt>
      <trkpt lat="43.77081" lon="5.21814">
        <ele>285</ele>
        <time>2024-02-11T19:08:07Z</time>
      </trkpt>
      <trkpt lat="43.77057" lon="5.21842">
        <ele>281</ele>
        <time>2024-02-11T19:08:15Z</time>
      </trkpt>
      <trkpt lat="43.77055" lon="5.21852">
        <ele>279</ele>
        <time>2024-02-11T19:08:17Z</time>
      </trkpt>
      <trkpt lat="43.77059" lon="5.21859">
        <ele>278</ele>
        <time>2024-02-11T19:08:18Z</time>
      </trkpt>
      <trkpt lat="43.77042" lon="5.21929">
        <ele>269</ele>
        <time>2024-02-11T19:08:30Z</time>
      </trkpt>
      <trkpt lat="43.77039" lon="5.21949">
        <ele>267</ele>
        <time>2024-02-11T19:08:34Z</time>
      </trkpt>
      <trkpt lat="43.77039" lon="5.21973">
        <ele>264</ele>
        <time>2024-02-11T19:08:38Z</time>
      </trkpt>
      <trkpt lat="43.77032" lon="5.22006">
        <ele>261</ele>
        <time>2024-02-11T19:08:44Z</time>
      </trkpt>
      <trkpt lat="43.77029" lon="5.22043">
        <ele>257</ele>
        <time>2024-02-11T19:08:50Z</time>
      </trkpt>
      <trkpt lat="43.77017" lon="5.2208">
        <ele>253</ele>
        <time>2024-02-11T19:08:57Z</time>
      </trkpt>
      <trkpt lat="43.77014" lon="5.22117">
        <ele>251</ele>
        <time>2024-02-11T19:09:03Z</time>
      </trkpt>
      <trkpt lat="43.77004" lon="5.22132">
        <ele>249</ele>
        <time>2024-02-11T19:09:07Z</time>
      </trkpt>
      <trkpt lat="43.76986" lon="5.2214">
        <ele>249</ele>
        <time>2024-02-11T19:09:11Z</time>
      </trkpt>
      <trkpt lat="43.76987" lon="5.2215">
        <ele>248</ele>
        <time>2024-02-11T19:09:13Z</time>
      </trkpt>
      <trkpt lat="43.77004" lon="5.22164">
        <ele>248</ele>
        <time>2024-02-11T19:09:17Z</time>
      </trkpt>
      <trkpt lat="43.77029" lon="5.22154">
        <ele>251</ele>
        <time>2024-02-11T19:09:23Z</time>
      </trkpt>
      <trkpt lat="43.77054" lon="5.22129">
        <ele>254</ele>
        <time>2024-02-11T19:09:31Z</time>
      </trkpt>
      <trkpt lat="43.77062" lon="5.22109">
        <ele>255</ele>
        <time>2024-02-11T19:09:34Z</time>
      </trkpt>
      <trkpt lat="43.77076" lon="5.22056">
        <ele>256</ele>
        <time>2024-02-11T19:09:44Z</time>
      </trkpt>
      <trkpt lat="43.77078" lon="5.21989">
        <ele>259</ele>
        <time>2024-02-11T19:09:55Z</time>
      </trkpt>
      <trkpt lat="43.77081" lon="5.21975">
        <ele>260</ele>
        <time>2024-02-11T19:09:58Z</time>
      </trkpt>
      <trkpt lat="43.7709" lon="5.21956">
        <ele>262</ele>
        <time>2024-02-11T19:10:02Z</time>
      </trkpt>
      <trkpt lat="43.77112" lon="5.21944">
        <ele>264</ele>
        <time>2024-02-11T19:10:07Z</time>
      </trkpt>
      <trkpt lat="43.77122" lon="5.21941">
        <ele>264</ele>
        <time>2024-02-11T19:10:10Z</time>
      </trkpt>
      <trkpt lat="43.7713" lon="5.21944">
        <ele>265</ele>
        <time>2024-02-11T19:10:11Z</time>
      </trkpt>
      <trkpt lat="43.77143" lon="5.21942">
        <ele>265</ele>
        <time>2024-02-11T19:10:15Z</time>
      </trkpt>
      <trkpt lat="43.77152" lon="5.21938">
        <ele>266</ele>
        <time>2024-02-11T19:10:17Z</time>
      </trkpt>
      <trkpt lat="43.77157" lon="5.21933">
        <ele>266</ele>
        <time>2024-02-11T19:10:18Z</time>
      </trkpt>
      <trkpt lat="43.77161" lon="5.21937">
        <ele>266</ele>
        <time>2024-02-11T19:10:19Z</time>
      </trkpt>
      <trkpt lat="43.77179" lon="5.21932">
        <ele>268</ele>
        <time>2024-02-11T19:10:24Z</time>
      </trkpt>
      <trkpt lat="43.77214" lon="5.21937">
        <ele>273</ele>
        <time>2024-02-11T19:10:32Z</time>
      </trkpt>
      <trkpt lat="43.77253" lon="5.21932">
        <ele>277</ele>
        <time>2024-02-11T19:10:41Z</time>
      </trkpt>
      <trkpt lat="43.77267" lon="5.21928">
        <ele>278</ele>
        <time>2024-02-11T19:10:44Z</time>
      </trkpt>
      <trkpt lat="43.77289" lon="5.2193">
        <ele>279</ele>
        <time>2024-02-11T19:10:49Z</time>
      </trkpt>
      <trkpt lat="43.77302" lon="5.21918">
        <ele>278</ele>
        <time>2024-02-11T19:10:53Z</time>
      </trkpt>
      <trkpt lat="43.77305" lon="5.21909">
        <ele>278</ele>
        <time>2024-02-11T19:10:55Z</time>
      </trkpt>
      <trkpt lat="43.7731" lon="5.21903">
        <ele>279</ele>
        <time>2024-02-11T19:10:56Z</time>
      </trkpt>
      <trkpt lat="43.7733" lon="5.21903">
        <ele>279</ele>
        <time>2024-02-11T19:11:01Z</time>
      </trkpt>
      <trkpt lat="43.77335" lon="5.21901">
        <ele>280</ele>
        <time>2024-02-11T19:11:02Z</time>
      </trkpt>
      <trkpt lat="43.77345" lon="5.21886">
        <ele>282</ele>
        <time>2024-02-11T19:11:06Z</time>
      </trkpt>
      <trkpt lat="43.77347" lon="5.21874">
        <ele>282</ele>
        <time>2024-02-11T19:11:08Z</time>
      </trkpt>
      <trkpt lat="43.77355" lon="5.2187">
        <ele>283</ele>
        <time>2024-02-11T19:11:10Z</time>
      </trkpt>
      <trkpt lat="43.77361" lon="5.2183">
        <ele>283</ele>
        <time>2024-02-11T19:11:17Z</time>
      </trkpt>
      <trkpt lat="43.77373" lon="5.21815">
        <ele>285</ele>
        <time>2024-02-11T19:11:20Z</time>
      </trkpt>
      <trkpt lat="43.77393" lon="5.21801">
        <ele>287</ele>
        <time>2024-02-11T19:11:26Z</time>
      </trkpt>
      <trkpt lat="43.77406" lon="5.21781">
        <ele>287</ele>
        <time>2024-02-11T19:11:30Z</time>
      </trkpt>
      <trkpt lat="43.77412" lon="5.21762">
        <ele>286</ele>
        <time>2024-02-11T19:11:34Z</time>
      </trkpt>
      <trkpt lat="43.77416" lon="5.21731">
        <ele>288</ele>
        <time>2024-02-11T19:11:39Z</time>
      </trkpt>
      <trkpt lat="43.77425" lon="5.21718">
        <ele>291</ele>
        <time>2024-02-11T19:11:42Z</time>
      </trkpt>
      <trkpt lat="43.77465" lon="5.21686">
        <ele>295</ele>
        <time>2024-02-11T19:11:53Z</time>
      </trkpt>
      <trkpt lat="43.77476" lon="5.21674">
        <ele>294</ele>
        <time>2024-02-11T19:11:56Z</time>
      </trkpt>
      <trkpt lat="43.7749" lon="5.2167">
        <ele>293</ele>
        <time>2024-02-11T19:11:59Z</time>
      </trkpt>
      <trkpt lat="43.77495" lon="5.21666">
        <ele>292</ele>
        <time>2024-02-11T19:12:01Z</time>
      </trkpt>
      <trkpt lat="43.77498" lon="5.21659">
        <ele>293</ele>
        <time>2024-02-11T19:12:02Z</time>
      </trkpt>
      <trkpt lat="43.77502" lon="5.21621">
        <ele>295</ele>
        <time>2024-02-11T19:12:09Z</time>
      </trkpt>
      <trkpt lat="43.77512" lon="5.21608">
        <ele>296</ele>
        <time>2024-02-11T19:12:12Z</time>
      </trkpt>
      <trkpt lat="43.77526" lon="5.21583">
        <ele>297</ele>
        <time>2024-02-11T19:12:17Z</time>
      </trkpt>
      <trkpt lat="43.77534" lon="5.21574">
        <ele>299</ele>
        <time>2024-02-11T19:12:20Z</time>
      </trkpt>
      <trkpt lat="43.77542" lon="5.21567">
        <ele>300</ele>
        <time>2024-02-11T19:12:22Z</time>
      </trkpt>
      <trkpt lat="43.77549" lon="5.21565">
        <ele>300</ele>
        <time>2024-02-11T19:12:23Z</time>
      </trkpt>
      <trkpt lat="43.77558" lon="5.21567">
        <ele>300</ele>
        <time>2024-02-11T19:12:26Z</time>
      </trkpt>
      <trkpt lat="43.77566" lon="5.21572">
        <ele>299</ele>
        <time>2024-02-11T19:12:28Z</time>
      </trkpt>
      <trkpt lat="43.77578" lon="5.2157">
        <ele>299</ele>
        <time>2024-02-11T19:12:30Z</time>
      </trkpt>
      <trkpt lat="43.77586" lon="5.21565">
        <ele>299</ele>
        <time>2024-02-11T19:12:32Z</time>
      </trkpt>
      <trkpt lat="43.77603" lon="5.21543">
        <ele>302</ele>
        <time>2024-02-11T19:12:38Z</time>
      </trkpt>
      <trkpt lat="43.77611" lon="5.21527">
        <ele>303</ele>
        <time>2024-02-11T19:12:41Z</time>
      </trkpt>
      <trkpt lat="43.77614" lon="5.2152">
        <ele>303</ele>
        <time>2024-02-11T19:12:43Z</time>
      </trkpt>
      <trkpt lat="43.77613" lon="5.21494">
        <ele>304</ele>
        <time>2024-02-11T19:12:47Z</time>
      </trkpt>
      <trkpt lat="43.77608" lon="5.21475">
        <ele>305</ele>
        <time>2024-02-11T19:12:50Z</time>
      </trkpt>
      <trkpt lat="43.77602" lon="5.21469">
        <ele>306</ele>
        <time>2024-02-11T19:12:52Z</time>
      </trkpt>
      <trkpt lat="43.77591" lon="5.21498">
        <ele>303</ele>
        <time>2024-02-11T19:12:58Z</time>
      </trkpt>
      <trkpt lat="43.77579" lon="5.21513">
        <ele>302</ele>
        <time>2024-02-11T19:13:01Z</time>
      </trkpt>
      <trkpt lat="43.77565" lon="5.21521">
        <ele>304</ele>
        <time>2024-02-11T19:13:05Z</time>
      </trkpt>
      <trkpt lat="43.7756" lon="5.2152">
        <ele>305</ele>
        <time>2024-02-11T19:13:06Z</time>
      </trkpt>
      <trkpt lat="43.77559" lon="5.21515">
        <ele>306</ele>
        <time>2024-02-11T19:13:07Z</time>
      </trkpt>
      <trkpt lat="43.77568" lon="5.21507">
        <ele>305</ele>
        <time>2024-02-11T19:13:09Z</time>
      </trkpt>
      <trkpt lat="43.77582" lon="5.21466">
        <ele>306</ele>
        <time>2024-02-11T19:13:17Z</time>
      </trkpt>
      <trkpt lat="43.77589" lon="5.21417">
        <ele>311</ele>
        <time>2024-02-11T19:13:26Z</time>
      </trkpt>
      <trkpt lat="43.77596" lon="5.21338">
        <ele>315</ele>
        <time>2024-02-11T19:13:39Z</time>
      </trkpt>
      <trkpt lat="43.77599" lon="5.21328">
        <ele>316</ele>
        <time>2024-02-11T19:13:41Z</time>
      </trkpt>
      <trkpt lat="43.77627" lon="5.21272">
        <ele>319</ele>
        <time>2024-02-11T19:13:52Z</time>
      </trkpt>
      <trkpt lat="43.77639" lon="5.21257">
        <ele>317</ele>
        <time>2024-02-11T19:13:56Z</time>
      </trkpt>
      <trkpt lat="43.77663" lon="5.21247">
        <ele>313</ele>
        <time>2024-02-11T19:14:02Z</time>
      </trkpt>
      <trkpt lat="43.77671" lon="5.21239">
        <ele>315</ele>
        <time>2024-02-11T19:14:04Z</time>
      </trkpt>
      <trkpt lat="43.77678" lon="5.21224">
        <ele>318</ele>
        <time>2024-02-11T19:14:07Z</time>
      </trkpt>
      <trkpt lat="43.77687" lon="5.21193">
        <ele>322</ele>
        <time>2024-02-11T19:14:13Z</time>
      </trkpt>
      <trkpt lat="43.77697" lon="5.21178">
        <ele>324</ele>
        <time>2024-02-11T19:14:16Z</time>
      </trkpt>
      <trkpt lat="43.77707" lon="5.21171">
        <ele>325</ele>
        <time>2024-02-11T19:14:19Z</time>
      </trkpt>
      <trkpt lat="43.77717" lon="5.21158">
        <ele>328</ele>
        <time>2024-02-11T19:14:22Z</time>
      </trkpt>
      <trkpt lat="43.77748" lon="5.21142">
        <ele>331</ele>
        <time>2024-02-11T19:14:30Z</time>
      </trkpt>
      <trkpt lat="43.77772" lon="5.21138">
        <ele>333</ele>
        <time>2024-02-11T19:14:35Z</time>
      </trkpt>
      <trkpt lat="43.77793" lon="5.21117">
        <ele>335</ele>
        <time>2024-02-11T19:14:42Z</time>
      </trkpt>
      <trkpt lat="43.77817" lon="5.2111">
        <ele>335</ele>
        <time>2024-02-11T19:14:47Z</time>
      </trkpt>
      <trkpt lat="43.77829" lon="5.21111">
        <ele>335</ele>
        <time>2024-02-11T19:14:50Z</time>
      </trkpt>
      <trkpt lat="43.77847" lon="5.21121">
        <ele>337</ele>
        <time>2024-02-11T19:14:55Z</time>
      </trkpt>
      <trkpt lat="43.77854" lon="5.21129">
        <ele>337</ele>
        <time>2024-02-11T19:14:57Z</time>
      </trkpt>
      <trkpt lat="43.77863" lon="5.21133">
        <ele>337</ele>
        <time>2024-02-11T19:14:59Z</time>
      </trkpt>
      <trkpt lat="43.77889" lon="5.21152">
        <ele>335</ele>
        <time>2024-02-11T19:15:06Z</time>
      </trkpt>
      <trkpt lat="43.77901" lon="5.21169">
        <ele>332</ele>
        <time>2024-02-11T19:15:10Z</time>
      </trkpt>
      <trkpt lat="43.77918" lon="5.21181">
        <ele>334</ele>
        <time>2024-02-11T19:15:14Z</time>
      </trkpt>
      <trkpt lat="43.77936" lon="5.21177">
        <ele>336</ele>
        <time>2024-02-11T19:15:18Z</time>
      </trkpt>
      <trkpt lat="43.77957" lon="5.21183">
        <ele>339</ele>
        <time>2024-02-11T19:15:23Z</time>
      </trkpt>
      <trkpt lat="43.77976" lon="5.21181">
        <ele>341</ele>
        <time>2024-02-11T19:15:28Z</time>
      </trkpt>
      <trkpt lat="43.78007" lon="5.21206">
        <ele>344</ele>
        <time>2024-02-11T19:15:36Z</time>
      </trkpt>
      <trkpt lat="43.78028" lon="5.21246">
        <ele>345</ele>
        <time>2024-02-11T19:15:45Z</time>
      </trkpt>
      <trkpt lat="43.78032" lon="5.21262">
        <ele>347</ele>
        <time>2024-02-11T19:15:48Z</time>
      </trkpt>
      <trkpt lat="43.78044" lon="5.21283">
        <ele>349</ele>
        <time>2024-02-11T19:15:52Z</time>
      </trkpt>
      <trkpt lat="43.78047" lon="5.21293">
        <ele>350</ele>
        <time>2024-02-11T19:15:54Z</time>
      </trkpt>
      <trkpt lat="43.78046" lon="5.21303">
        <ele>351</ele>
        <time>2024-02-11T19:15:56Z</time>
      </trkpt>
      <trkpt lat="43.7804" lon="5.21321">
        <ele>353</ele>
        <time>2024-02-11T19:15:59Z</time>
      </trkpt>
      <trkpt lat="43.78035" lon="5.21328">
        <ele>354</ele>
        <time>2024-02-11T19:16:01Z</time>
      </trkpt>
      <trkpt lat="43.78032" lon="5.21341">
        <ele>355</ele>
        <time>2024-02-11T19:16:03Z</time>
      </trkpt>
      <trkpt lat="43.78032" lon="5.21356">
        <ele>356</ele>
        <time>2024-02-11T19:16:05Z</time>
      </trkpt>
      <trkpt lat="43.78035" lon="5.21369">
        <ele>357</ele>
        <time>2024-02-11T19:16:08Z</time>
      </trkpt>
      <trkpt lat="43.78039" lon="5.21377">
        <ele>357</ele>
        <time>2024-02-11T19:16:09Z</time>
      </trkpt>
      <trkpt lat="43.7805" lon="5.21387">
        <ele>356</ele>
        <time>2024-02-11T19:16:12Z</time>
      </trkpt>
      <trkpt lat="43.78057" lon="5.21398">
        <ele>356</ele>
        <time>2024-02-11T19:16:15Z</time>
      </trkpt>
      <trkpt lat="43.78065" lon="5.2143">
        <ele>358</ele>
        <time>2024-02-11T19:16:21Z</time>
      </trkpt>
      <trkpt lat="43.78072" lon="5.2144">
        <ele>358</ele>
        <time>2024-02-11T19:16:23Z</time>
      </trkpt>
      <trkpt lat="43.7808" lon="5.21439">
        <ele>357</ele>
        <time>2024-02-11T19:16:25Z</time>
      </trkpt>
      <trkpt lat="43.78105" lon="5.21421">
        <ele>355</ele>
        <time>2024-02-11T19:16:31Z</time>
      </trkpt>
      <trkpt lat="43.78125" lon="5.21418">
        <ele>356</ele>
        <time>2024-02-11T19:16:36Z</time>
      </trkpt>
      <trkpt lat="43.78176" lon="5.21403">
        <ele>362</ele>
        <time>2024-02-11T19:16:48Z</time>
      </trkpt>
      <trkpt lat="43.78185" lon="5.21399">
        <ele>363</ele>
        <time>2024-02-11T19:16:50Z</time>
      </trkpt>
      <trkpt lat="43.78199" lon="5.21388">
        <ele>365</ele>
        <time>2024-02-11T19:16:54Z</time>
      </trkpt>
      <trkpt lat="43.78219" lon="5.21384">
        <ele>368</ele>
        <time>2024-02-11T19:16:59Z</time>
      </trkpt>
      <trkpt lat="43.78235" lon="5.21386">
        <ele>370</ele>
        <time>2024-02-11T19:17:03Z</time>
      </trkpt>
      <trkpt lat="43.78245" lon="5.21391">
        <ele>371</ele>
        <time>2024-02-11T19:17:05Z</time>
      </trkpt>
      <trkpt lat="43.78249" lon="5.21399">
        <ele>372</ele>
        <time>2024-02-11T19:17:07Z</time>
      </trkpt>
      <trkpt lat="43.78249" lon="5.2141">
        <ele>371</ele>
        <time>2024-02-11T19:17:09Z</time>
      </trkpt>
      <trkpt lat="43.78253" lon="5.2142">
        <ele>372</ele>
        <time>2024-02-11T19:17:11Z</time>
      </trkpt>
      <trkpt lat="43.78265" lon="5.21435">
        <ele>375</ele>
        <time>2024-02-11T19:17:14Z</time>
      </trkpt>
      <trkpt lat="43.78329" lon="5.21483">
        <ele>386</ele>
        <time>2024-02-11T19:17:31Z</time>
      </trkpt>
      <trkpt lat="43.78368" lon="5.21497">
        <ele>390</ele>
        <time>2024-02-11T19:17:41Z</time>
      </trkpt>
      <trkpt lat="43.78389" lon="5.21501">
        <ele>393</ele>
        <time>2024-02-11T19:17:46Z</time>
      </trkpt>
      <trkpt lat="43.78384" lon="5.215">
        <ele>392</ele>
        <time>2024-02-11T19:17:47Z</time>
      </trkpt>
      <trkpt lat="43.78397" lon="5.21492">
        <ele>391</ele>
        <time>2024-02-11T19:17:50Z</time>
      </trkpt>
      <trkpt lat="43.78405" lon="5.2149">
        <ele>391</ele>
        <time>2024-02-11T19:17:52Z</time>
      </trkpt>
      <trkpt lat="43.78432" lon="5.21492">
        <ele>393</ele>
        <time>2024-02-11T19:17:58Z</time>
      </trkpt>
      <trkpt lat="43.78453" lon="5.215">
        <ele>394</ele>
        <time>2024-02-11T19:18:04Z</time>
      </trkpt>
      <trkpt lat="43.7846" lon="5.2151">
        <ele>397</ele>
        <time>2024-02-11T19:18:06Z</time>
      </trkpt>
      <trkpt lat="43.78469" lon="5.21515">
        <ele>399</ele>
        <time>2024-02-11T19:18:08Z</time>
      </trkpt>
      <trkpt lat="43.78472" lon="5.2152">
        <ele>400</ele>
        <time>2024-02-11T19:18:09Z</time>
      </trkpt>
      <trkpt lat="43.78508" lon="5.21543">
        <ele>408</ele>
        <time>2024-02-11T19:18:19Z</time>
      </trkpt>
      <trkpt lat="43.78552" lon="5.21578">
        <ele>421</ele>
        <time>2024-02-11T19:18:30Z</time>
      </trkpt>
      <trkpt lat="43.78553" lon="5.21581">
        <ele>422</ele>
        <time>2024-02-11T19:18:31Z</time>
      </trkpt>
      <trkpt lat="43.78548" lon="5.21586">
        <ele>423</ele>
        <time>2024-02-11T19:18:32Z</time>
      </trkpt>
      <trkpt lat="43.78516" lon="5.21602">
        <ele>423</ele>
        <time>2024-02-11T19:18:40Z</time>
      </trkpt>
      <trkpt lat="43.78496" lon="5.21609">
        <ele>421</ele>
        <time>2024-02-11T19:18:45Z</time>
      </trkpt>
      <trkpt lat="43.78481" lon="5.21619">
        <ele>420</ele>
        <time>2024-02-11T19:18:49Z</time>
      </trkpt>
      <trkpt lat="43.78477" lon="5.21625">
        <ele>420</ele>
        <time>2024-02-11T19:18:50Z</time>
      </trkpt>
      <trkpt lat="43.78483" lon="5.21631">
        <ele>421</ele>
        <time>2024-02-11T19:18:52Z</time>
      </trkpt>
      <trkpt lat="43.78495" lon="5.21655">
        <ele>426</ele>
        <time>2024-02-11T19:18:57Z</time>
      </trkpt>
      <trkpt lat="43.78499" lon="5.21659">
        <ele>427</ele>
        <time>2024-02-11T19:18:58Z</time>
      </trkpt>
      <trkpt lat="43.78509" lon="5.21662">
        <ele>429</ele>
        <time>2024-02-11T19:19:01Z</time>
      </trkpt>
      <trkpt lat="43.7852" lon="5.21679">
        <ele>433</ele>
        <time>2024-02-11T19:19:04Z</time>
      </trkpt>
      <trkpt lat="43.78526" lon="5.21729">
        <ele>435</ele>
        <time>2024-02-11T19:19:13Z</time>
      </trkpt>
      <trkpt lat="43.78545" lon="5.21784">
        <ele>445</ele>
        <time>2024-02-11T19:19:23Z</time>
      </trkpt>
      <trkpt lat="43.78546" lon="5.21836">
        <ele>450</ele>
        <time>2024-02-11T19:19:32Z</time>
      </trkpt>
      <trkpt lat="43.78539" lon="5.2186">
        <ele>447</ele>
        <time>2024-02-11T19:19:36Z</time>
      </trkpt>
      <trkpt lat="43.78537" lon="5.21888">
        <ele>447</ele>
        <time>2024-02-11T19:19:41Z</time>
      </trkpt>
      <trkpt lat="43.78541" lon="5.21909">
        <ele>447</ele>
        <time>2024-02-11T19:19:45Z</time>
      </trkpt>
      <trkpt lat="43.78544" lon="5.21914">
        <ele>447</ele>
        <time>2024-02-11T19:19:46Z</time>
      </trkpt>
      <trkpt lat="43.78548" lon="5.21912">
        <ele>448</ele>
        <time>2024-02-11T19:19:47Z</time>
      </trkpt>
      <trkpt lat="43.78549" lon="5.21902">
        <ele>449</ele>
        <time>2024-02-11T19:19:49Z</time>
      </trkpt>
      <trkpt lat="43.78563" lon="5.21882">
        <ele>452</ele>
        <time>2024-02-11T19:19:53Z</time>
      </trkpt>
      <trkpt lat="43.7858" lon="5.21873">
        <ele>456</ele>
        <time>2024-02-11T19:19:58Z</time>
      </trkpt>
      <trkpt lat="43.78582" lon="5.21875">
        <ele>457</ele>
        <time>2024-02-11T19:19:58Z</time>
      </trkpt>
      <trkpt lat="43.78575" lon="5.21891">
        <ele>454</ele>
        <time>2024-02-11T19:20:01Z</time>
      </trkpt>
      <trkpt lat="43.7858" lon="5.21901">
        <ele>454</ele>
        <time>2024-02-11T19:20:03Z</time>
      </trkpt>
      <trkpt lat="43.78578" lon="5.21926">
        <ele>451</ele>
        <time>2024-02-11T19:20:08Z</time>
      </trkpt>
      <trkpt lat="43.7859" lon="5.21928">
        <ele>453</ele>
        <time>2024-02-11T19:20:10Z</time>
      </trkpt>
      <trkpt lat="43.78594" lon="5.21938">
        <ele>452</ele>
        <time>2024-02-11T19:20:12Z</time>
      </trkpt>
      <trkpt lat="43.78598" lon="5.21939">
        <ele>453</ele>
        <time>2024-02-11T19:20:13Z</time>
      </trkpt>
      <trkpt lat="43.78603" lon="5.21936">
        <ele>455</ele>
        <time>2024-02-11T19:20:15Z</time>
      </trkpt>
      <trkpt lat="43.7862" lon="5.21943">
        <ele>458</ele>
        <time>2024-02-11T19:20:19Z</time>
      </trkpt>
      <trkpt lat="43.78623" lon="5.21954">
        <ele>457</ele>
        <time>2024-02-11T19:20:21Z</time>
      </trkpt>
      <trkpt lat="43.78618" lon="5.21972">
        <ele>454</ele>
        <time>2024-02-11T19:20:24Z</time>
      </trkpt>
      <trkpt lat="43.78608" lon="5.21976">
        <ele>450</ele>
        <time>2024-02-11T19:20:26Z</time>
      </trkpt>
      <trkpt lat="43.78597" lon="5.21996">
        <ele>443</ele>
        <time>2024-02-11T19:20:31Z</time>
      </trkpt>
      <trkpt lat="43.78596" lon="5.22008">
        <ele>442</ele>
        <time>2024-02-11T19:20:33Z</time>
      </trkpt>
      <trkpt lat="43.78584" lon="5.22019">
        <ele>437</ele>
        <time>2024-02-11T19:20:36Z</time>
      </trkpt>
      <trkpt lat="43.78567" lon="5.22047">
        <ele>433</ele>
        <time>2024-02-11T19:20:42Z</time>
      </trkpt>
      <trkpt lat="43.78565" lon="5.22064">
        <ele>431</ele>
        <time>2024-02-11T19:20:45Z</time>
      </trkpt>
      <trkpt lat="43.78554" lon="5.22076">
        <ele>428</ele>
        <time>2024-02-11T19:20:48Z</time>
      </trkpt>
      <trkpt lat="43.78543" lon="5.22108">
        <ele>421</ele>
        <time>2024-02-11T19:20:54Z</time>
      </trkpt>
      <trkpt lat="43.78526" lon="5.22116">
        <ele>416</ele>
        <time>2024-02-11T19:20:58Z</time>
      </trkpt>
      <trkpt lat="43.78522" lon="5.22128">
        <ele>412</ele>
        <time>2024-02-11T19:21:01Z</time>
      </trkpt>
      <trkpt lat="43.78513" lon="5.2214">
        <ele>407</ele>
        <time>2024-02-11T19:21:04Z</time>
      </trkpt>
      <trkpt lat="43.78502" lon="5.22151">
        <ele>401</ele>
        <time>2024-02-11T19:21:07Z</time>
      </trkpt>
      <trkpt lat="43.78493" lon="5.22152">
        <ele>400</ele>
        <time>2024-02-11T19:21:09Z</time>
      </trkpt>
      <trkpt lat="43.78489" lon="5.22157">
        <ele>399</ele>
        <time>2024-02-11T19:21:10Z</time>
      </trkpt>
      <trkpt lat="43.78485" lon="5.2217">
        <ele>395</ele>
        <time>2024-02-11T19:21:13Z</time>
      </trkpt>
      <trkpt lat="43.78487" lon="5.2217">
        <ele>395</ele>
        <time>2024-02-11T19:21:13Z</time>
      </trkpt>
      <trkpt lat="43.7849" lon="5.22179">
        <ele>393</ele>
        <time>2024-02-11T19:21:15Z</time>
      </trkpt>
      <trkpt lat="43.78485" lon="5.22191">
        <ele>389</ele>
        <time>2024-02-11T19:21:17Z</time>
      </trkpt>
      <trkpt lat="43.78483" lon="5.22211">
        <ele>383</ele>
        <time>2024-02-11T19:21:20Z</time>
      </trkpt>
      <trkpt lat="43.78491" lon="5.22222">
        <ele>380</ele>
        <time>2024-02-11T19:21:23Z</time>
      </trkpt>
      <trkpt lat="43.78497" lon="5.22243">
        <ele>375</ele>
        <time>2024-02-11T19:21:27Z</time>
      </trkpt>
      <trkpt lat="43.78505" lon="5.2226">
        <ele>375</ele>
        <time>2024-02-11T19:21:30Z</time>
      </trkpt>
      <trkpt lat="43.78498" lon="5.22267">
        <ele>374</ele>
        <time>2024-02-11T19:21:32Z</time>
      </trkpt>
      <trkpt lat="43.78481" lon="5.22268">
        <ele>373</ele>
        <time>2024-02-11T19:21:36Z</time>
      </trkpt>
      <trkpt lat="43.78451" lon="5.2228">
        <ele>373</ele>
        <time>2024-02-11T19:21:44Z</time>
      </trkpt>
      <trkpt lat="43.78427" lon="5.22283">
        <ele>373</ele>
        <time>2024-02-11T19:21:49Z</time>
      </trkpt>
      <trkpt lat="43.78412" lon="5.22279">
        <ele>371</ele>
        <time>2024-02-11T19:21:53Z</time>
      </trkpt>
      <trkpt lat="43.78397" lon="5.22269">
        <ele>367</ele>
        <time>2024-02-11T19:21:57Z</time>
      </trkpt>
      <trkpt lat="43.78376" lon="5.22269">
        <ele>363</ele>
        <time>2024-02-11T19:22:02Z</time>
      </trkpt>
      <trkpt lat="43.78365" lon="5.22273">
        <ele>362</ele>
        <time>2024-02-11T19:22:04Z</time>
      </trkpt>
      <trkpt lat="43.78351" lon="5.22286">
        <ele>361</ele>
        <time>2024-02-11T19:22:08Z</time>
      </trkpt>
      <trkpt lat="43.78333" lon="5.22295">
        <ele>358</ele>
        <time>2024-02-11T19:22:13Z</time>
      </trkpt>
      <trkpt lat="43.7832" lon="5.22292">
        <ele>356</ele>
        <time>2024-02-11T19:22:16Z</time>
      </trkpt>
      <trkpt lat="43.78314" lon="5.22297">
        <ele>356</ele>
        <time>2024-02-11T19:22:17Z</time>
      </trkpt>
      <trkpt lat="43.78311" lon="5.22296">
        <ele>356</ele>
        <time>2024-02-11T19:22:18Z</time>
      </trkpt>
      <trkpt lat="43.78308" lon="5.22289">
        <ele>355</ele>
        <time>2024-02-11T19:22:19Z</time>
      </trkpt>
      <trkpt lat="43.7828" lon="5.22274">
        <ele>350</ele>
        <time>2024-02-11T19:22:26Z</time>
      </trkpt>
      <trkpt lat="43.78276" lon="5.22273">
        <ele>349</ele>
        <time>2024-02-11T19:22:27Z</time>
      </trkpt>
      <trkpt lat="43.78242" lon="5.22279">
        <ele>346</ele>
        <time>2024-02-11T19:22:35Z</time>
      </trkpt>
      <trkpt lat="43.78221" lon="5.22268">
        <ele>343</ele>
        <time>2024-02-11T19:22:41Z</time>
      </trkpt>
      <trkpt lat="43.78194" lon="5.22264">
        <ele>340</ele>
        <time>2024-02-11T19:22:47Z</time>
      </trkpt>
      <trkpt lat="43.7819" lon="5.22266">
        <ele>340</ele>
        <time>2024-02-11T19:22:48Z</time>
      </trkpt>
      <trkpt lat="43.78182" lon="5.2228">
        <ele>338</ele>
        <time>2024-02-11T19:22:51Z</time>
      </trkpt>
      <trkpt lat="43.78177" lon="5.223">
        <ele>335</ele>
        <time>2024-02-11T19:22:55Z</time>
      </trkpt>
      <trkpt lat="43.7817" lon="5.22305">
        <ele>334</ele>
        <time>2024-02-11T19:22:56Z</time>
      </trkpt>
      <trkpt lat="43.78162" lon="5.22318">
        <ele>331</ele>
        <time>2024-02-11T19:22:59Z</time>
      </trkpt>
      <trkpt lat="43.78143" lon="5.22335">
        <ele>328</ele>
        <time>2024-02-11T19:23:05Z</time>
      </trkpt>
      <trkpt lat="43.78107" lon="5.22375">
        <ele>324</ele>
        <time>2024-02-11T19:23:15Z</time>
      </trkpt>
      <trkpt lat="43.78097" lon="5.22383">
        <ele>323</ele>
        <time>2024-02-11T19:23:18Z</time>
      </trkpt>
      <trkpt lat="43.78087" lon="5.22387">
        <ele>321</ele>
        <time>2024-02-11T19:23:20Z</time>
      </trkpt>
      <trkpt lat="43.78059" lon="5.22385">
        <ele>319</ele>
        <time>2024-02-11T19:23:27Z</time>
      </trkpt>
      <trkpt lat="43.78044" lon="5.22381">
        <ele>317</ele>
        <time>2024-02-11T19:23:31Z</time>
      </trkpt>
      <trkpt lat="43.78017" lon="5.22365">
        <ele>314</ele>
        <time>2024-02-11T19:23:37Z</time>
      </trkpt>
      <trkpt lat="43.77998" lon="5.22361">
        <ele>312</ele>
        <time>2024-02-11T19:23:42Z</time>
      </trkpt>
      <trkpt lat="43.77952" lon="5.2232">
        <ele>310</ele>
        <time>2024-02-11T19:23:55Z</time>
      </trkpt>
      <trkpt lat="43.77946" lon="5.22316">
        <ele>311</ele>
        <time>2024-02-11T19:23:56Z</time>
      </trkpt>
      <trkpt lat="43.77936" lon="5.22314">
        <ele>311</ele>
        <time>2024-02-11T19:23:59Z</time>
      </trkpt>
      <trkpt lat="43.77905" lon="5.22313">
        <ele>309</ele>
        <time>2024-02-11T19:24:06Z</time>
      </trkpt>
      <trkpt lat="43.7789" lon="5.22315">
        <ele>307</ele>
        <time>2024-02-11T19:24:09Z</time>
      </trkpt>
      <trkpt lat="43.77876" lon="5.22323">
        <ele>304</ele>
        <time>2024-02-11T19:24:13Z</time>
      </trkpt>
      <trkpt lat="43.77865" lon="5.22326">
        <ele>302</ele>
        <time>2024-02-11T19:24:16Z</time>
      </trkpt>
      <trkpt lat="43.7785" lon="5.22324">
        <ele>300</ele>
        <time>2024-02-11T19:24:19Z</time>
      </trkpt>
      <trkpt lat="43.77824" lon="5.22313">
        <ele>298</ele>
        <time>2024-02-11T19:24:25Z</time>
      </trkpt>
      <trkpt lat="43.77806" lon="5.22314">
        <ele>296</ele>
        <time>2024-02-11T19:24:30Z</time>
      </trkpt>
      <trkpt lat="43.77767" lon="5.22332">
        <ele>287</ele>
        <time>2024-02-11T19:24:39Z</time>
      </trkpt>
      <trkpt lat="43.77751" lon="5.22344">
        <ele>284</ele>
        <time>2024-02-11T19:24:43Z</time>
      </trkpt>
      <trkpt lat="43.77744" lon="5.22356">
        <ele>284</ele>
        <time>2024-02-11T19:24:46Z</time>
      </trkpt>
      <trkpt lat="43.77743" lon="5.22364">
        <ele>284</ele>
        <time>2024-02-11T19:24:47Z</time>
      </trkpt>
      <trkpt lat="43.77729" lon="5.22378">
        <ele>283</ele>
        <time>2024-02-11T19:24:51Z</time>
      </trkpt>
      <trkpt lat="43.77722" lon="5.22391">
        <ele>282</ele>
        <time>2024-02-11T19:24:54Z</time>
      </trkpt>
      <trkpt lat="43.77717" lon="5.22392">
        <ele>281</ele>
        <time>2024-02-11T19:24:55Z</time>
      </trkpt>
      <trkpt lat="43.77707" lon="5.22389">
        <ele>280</ele>
        <time>2024-02-11T19:24:58Z</time>
      </trkpt>
      <trkpt lat="43.77691" lon="5.22398">
        <ele>278</ele>
        <time>2024-02-11T19:25:02Z</time>
      </trkpt>
      <trkpt lat="43.77677" lon="5.22402">
        <ele>276</ele>
        <time>2024-02-11T19:25:05Z</time>
      </trkpt>
      <trkpt lat="43.7765" lon="5.22422">
        <ele>274</ele>
        <time>2024-02-11T19:25:12Z</time>
      </trkpt>
      <trkpt lat="43.77639" lon="5.22434">
        <ele>274</ele>
        <time>2024-02-11T19:25:16Z</time>
      </trkpt>
      <trkpt lat="43.77599" lon="5.22454">
        <ele>271</ele>
        <time>2024-02-11T19:25:25Z</time>
      </trkpt>
      <trkpt lat="43.7759" lon="5.22463">
        <ele>270</ele>
        <time>2024-02-11T19:25:28Z</time>
      </trkpt>
      <trkpt lat="43.77577" lon="5.22484">
        <ele>270</ele>
        <time>2024-02-11T19:25:33Z</time>
      </trkpt>
      <trkpt lat="43.77546" lon="5.22524">
        <ele>270</ele>
        <time>2024-02-11T19:25:43Z</time>
      </trkpt>
      <trkpt lat="43.77508" lon="5.22588">
        <ele>263</ele>
        <time>2024-02-11T19:25:57Z</time>
      </trkpt>
      <trkpt lat="43.77497" lon="5.22599">
        <ele>261</ele>
        <time>2024-02-11T19:26:00Z</time>
      </trkpt>
      <trkpt lat="43.7749" lon="5.22612">
        <ele>260</ele>
        <time>2024-02-11T19:26:02Z</time>
      </trkpt>
      <trkpt lat="43.77483" lon="5.22618">
        <ele>260</ele>
        <time>2024-02-11T19:26:04Z</time>
      </trkpt>
      <trkpt lat="43.77481" lon="5.22628">
        <ele>259</ele>
        <time>2024-02-11T19:26:06Z</time>
      </trkpt>
      <trkpt lat="43.77465" lon="5.22657">
        <ele>257</ele>
        <time>2024-02-11T19:26:12Z</time>
      </trkpt>
      <trkpt lat="43.77463" lon="5.22672">
        <ele>256</ele>
        <time>2024-02-11T19:26:15Z</time>
      </trkpt>
      <trkpt lat="43.77451" lon="5.22684">
        <ele>254</ele>
        <time>2024-02-11T19:26:18Z</time>
      </trkpt>
      <trkpt lat="43.77444" lon="5.22709">
        <ele>252</ele>
        <time>2024-02-11T19:26:23Z</time>
      </trkpt>
      <trkpt lat="43.77443" lon="5.22747">
        <ele>249</ele>
        <time>2024-02-11T19:26:29Z</time>
      </trkpt>
      <trkpt lat="43.77428" lon="5.22767">
        <ele>250</ele>
        <time>2024-02-11T19:26:34Z</time>
      </trkpt>
      <trkpt lat="43.77422" lon="5.22793">
        <ele>253</ele>
        <time>2024-02-11T19:26:39Z</time>
      </trkpt>
      <trkpt lat="43.774" lon="5.22804">
        <ele>252</ele>
        <time>2024-02-11T19:26:44Z</time>
      </trkpt>
      <trkpt lat="43.7737" lon="5.22799">
        <ele>248</ele>
        <time>2024-02-11T19:26:51Z</time>
      </trkpt>
      <trkpt lat="43.77341" lon="5.22805">
        <ele>245</ele>
        <time>2024-02-11T19:26:58Z</time>
      </trkpt>
      <trkpt lat="43.77316" lon="5.22827">
        <ele>242</ele>
        <time>2024-02-11T19:27:05Z</time>
      </trkpt>
      <trkpt lat="43.77282" lon="5.22847">
        <ele>240</ele>
        <time>2024-02-11T19:27:14Z</time>
      </trkpt>
      <trkpt lat="43.77264" lon="5.22851">
        <ele>239</ele>
        <time>2024-02-11T19:27:18Z</time>
      </trkpt>
      <trkpt lat="43.77234" lon="5.22846">
        <ele>236</ele>
        <time>2024-02-11T19:27:25Z</time>
      </trkpt>
      <trkpt lat="43.77177" lon="5.22875">
        <ele>235</ele>
        <time>2024-02-11T19:27:39Z</time>
      </trkpt>
      <trkpt lat="43.77159" lon="5.22878">
        <ele>234</ele>
        <time>2024-02-11T19:27:43Z</time>
      </trkpt>
      <trkpt lat="43.77109" lon="5.22917">
        <ele>231</ele>
        <time>2024-02-11T19:27:57Z</time>
      </trkpt>
      <trkpt lat="43.77098" lon="5.22932">
        <ele>231</ele>
        <time>2024-02-11T19:28:00Z</time>
      </trkpt>
      <trkpt lat="43.77082" lon="5.22986">
        <ele>231</ele>
        <time>2024-02-11T19:28:10Z</time>
      </trkpt>
      <trkpt lat="43.77087" lon="5.23008">
        <ele>233</ele>
        <time>2024-02-11T19:28:14Z</time>
      </trkpt>
      <trkpt lat="43.77084" lon="5.23018">
        <ele>235</ele>
        <time>2024-02-11T19:28:16Z</time>
      </trkpt>
      <trkpt lat="43.77075" lon="5.23024">
        <ele>235</ele>
        <time>2024-02-11T19:28:18Z</time>
      </trkpt>
      <trkpt lat="43.77086" lon="5.23011">
        <ele>233</ele>
        <time>2024-02-11T19:28:22Z</time>
      </trkpt>
      <trkpt lat="43.77086" lon="5.23001">
        <ele>232</ele>
        <time>2024-02-11T19:28:23Z</time>
      </trkpt>
      <trkpt lat="43.77081" lon="5.22983">
        <ele>230</ele>
        <time>2024-02-11T19:28:27Z</time>
      </trkpt>
      <trkpt lat="43.77086" lon="5.23004">
        <ele>232</ele>
        <time>2024-02-11T19:28:30Z</time>
      </trkpt>
      <trkpt lat="43.77084" lon="5.23016">
        <ele>234</ele>
        <time>2024-02-11T19:28:32Z</time>
      </trkpt>
      <trkpt lat="43.77069" lon="5.23026">
        <ele>235</ele>
        <time>2024-02-11T19:28:36Z</time>
      </trkpt>
      <trkpt lat="43.77049" lon="5.23032">
        <ele>234</ele>
        <time>2024-02-11T19:28:41Z</time>
      </trkpt>
      <trkpt lat="43.77032" lon="5.23052">
        <ele>236</ele>
        <time>2024-02-11T19:28:46Z</time>
      </trkpt>
      <trkpt lat="43.77016" lon="5.23051">
        <ele>234</ele>
        <time>2024-02-11T19:28:50Z</time>
      </trkpt>
      <trkpt lat="43.77006" lon="5.23053">
        <ele>233</ele>
        <time>2024-02-11T19:28:52Z</time>
      </trkpt>
      <trkpt lat="43.76946" lon="5.23088">
        <ele>233</ele>
        <time>2024-02-11T19:29:08Z</time>
      </trkpt>
      <trkpt lat="43.7692" lon="5.23091">
        <ele>231</ele>
        <time>2024-02-11T19:29:14Z</time>
      </trkpt>
      <trkpt lat="43.76909" lon="5.2311">
        <ele>234</ele>
        <time>2024-02-11T19:29:18Z</time>
      </trkpt>
      <trkpt lat="43.76908" lon="5.23119">
        <ele>236</ele>
        <time>2024-02-11T19:29:19Z</time>
      </trkpt>
      <trkpt lat="43.76901" lon="5.23125">
        <ele>236</ele>
        <time>2024-02-11T19:29:21Z</time>
      </trkpt>
      <trkpt lat="43.76891" lon="5.23171">
        <ele>244</ele>
        <time>2024-02-11T19:29:29Z</time>
      </trkpt>
      <trkpt lat="43.76898" lon="5.23174">
        <ele>245</ele>
        <time>2024-02-11T19:29:31Z</time>
      </trkpt>
      <trkpt lat="43.76905" lon="5.23184">
        <ele>246</ele>
        <time>2024-02-11T19:29:33Z</time>
      </trkpt>
      <trkpt lat="43.76925" lon="5.23229">
        <ele>250</ele>
        <time>2024-02-11T19:29:42Z</time>
      </trkpt>
      <trkpt lat="43.76947" lon="5.2327">
        <ele>255</ele>
        <time>2024-02-11T19:29:51Z</time>
      </trkpt>
      <trkpt lat="43.76957" lon="5.23304">
        <ele>256</ele>
        <time>2024-02-11T19:29:57Z</time>
      </trkpt>
      <trkpt lat="43.76954" lon="5.23334">
        <ele>256</ele>
        <time>2024-02-11T19:30:02Z</time>
      </trkpt>
      <trkpt lat="43.76957" lon="5.2335">
        <ele>255</ele>
        <time>2024-02-11T19:30:05Z</time>
      </trkpt>
      <trkpt lat="43.76975" lon="5.23359">
        <ele>257</ele>
        <time>2024-02-11T19:30:09Z</time>
      </trkpt>
      <trkpt lat="43.76977" lon="5.23399">
        <ele>254</ele>
        <time>2024-02-11T19:30:16Z</time>
      </trkpt>
      <trkpt lat="43.76997" lon="5.23451">
        <ele>251</ele>
        <time>2024-02-11T19:30:26Z</time>
      </trkpt>
      <trkpt lat="43.77004" lon="5.23491">
        <ele>246</ele>
        <time>2024-02-11T19:30:33Z</time>
      </trkpt>
      <trkpt lat="43.77011" lon="5.23558">
        <ele>248</ele>
        <time>2024-02-11T19:30:45Z</time>
      </trkpt>
      <trkpt lat="43.77018" lon="5.23585">
        <ele>249</ele>
        <time>2024-02-11T19:30:49Z</time>
      </trkpt>
      <trkpt lat="43.77011" lon="5.23616">
        <ele>248</ele>
        <time>2024-02-11T19:30:55Z</time>
      </trkpt>
      <trkpt lat="43.77018" lon="5.23661">
        <ele>249</ele>
        <time>2024-02-11T19:31:03Z</time>
      </trkpt>
      <trkpt lat="43.77016" lon="5.23697">
        <ele>249</ele>
        <time>2024-02-11T19:31:09Z</time>
      </trkpt>
      <trkpt lat="43.7701" lon="5.23722">
        <ele>248</ele>
        <time>2024-02-11T19:31:13Z</time>
      </trkpt>
      <trkpt lat="43.76994" lon="5.23757">
        <ele>247</ele>
        <time>2024-02-11T19:31:20Z</time>
      </trkpt>
      <trkpt lat="43.76988" lon="5.23805">
        <ele>246</ele>
        <time>2024-02-11T19:31:28Z</time>
      </trkpt>
      <trkpt lat="43.76983" lon="5.23888">
        <ele>243</ele>
        <time>2024-02-11T19:31:42Z</time>
      </trkpt>
      <trkpt lat="43.77012" lon="5.23949">
        <ele>244</ele>
        <time>2024-02-11T19:31:55Z</time>
      </trkpt>
      <trkpt lat="43.77021" lon="5.23985">
        <ele>243</ele>
        <time>2024-02-11T19:32:01Z</time>
      </trkpt>
      <trkpt lat="43.77014" lon="5.24017">
        <ele>240</ele>
        <time>2024-02-11T19:32:07Z</time>
      </trkpt>
      <trkpt lat="43.77027" lon="5.24074">
        <ele>237</ele>
        <time>2024-02-11T19:32:17Z</time>
      </trkpt>
      <trkpt lat="43.77027" lon="5.24122">
        <ele>233</ele>
        <time>2024-02-11T19:32:25Z</time>
      </trkpt>
      <trkpt lat="43.77036" lon="5.2413">
        <ele>232</ele>
        <time>2024-02-11T19:32:27Z</time>
      </trkpt>
      <trkpt lat="43.77043" lon="5.24146">
        <ele>231</ele>
        <time>2024-02-11T19:32:31Z</time>
      </trkpt>
      <trkpt lat="43.77033" lon="5.24169">
        <ele>229</ele>
        <time>2024-02-11T19:32:35Z</time>
      </trkpt>
      <trkpt lat="43.77032" lon="5.24185">
        <ele>231</ele>
        <time>2024-02-11T19:32:38Z</time>
      </trkpt>
      <trkpt lat="43.77026" lon="5.24191">
        <ele>231</ele>
        <time>2024-02-11T19:32:40Z</time>
      </trkpt>
      <trkpt lat="43.77023" lon="5.24202">
        <ele>233</ele>
        <time>2024-02-11T19:32:42Z</time>
      </trkpt>
      <trkpt lat="43.77043" lon="5.24215">
        <ele>235</ele>
        <time>2024-02-11T19:32:47Z</time>
      </trkpt>
      <trkpt lat="43.77062" lon="5.24201">
        <ele>235</ele>
        <time>2024-02-11T19:32:52Z</time>
      </trkpt>
      <trkpt lat="43.77078" lon="5.24202">
        <ele>236</ele>
        <time>2024-02-11T19:32:55Z</time>
      </trkpt>
      <trkpt lat="43.77094" lon="5.24214">
        <ele>239</ele>
        <time>2024-02-11T19:33:00Z</time>
      </trkpt>
      <trkpt lat="43.77098" lon="5.24224">
        <ele>240</ele>
        <time>2024-02-11T19:33:02Z</time>
      </trkpt>
      <trkpt lat="43.77134" lon="5.24263">
        <ele>247</ele>
        <time>2024-02-11T19:33:12Z</time>
      </trkpt>
      <trkpt lat="43.77141" lon="5.24266">
        <ele>248</ele>
        <time>2024-02-11T19:33:14Z</time>
      </trkpt>
      <trkpt lat="43.77167" lon="5.2427">
        <ele>250</ele>
        <time>2024-02-11T19:33:20Z</time>
      </trkpt>
      <trkpt lat="43.77178" lon="5.24255">
        <ele>249</ele>
        <time>2024-02-11T19:33:24Z</time>
      </trkpt>
      <trkpt lat="43.77236" lon="5.24247">
        <ele>249</ele>
        <time>2024-02-11T19:33:37Z</time>
      </trkpt>
      <trkpt lat="43.77253" lon="5.24253">
        <ele>250</ele>
        <time>2024-02-11T19:33:41Z</time>
      </trkpt>
      <trkpt lat="43.77264" lon="5.24261">
        <ele>251</ele>
        <time>2024-02-11T19:33:44Z</time>
      </trkpt>
      <trkpt lat="43.7727" lon="5.24289">
        <ele>255</ele>
        <time>2024-02-11T19:33:49Z</time>
      </trkpt>
      <trkpt lat="43.77266" lon="5.24298">
        <ele>256</ele>
        <time>2024-02-11T19:33:51Z</time>
      </trkpt>
      <trkpt lat="43.77267" lon="5.2431">
        <ele>258</ele>
        <time>2024-02-11T19:33:53Z</time>
      </trkpt>
      <trkpt lat="43.77265" lon="5.24314">
        <ele>258</ele>
        <time>2024-02-11T19:33:54Z</time>
      </trkpt>
      <trkpt lat="43.77245" lon="5.24329">
        <ele>259</ele>
        <time>2024-02-11T19:33:59Z</time>
      </trkpt>
      <trkpt lat="43.77225" lon="5.24334">
        <ele>259</ele>
        <time>2024-02-11T19:34:04Z</time>
      </trkpt>
      <trkpt lat="43.77216" lon="5.24344">
        <ele>260</ele>
        <time>2024-02-11T19:34:07Z</time>
      </trkpt>
      <trkpt lat="43.77201" lon="5.24347">
        <ele>260</ele>
        <time>2024-02-11T19:34:10Z</time>
      </trkpt>
      <trkpt lat="43.77188" lon="5.24343">
        <ele>258</ele>
        <time>2024-02-11T19:34:13Z</time>
      </trkpt>
      <trkpt lat="43.77182" lon="5.24345">
        <ele>258</ele>
        <time>2024-02-11T19:34:15Z</time>
      </trkpt>
      <trkpt lat="43.77177" lon="5.2435">
        <ele>259</ele>
        <time>2024-02-11T19:34:16Z</time>
      </trkpt>
      <trkpt lat="43.77162" lon="5.24351">
        <ele>258</ele>
        <time>2024-02-11T19:34:20Z</time>
      </trkpt>
      <trkpt lat="43.77142" lon="5.24345">
        <ele>257</ele>
        <time>2024-02-11T19:34:24Z</time>
      </trkpt>
      <trkpt lat="43.77106" lon="5.24349">
        <ele>256</ele>
        <time>2024-02-11T19:34:33Z</time>
      </trkpt>
      <trkpt lat="43.77086" lon="5.2436">
        <ele>258</ele>
        <time>2024-02-11T19:34:38Z</time>
      </trkpt>
      <trkpt lat="43.77063" lon="5.24368">
        <ele>258</ele>
        <time>2024-02-11T19:34:43Z</time>
      </trkpt>
      <trkpt lat="43.7703" lon="5.24389">
        <ele>258</ele>
        <time>2024-02-11T19:34:52Z</time>
      </trkpt>
      <trkpt lat="43.77027" lon="5.24392">
        <ele>258</ele>
        <time>2024-02-11T19:34:53Z</time>
      </trkpt>
      <trkpt lat="43.77024" lon="5.24404">
        <ele>259</ele>
        <time>2024-02-11T19:34:55Z</time>
      </trkpt>
      <trkpt lat="43.77011" lon="5.24417">
        <ele>258</ele>
        <time>2024-02-11T19:34:59Z</time>
      </trkpt>
      <trkpt lat="43.77008" lon="5.24459">
        <ele>260</ele>
        <time>2024-02-11T19:35:06Z</time>
      </trkpt>
      <trkpt lat="43.76998" lon="5.24538">
        <ele>258</ele>
        <time>2024-02-11T19:35:19Z</time>
      </trkpt>
      <trkpt lat="43.76974" lon="5.24566">
        <ele>254</ele>
        <time>2024-02-11T19:35:27Z</time>
      </trkpt>
      <trkpt lat="43.7697" lon="5.24586">
        <ele>252</ele>
        <time>2024-02-11T19:35:30Z</time>
      </trkpt>
      <trkpt lat="43.7697" lon="5.24613">
        <ele>253</ele>
        <time>2024-02-11T19:35:35Z</time>
      </trkpt>
      <trkpt lat="43.76964" lon="5.24629">
        <ele>252</ele>
        <time>2024-02-11T19:35:38Z</time>
      </trkpt>
      <trkpt lat="43.76956" lon="5.24635">
        <ele>251</ele>
        <time>2024-02-11T19:35:40Z</time>
      </trkpt>
      <trkpt lat="43.76933" lon="5.24637">
        <ele>249</ele>
        <time>2024-02-11T19:35:45Z</time>
      </trkpt>
      <trkpt lat="43.76922" lon="5.24646">
        <ele>247</ele>
        <time>2024-02-11T19:35:48Z</time>
      </trkpt>
      <trkpt lat="43.76915" lon="5.24666">
        <ele>247</ele>
        <time>2024-02-11T19:35:52Z</time>
      </trkpt>
      <trkpt lat="43.76911" lon="5.2467">
        <ele>247</ele>
        <time>2024-02-11T19:35:53Z</time>
      </trkpt>
      <trkpt lat="43.76904" lon="5.24668">
        <ele>247</ele>
        <time>2024-02-11T19:35:55Z</time>
      </trkpt>
      <trkpt lat="43.769" lon="5.24662">
        <ele>246</ele>
        <time>2024-02-11T19:35:56Z</time>
      </trkpt>
      <trkpt lat="43.76893" lon="5.2466">
        <ele>246</ele>
        <time>2024-02-11T19:35:58Z</time>
      </trkpt>
      <trkpt lat="43.76883" lon="5.2467">
        <ele>246</ele>
        <time>2024-02-11T19:36:01Z</time>
      </trkpt>
      <trkpt lat="43.76879" lon="5.24686">
        <ele>247</ele>
        <time>2024-02-11T19:36:04Z</time>
      </trkpt>
      <trkpt lat="43.76861" lon="5.24711">
        <ele>248</ele>
        <time>2024-02-11T19:36:10Z</time>
      </trkpt>
      <trkpt lat="43.76861" lon="5.2473">
        <ele>250</ele>
        <time>2024-02-11T19:36:13Z</time>
      </trkpt>
      <trkpt lat="43.76851" lon="5.24742">
        <ele>250</ele>
        <time>2024-02-11T19:36:16Z</time>
      </trkpt>
      <trkpt lat="43.76818" lon="5.24823">
        <ele>255</ele>
        <time>2024-02-11T19:36:32Z</time>
      </trkpt>
      <trkpt lat="43.76808" lon="5.24843">
        <ele>257</ele>
        <time>2024-02-11T19:36:36Z</time>
      </trkpt>
      <trkpt lat="43.76792" lon="5.24859">
        <ele>258</ele>
        <time>2024-02-11T19:36:40Z</time>
      </trkpt>
      <trkpt lat="43.768" lon="5.24878">
        <ele>259</ele>
        <time>2024-02-11T19:36:44Z</time>
      </trkpt>
      <trkpt lat="43.768" lon="5.24891">
        <ele>259</ele>
        <time>2024-02-11T19:36:46Z</time>
      </trkpt>
      <trkpt lat="43.76802" lon="5.24893">
        <ele>259</ele>
        <time>2024-02-11T19:36:47Z</time>
      </trkpt>
      <trkpt lat="43.7681" lon="5.24891">
        <ele>258</ele>
        <time>2024-02-11T19:36:49Z</time>
      </trkpt>
      <trkpt lat="43.76811" lon="5.24893">
        <ele>258</ele>
        <time>2024-02-11T19:36:49Z</time>
      </trkpt>
      <trkpt lat="43.76814" lon="5.24905">
        <ele>258</ele>
        <time>2024-02-11T19:36:51Z</time>
      </trkpt>
      <trkpt lat="43.76808" lon="5.24929">
        <ele>259</ele>
        <time>2024-02-11T19:36:55Z</time>
      </trkpt>
      <trkpt lat="43.7681" lon="5.24935">
        <ele>259</ele>
        <time>2024-02-11T19:36:57Z</time>
      </trkpt>
      <trkpt lat="43.76816" lon="5.24938">
        <ele>258</ele>
        <time>2024-02-11T19:36:58Z</time>
      </trkpt>
      <trkpt lat="43.76824" lon="5.24948">
        <ele>257</ele>
        <time>2024-02-11T19:37:01Z</time>
      </trkpt>
      <trkpt lat="43.76824" lon="5.24961">
        <ele>257</ele>
        <time>2024-02-11T19:37:03Z</time>
      </trkpt>
      <trkpt lat="43.76828" lon="5.24982">
        <ele>257</ele>
        <time>2024-02-11T19:37:06Z</time>
      </trkpt>
      <trkpt lat="43.76818" lon="5.24996">
        <ele>257</ele>
        <time>2024-02-11T19:37:10Z</time>
      </trkpt>
      <trkpt lat="43.7681" lon="5.24999">
        <ele>258</ele>
        <time>2024-02-11T19:37:12Z</time>
      </trkpt>
      <trkpt lat="43.76803" lon="5.25009">
        <ele>258</ele>
        <time>2024-02-11T19:37:14Z</time>
      </trkpt>
      <trkpt lat="43.768" lon="5.25017">
        <ele>258</ele>
        <time>2024-02-11T19:37:16Z</time>
      </trkpt>
      <trkpt lat="43.76801" lon="5.25028">
        <ele>257</ele>
        <time>2024-02-11T19:37:17Z</time>
      </trkpt>
      <trkpt lat="43.76796" lon="5.2504">
        <ele>257</ele>
        <time>2024-02-11T19:37:20Z</time>
      </trkpt>
      <trkpt lat="43.76778" lon="5.25052">
        <ele>257</ele>
        <time>2024-02-11T19:37:24Z</time>
      </trkpt>
      <trkpt lat="43.76769" lon="5.25067">
        <ele>257</ele>
        <time>2024-02-11T19:37:28Z</time>
      </trkpt>
      <trkpt lat="43.76759" lon="5.25068">
        <ele>258</ele>
        <time>2024-02-11T19:37:30Z</time>
      </trkpt>
      <trkpt lat="43.76754" lon="5.25071">
        <ele>258</ele>
        <time>2024-02-11T19:37:31Z</time>
      </trkpt>
      <trkpt lat="43.76741" lon="5.25092">
        <ele>256</ele>
        <time>2024-02-11T19:37:36Z</time>
      </trkpt>
      <trkpt lat="43.7673" lon="5.25096">
        <ele>257</ele>
        <time>2024-02-11T19:37:39Z</time>
      </trkpt>
      <trkpt lat="43.76715" lon="5.25117">
        <ele>255</ele>
        <time>2024-02-11T19:37:44Z</time>
      </trkpt>
      <trkpt lat="43.76714" lon="5.2514">
        <ele>252</ele>
        <time>2024-02-11T19:37:48Z</time>
      </trkpt>
      <trkpt lat="43.76721" lon="5.2515">
        <ele>250</ele>
        <time>2024-02-11T19:37:50Z</time>
      </trkpt>
      <trkpt lat="43.76719" lon="5.25172">
        <ele>247</ele>
        <time>2024-02-11T19:37:54Z</time>
      </trkpt>
      <trkpt lat="43.76722" lon="5.25186">
        <ele>244</ele>
        <time>2024-02-11T19:37:56Z</time>
      </trkpt>
      <trkpt lat="43.76718" lon="5.252">
        <ele>241</ele>
        <time>2024-02-11T19:37:59Z</time>
      </trkpt>
      <trkpt lat="43.76703" lon="5.25221">
        <ele>239</ele>
        <time>2024-02-11T19:38:04Z</time>
      </trkpt>
      <trkpt lat="43.76705" lon="5.25238">
        <ele>236</ele>
        <time>2024-02-11T19:38:07Z</time>
      </trkpt>
      <trkpt lat="43.76709" lon="5.25249">
        <ele>233</ele>
        <time>2024-02-11T19:38:09Z</time>
      </trkpt>
      <trkpt lat="43.76709" lon="5.25261">
        <ele>231</ele>
        <time>2024-02-11T19:38:11Z</time>
      </trkpt>
      <trkpt lat="43.76705" lon="5.25273">
        <ele>230</ele>
        <time>2024-02-11T19:38:13Z</time>
      </trkpt>
      <trkpt lat="43.767" lon="5.25321">
        <ele>223</ele>
        <time>2024-02-11T19:38:21Z</time>
      </trkpt>
      <trkpt lat="43.76678" lon="5.25353">
        <ele>221</ele>
        <time>2024-02-11T19:38:28Z</time>
      </trkpt>
      <trkpt lat="43.76682" lon="5.25358">
        <ele>220</ele>
        <time>2024-02-11T19:38:30Z</time>
      </trkpt>
      <trkpt lat="43.76696" lon="5.25358">
        <ele>220</ele>
        <time>2024-02-11T19:38:33Z</time>
      </trkpt>
      <trkpt lat="43.76702" lon="5.25369">
        <ele>220</ele>
        <time>2024-02-11T19:38:35Z</time>
      </trkpt>
      <trkpt lat="43.76706" lon="5.25369">
        <ele>220</ele>
        <time>2024-02-11T19:38:36Z</time>
      </trkpt>
      <trkpt lat="43.76735" lon="5.2531">
        <ele>222</ele>
        <time>2024-02-11T19:38:48Z</time>
      </trkpt>
      <trkpt lat="43.76787" lon="5.25267">
        <ele>226</ele>
        <time>2024-02-11T19:39:02Z</time>
      </trkpt>
      <trkpt lat="43.76804" lon="5.25259">
        <ele>226</ele>
        <time>2024-02-11T19:39:07Z</time>
      </trkpt>
      <trkpt lat="43.7682" lon="5.25262">
        <ele>226</ele>
        <time>2024-02-11T19:39:10Z</time>
      </trkpt>
      <trkpt lat="43.76848" lon="5.25256">
        <ele>226</ele>
        <time>2024-02-11T19:39:17Z</time>
      </trkpt>
      <trkpt lat="43.76872" lon="5.25259">
        <ele>227</ele>
        <time>2024-02-11T19:39:23Z</time>
      </trkpt>
      <trkpt lat="43.76917" lon="5.25249">
        <ele>226</ele>
        <time>2024-02-11T19:39:33Z</time>
      </trkpt>
      <trkpt lat="43.76948" lon="5.25231">
        <ele>231</ele>
        <time>2024-02-11T19:39:41Z</time>
      </trkpt>
      <trkpt lat="43.76965" lon="5.25215">
        <ele>233</ele>
        <time>2024-02-11T19:39:46Z</time>
      </trkpt>
      <trkpt lat="43.76973" lon="5.25198">
        <ele>233</ele>
        <time>2024-02-11T19:39:49Z</time>
      </trkpt>
      <trkpt lat="43.76986" lon="5.25179">
        <ele>233</ele>
        <time>2024-02-11T19:39:54Z</time>
      </trkpt>
      <trkpt lat="43.76994" lon="5.25175">
        <ele>233</ele>
        <time>2024-02-11T19:39:56Z</time>
      </trkpt>
      <trkpt lat="43.77017" lon="5.2517">
        <ele>233</ele>
        <time>2024-02-11T19:40:01Z</time>
      </trkpt>
      <trkpt lat="43.77037" lon="5.25159">
        <ele>237</ele>
        <time>2024-02-11T19:40:06Z</time>
      </trkpt>
      <trkpt lat="43.77069" lon="5.25147">
        <ele>242</ele>
        <time>2024-02-11T19:40:14Z</time>
      </trkpt>
      <trkpt lat="43.77088" lon="5.25146">
        <ele>243</ele>
        <time>2024-02-11T19:40:18Z</time>
      </trkpt>
      <trkpt lat="43.77101" lon="5.25148">
        <ele>245</ele>
        <time>2024-02-11T19:40:21Z</time>
      </trkpt>
      <trkpt lat="43.77136" lon="5.2516">
        <ele>247</ele>
        <time>2024-02-11T19:40:30Z</time>
      </trkpt>
      <trkpt lat="43.77145" lon="5.25156">
        <ele>249</ele>
        <time>2024-02-11T19:40:32Z</time>
      </trkpt>
      <trkpt lat="43.77164" lon="5.25155">
        <ele>252</ele>
        <time>2024-02-11T19:40:37Z</time>
      </trkpt>
      <trkpt lat="43.77171" lon="5.25157">
        <ele>253</ele>
        <time>2024-02-11T19:40:38Z</time>
      </trkpt>
      <trkpt lat="43.77185" lon="5.25164">
        <ele>254</ele>
        <time>2024-02-11T19:40:42Z</time>
      </trkpt>
      <trkpt lat="43.77227" lon="5.25196">
        <ele>261</ele>
        <time>2024-02-11T19:40:53Z</time>
      </trkpt>
      <trkpt lat="43.77284" lon="5.2522">
        <ele>265</ele>
        <time>2024-02-11T19:41:07Z</time>
      </trkpt>
      <trkpt lat="43.77299" lon="5.25224">
        <ele>265</ele>
        <time>2024-02-11T19:41:10Z</time>
      </trkpt>
      <trkpt lat="43.77319" lon="5.25221">
        <ele>268</ele>
        <time>2024-02-11T19:41:15Z</time>
      </trkpt>
      <trkpt lat="43.77341" lon="5.25205">
        <ele>273</ele>
        <time>2024-02-11T19:41:21Z</time>
      </trkpt>
      <trkpt lat="43.7735" lon="5.25201">
        <ele>274</ele>
        <time>2024-02-11T19:41:23Z</time>
      </trkpt>
      <trkpt lat="43.77355" lon="5.25201">
        <ele>274</ele>
        <time>2024-02-11T19:41:24Z</time>
      </trkpt>
      <trkpt lat="43.77376" lon="5.2521">
        <ele>272</ele>
        <time>2024-02-11T19:41:29Z</time>
      </trkpt>
      <trkpt lat="43.77384" lon="5.25209">
        <ele>272</ele>
        <time>2024-02-11T19:41:31Z</time>
      </trkpt>
      <trkpt lat="43.77395" lon="5.25201">
        <ele>274</ele>
        <time>2024-02-11T19:41:34Z</time>
      </trkpt>
      <trkpt lat="43.77406" lon="5.25197">
        <ele>275</ele>
        <time>2024-02-11T19:41:37Z</time>
      </trkpt>
      <trkpt lat="43.77418" lon="5.25196">
        <ele>275</ele>
        <time>2024-02-11T19:41:40Z</time>
      </trkpt>
      <trkpt lat="43.7744" lon="5.252">
        <ele>276</ele>
        <time>2024-02-11T19:41:45Z</time>
      </trkpt>
      <trkpt lat="43.77454" lon="5.25209">
        <ele>275</ele>
        <time>2024-02-11T19:41:48Z</time>
      </trkpt>
      <trkpt lat="43.77469" lon="5.25234">
        <ele>269</ele>
        <time>2024-02-11T19:41:54Z</time>
      </trkpt>
      <trkpt lat="43.77494" lon="5.25257">
        <ele>265</ele>
        <time>2024-02-11T19:42:01Z</time>
      </trkpt>
      <trkpt lat="43.77504" lon="5.25276">
        <ele>266</ele>
        <time>2024-02-11T19:42:05Z</time>
      </trkpt>
      <trkpt lat="43.77524" lon="5.25397">
        <ele>272</ele>
        <time>2024-02-11T19:42:26Z</time>
      </trkpt>
      <trkpt lat="43.77533" lon="5.25426">
        <ele>273</ele>
        <time>2024-02-11T19:42:31Z</time>
      </trkpt>
      <trkpt lat="43.77545" lon="5.25449">
        <ele>275</ele>
        <time>2024-02-11T19:42:36Z</time>
      </trkpt>
      <trkpt lat="43.77579" lon="5.25497">
        <ele>270</ele>
        <time>2024-02-11T19:42:47Z</time>
      </trkpt>
      <trkpt lat="43.77609" lon="5.25549">
        <ele>278</ele>
        <time>2024-02-11T19:42:58Z</time>
      </trkpt>
      <trkpt lat="43.7762" lon="5.2556">
        <ele>279</ele>
        <time>2024-02-11T19:43:02Z</time>
      </trkpt>
      <trkpt lat="43.77641" lon="5.25569">
        <ele>277</ele>
        <time>2024-02-11T19:43:07Z</time>
      </trkpt>
      <trkpt lat="43.7768" lon="5.25455">
        <ele>282</ele>
        <time>2024-02-11T19:43:28Z</time>
      </trkpt>
      <trkpt lat="43.77736" lon="5.25398">
        <ele>283</ele>
        <time>2024-02-11T19:43:44Z</time>
      </trkpt>
      <trkpt lat="43.77766" lon="5.25316">
        <ele>288</ele>
        <time>2024-02-11T19:44:00Z</time>
      </trkpt>
      <trkpt lat="43.77827" lon="5.2528">
        <ele>286</ele>
        <time>2024-02-11T19:44:15Z</time>
      </trkpt>
      <trkpt lat="43.77903" lon="5.25211">
        <ele>297</ele>
        <time>2024-02-11T19:44:36Z</time>
      </trkpt>
      <trkpt lat="43.77979" lon="5.25228">
        <ele>302</ele>
        <time>2024-02-11T19:44:54Z</time>
      </trkpt>
      <trkpt lat="43.78021" lon="5.25261">
        <ele>303</ele>
        <time>2024-02-11T19:45:06Z</time>
      </trkpt>
      <trkpt lat="43.7808" lon="5.25297">
        <ele>307</ele>
        <time>2024-02-11T19:45:21Z</time>
      </trkpt>
      <trkpt lat="43.78168" lon="5.25309">
        <ele>310</ele>
        <time>2024-02-11T19:45:41Z</time>
      </trkpt>
      <trkpt lat="43.78222" lon="5.25336">
        <ele>304</ele>
        <time>2024-02-11T19:45:55Z</time>
      </trkpt>
      <trkpt lat="43.78259" lon="5.2538">
        <ele>309</ele>
        <time>2024-02-11T19:46:06Z</time>
      </trkpt>
      <trkpt lat="43.78339" lon="5.25492">
        <ele>320</ele>
        <time>2024-02-11T19:46:33Z</time>
      </trkpt>
      <trkpt lat="43.78483" lon="5.25571">
        <ele>341</ele>
        <time>2024-02-11T19:47:09Z</time>
      </trkpt>
      <trkpt lat="43.78518" lon="5.2558">
        <ele>343</ele>
        <time>2024-02-11T19:47:17Z</time>
      </trkpt>
      <trkpt lat="43.78539" lon="5.25596">
        <ele>349</ele>
        <time>2024-02-11T19:47:23Z</time>
      </trkpt>
      <trkpt lat="43.78555" lon="5.25594">
        <ele>351</ele>
        <time>2024-02-11T19:47:27Z</time>
      </trkpt>
      <trkpt lat="43.78571" lon="5.25579">
        <ele>352</ele>
        <time>2024-02-11T19:47:31Z</time>
      </trkpt>
      <trkpt lat="43.78599" lon="5.25591">
        <ele>358</ele>
        <time>2024-02-11T19:47:38Z</time>
      </trkpt>
      <trkpt lat="43.78659" lon="5.2565">
        <ele>363</ele>
        <time>2024-02-11T19:47:55Z</time>
      </trkpt>
      <trkpt lat="43.78789" lon="5.2573">
        <ele>377</ele>
        <time>2024-02-11T19:48:28Z</time>
      </trkpt>
      <trkpt lat="43.78818" lon="5.2574">
        <ele>380</ele>
        <time>2024-02-11T19:48:35Z</time>
      </trkpt>
      <trkpt lat="43.78842" lon="5.25722">
        <ele>388</ele>
        <time>2024-02-11T19:48:42Z</time>
      </trkpt>
      <trkpt lat="43.78877" lon="5.25765">
        <ele>393</ele>
        <time>2024-02-11T19:48:53Z</time>
      </trkpt>
      <trkpt lat="43.789" lon="5.25802">
        <ele>398</ele>
        <time>2024-02-11T19:49:01Z</time>
      </trkpt>
      <trkpt lat="43.78902" lon="5.25837">
        <ele>398</ele>
        <time>2024-02-11T19:49:07Z</time>
      </trkpt>
      <trkpt lat="43.78883" lon="5.25897">
        <ele>406</ele>
        <time>2024-02-11T19:49:18Z</time>
      </trkpt>
      <trkpt lat="43.78892" lon="5.26025">
        <ele>415</ele>
        <time>2024-02-11T19:49:40Z</time>
      </trkpt>
      <trkpt lat="43.78905" lon="5.26082">
        <ele>412</ele>
        <time>2024-02-11T19:49:50Z</time>
      </trkpt>
      <trkpt lat="43.78939" lon="5.26105">
        <ele>418</ele>
        <time>2024-02-11T19:49:58Z</time>
      </trkpt>
      <trkpt lat="43.78951" lon="5.2623">
        <ele>432</ele>
        <time>2024-02-11T19:50:20Z</time>
      </trkpt>
      <trkpt lat="43.78941" lon="5.26296">
        <ele>435</ele>
        <time>2024-02-11T19:50:31Z</time>
      </trkpt>
      <trkpt lat="43.78958" lon="5.26388">
        <ele>440</ele>
        <time>2024-02-11T19:50:47Z</time>
      </trkpt>
      <trkpt lat="43.78986" lon="5.26396">
        <ele>438</ele>
        <time>2024-02-11T19:50:54Z</time>
      </trkpt>
      <trkpt lat="43.79025" lon="5.26394">
        <ele>446</ele>
        <time>2024-02-11T19:51:03Z</time>
      </trkpt>
      <trkpt lat="43.79031" lon="5.26417">
        <ele>447</ele>
        <time>2024-02-11T19:51:07Z</time>
      </trkpt>
      <trkpt lat="43.79035" lon="5.26549">
        <ele>460</ele>
        <time>2024-02-11T19:51:29Z</time>
      </trkpt>
      <trkpt lat="43.79026" lon="5.2661">
        <ele>463</ele>
        <time>2024-02-11T19:51:40Z</time>
      </trkpt>
      <trkpt lat="43.79" lon="5.26651">
        <ele>459</ele>
        <time>2024-02-11T19:51:49Z</time>
      </trkpt>
      <trkpt lat="43.78994" lon="5.267">
        <ele>466</ele>
        <time>2024-02-11T19:51:57Z</time>
      </trkpt>
      <trkpt lat="43.78988" lon="5.26721">
        <ele>471</ele>
        <time>2024-02-11T19:52:01Z</time>
      </trkpt>
      <trkpt lat="43.78996" lon="5.26808">
        <ele>476</ele>
        <time>2024-02-11T19:52:16Z</time>
      </trkpt>
      <trkpt lat="43.78986" lon="5.26846">
        <ele>481</ele>
        <time>2024-02-11T19:52:23Z</time>
      </trkpt>
      <trkpt lat="43.78979" lon="5.26971">
        <ele>490</ele>
        <time>2024-02-11T19:52:44Z</time>
      </trkpt>
      <trkpt lat="43.79006" lon="5.27093">
        <ele>498</ele>
        <time>2024-02-11T19:53:05Z</time>
      </trkpt>
      <trkpt lat="43.78992" lon="5.27104">
        <ele>498</ele>
        <time>2024-02-11T19:53:09Z</time>
      </trkpt>
      <trkpt lat="43.78977" lon="5.27055">
        <ele>499</ele>
        <time>2024-02-11T19:53:18Z</time>
      </trkpt>
      <trkpt lat="43.78951" lon="5.27005">
        <ele>500</ele>
        <time>2024-02-11T19:53:29Z</time>
      </trkpt>
      <trkpt lat="43.78935" lon="5.26938">
        <ele>494</ele>
        <time>2024-02-11T19:53:40Z</time>
      </trkpt>
      <trkpt lat="43.78913" lon="5.26905">
        <ele>496</ele>
        <time>2024-02-11T19:53:48Z</time>
      </trkpt>
      <trkpt lat="43.78919" lon="5.26878">
        <ele>494</ele>
        <time>2024-02-11T19:53:53Z</time>
      </trkpt>
      <trkpt lat="43.78917" lon="5.26791">
        <ele>496</ele>
        <time>2024-02-11T19:54:07Z</time>
      </trkpt>
      <trkpt lat="43.78896" lon="5.26679">
        <ele>513</ele>
        <time>2024-02-11T19:54:27Z</time>
      </trkpt>
      <trkpt lat="43.78899" lon="5.26618">
        <ele>507</ele>
        <time>2024-02-11T19:54:37Z</time>
      </trkpt>
      <trkpt lat="43.78889" lon="5.26598">
        <ele>509</ele>
        <time>2024-02-11T19:54:41Z</time>
      </trkpt>
      <trkpt lat="43.78879" lon="5.26766">
        <ele>520</ele>
        <time>2024-02-11T19:55:10Z</time>
      </trkpt>
      <trkpt lat="43.78867" lon="5.26864">
        <ele>523</ele>
        <time>2024-02-11T19:55:27Z</time>
      </trkpt>
      <trkpt lat="43.7883" lon="5.26912">
        <ele>537</ele>
        <time>2024-02-11T19:55:38Z</time>
      </trkpt>
      <trkpt lat="43.7881" lon="5.26953">
        <ele>547</ele>
        <time>2024-02-11T19:55:47Z</time>
      </trkpt>
      <trkpt lat="43.78861" lon="5.26994">
        <ele>530</ele>
        <time>2024-02-11T19:56:00Z</time>
      </trkpt>
      <trkpt lat="43.78879" lon="5.27064">
        <ele>533</ele>
        <time>2024-02-11T19:56:13Z</time>
      </trkpt>
      <trkpt lat="43.78868" lon="5.27136">
        <ele>541</ele>
        <time>2024-02-11T19:56:25Z</time>
      </trkpt>
      <trkpt lat="43.78852" lon="5.27184">
        <ele>545</ele>
        <time>2024-02-11T19:56:34Z</time>
      </trkpt>
      <trkpt lat="43.78808" lon="5.27194">
        <ele>560</ele>
        <time>2024-02-11T19:56:45Z</time>
      </trkpt>
      <trkpt lat="43.78798" lon="5.27257">
        <ele>560</ele>
        <time>2024-02-11T19:56:56Z</time>
      </trkpt>
      <trkpt lat="43.78813" lon="5.27298">
        <ele>556</ele>
        <time>2024-02-11T19:57:03Z</time>
      </trkpt>
      <trkpt lat="43.78812" lon="5.27343">
        <ele>559</ele>
        <time>2024-02-11T19:57:11Z</time>
      </trkpt>
      <trkpt lat="43.78829" lon="5.27426">
        <ele>562</ele>
        <time>2024-02-11T19:57:25Z</time>
      </trkpt>
      <trkpt lat="43.78858" lon="5.27431">
        <ele>561</ele>
        <time>2024-02-11T19:57:32Z</time>
      </trkpt>
      <trkpt lat="43.78913" lon="5.27396">
        <ele>553</ele>
        <time>2024-02-11T19:57:46Z</time>
      </trkpt>
      <trkpt lat="43.78927" lon="5.27424">
        <ele>554</ele>
        <time>2024-02-11T19:57:52Z</time>
      </trkpt>
      <trkpt lat="43.78945" lon="5.27493">
        <ele>561</ele>
        <time>2024-02-11T19:58:05Z</time>
      </trkpt>
      <trkpt lat="43.79006" lon="5.27643">
        <ele>569</ele>
        <time>2024-02-11T19:58:34Z</time>
      </trkpt>
      <trkpt lat="43.79001" lon="5.2767">
        <ele>570</ele>
        <time>2024-02-11T19:58:38Z</time>
      </trkpt>
      <trkpt lat="43.79014" lon="5.27688">
        <ele>568</ele>
        <time>2024-02-11T19:58:43Z</time>
      </trkpt>
      <trkpt lat="43.79026" lon="5.27697">
        <ele>568</ele>
        <time>2024-02-11T19:58:46Z</time>
      </trkpt>
      <trkpt lat="43.79042" lon="5.27774">
        <ele>559</ele>
        <time>2024-02-11T19:58:59Z</time>
      </trkpt>
      <trkpt lat="43.79032" lon="5.27798">
        <ele>557</ele>
        <time>2024-02-11T19:59:04Z</time>
      </trkpt>
      <trkpt lat="43.79026" lon="5.27839">
        <ele>553</ele>
        <time>2024-02-11T19:59:11Z</time>
      </trkpt>
      <trkpt lat="43.79008" lon="5.27872">
        <ele>547</ele>
        <time>2024-02-11T19:59:18Z</time>
      </trkpt>
      <trkpt lat="43.78999" lon="5.27936">
        <ele>538</ele>
        <time>2024-02-11T19:59:29Z</time>
      </trkpt>
      <trkpt lat="43.79006" lon="5.27943">
        <ele>539</ele>
        <time>2024-02-11T19:59:31Z</time>
      </trkpt>
      <trkpt lat="43.79009" lon="5.27983">
        <ele>536</ele>
        <time>2024-02-11T19:59:38Z</time>
      </trkpt>
      <trkpt lat="43.79002" lon="5.2802">
        <ele>531</ele>
        <time>2024-02-11T19:59:44Z</time>
      </trkpt>
      <trkpt lat="43.78985" lon="5.28045">
        <ele>529</ele>
        <time>2024-02-11T19:59:50Z</time>
      </trkpt>
      <trkpt lat="43.78964" lon="5.28067">
        <ele>528</ele>
        <time>2024-02-11T19:59:56Z</time>
      </trkpt>
      <trkpt lat="43.78954" lon="5.28094">
        <ele>528</ele>
        <time>2024-02-11T20:00:01Z</time>
      </trkpt>
      <trkpt lat="43.78912" lon="5.28134">
        <ele>532</ele>
        <time>2024-02-11T20:00:13Z</time>
      </trkpt>
      <trkpt lat="43.78899" lon="5.28153">
        <ele>532</ele>
        <time>2024-02-11T20:00:18Z</time>
      </trkpt>
      <trkpt lat="43.78892" lon="5.28177">
        <ele>531</ele>
        <time>2024-02-11T20:00:22Z</time>
      </trkpt>
      <trkpt lat="43.78888" lon="5.28177">
        <ele>531</ele>
        <time>2024-02-11T20:00:23Z</time>
      </trkpt>
      <trkpt lat="43.78873" lon="5.28189">
        <ele>531</ele>
        <time>2024-02-11T20:00:27Z</time>
      </trkpt>
      <trkpt lat="43.78864" lon="5.28211">
        <ele>532</ele>
        <time>2024-02-11T20:00:31Z</time>
      </trkpt>
      <trkpt lat="43.78864" lon="5.2823">
        <ele>533</ele>
        <time>2024-02-11T20:00:34Z</time>
      </trkpt>
      <trkpt lat="43.7886" lon="5.28253">
        <ele>535</ele>
        <time>2024-02-11T20:00:38Z</time>
      </trkpt>
      <trkpt lat="43.78858" lon="5.28257">
        <ele>536</ele>
        <time>2024-02-11T20:00:39Z</time>
      </trkpt>
      <trkpt lat="43.78852" lon="5.28259">
        <ele>538</ele>
        <time>2024-02-11T20:00:41Z</time>
      </trkpt>
      <trkpt lat="43.78848" lon="5.28284">
        <ele>541</ele>
        <time>2024-02-11T20:00:45Z</time>
      </trkpt>
      <trkpt lat="43.78839" lon="5.28295">
        <ele>545</ele>
        <time>2024-02-11T20:00:48Z</time>
      </trkpt>
      <trkpt lat="43.78832" lon="5.28313">
        <ele>550</ele>
        <time>2024-02-11T20:00:51Z</time>
      </trkpt>
      <trkpt lat="43.78753" lon="5.28417">
        <ele>579</ele>
        <time>2024-02-11T20:01:17Z</time>
      </trkpt>
      <trkpt lat="43.7874" lon="5.2844">
        <ele>578</ele>
        <time>2024-02-11T20:01:22Z</time>
      </trkpt>
      <trkpt lat="43.78724" lon="5.28456">
        <ele>575</ele>
        <time>2024-02-11T20:01:26Z</time>
      </trkpt>
      <trkpt lat="43.78713" lon="5.28461">
        <ele>574</ele>
        <time>2024-02-11T20:01:29Z</time>
      </trkpt>
      <trkpt lat="43.78697" lon="5.28477">
        <ele>572</ele>
        <time>2024-02-11T20:01:33Z</time>
      </trkpt>
      <trkpt lat="43.78692" lon="5.28492">
        <ele>572</ele>
        <time>2024-02-11T20:01:36Z</time>
      </trkpt>
      <trkpt lat="43.78685" lon="5.28494">
        <ele>572</ele>
        <time>2024-02-11T20:01:38Z</time>
      </trkpt>
      <trkpt lat="43.78681" lon="5.28503">
        <ele>571</ele>
        <time>2024-02-11T20:01:40Z</time>
      </trkpt>
      <trkpt lat="43.78678" lon="5.28501">
        <ele>571</ele>
        <time>2024-02-11T20:01:41Z</time>
      </trkpt>
      <trkpt lat="43.78659" lon="5.2851">
        <ele>567</ele>
        <time>2024-02-11T20:01:45Z</time>
      </trkpt>
      <trkpt lat="43.78656" lon="5.28518">
        <ele>566</ele>
        <time>2024-02-11T20:01:47Z</time>
      </trkpt>
      <trkpt lat="43.78646" lon="5.28521">
        <ele>564</ele>
        <time>2024-02-11T20:01:49Z</time>
      </trkpt>
      <trkpt lat="43.78644" lon="5.28527">
        <ele>563</ele>
        <time>2024-02-11T20:01:50Z</time>
      </trkpt>
      <trkpt lat="43.78629" lon="5.28538">
        <ele>560</ele>
        <time>2024-02-11T20:01:54Z</time>
      </trkpt>
      <trkpt lat="43.7862" lon="5.2855">
        <ele>560</ele>
        <time>2024-02-11T20:01:57Z</time>
      </trkpt>
      <trkpt lat="43.78609" lon="5.28556">
        <ele>559</ele>
        <time>2024-02-11T20:02:00Z</time>
      </trkpt>
      <trkpt lat="43.78595" lon="5.28572">
        <ele>560</ele>
        <time>2024-02-11T20:02:04Z</time>
      </trkpt>
      <trkpt lat="43.78558" lon="5.28579">
        <ele>560</ele>
        <time>2024-02-11T20:02:13Z</time>
      </trkpt>
      <trkpt lat="43.7854" lon="5.28574">
        <ele>559</ele>
        <time>2024-02-11T20:02:17Z</time>
      </trkpt>
      <trkpt lat="43.78533" lon="5.28576">
        <ele>559</ele>
        <time>2024-02-11T20:02:19Z</time>
      </trkpt>
      <trkpt lat="43.78523" lon="5.28573">
        <ele>558</ele>
        <time>2024-02-11T20:02:21Z</time>
      </trkpt>
      <trkpt lat="43.78517" lon="5.28577">
        <ele>559</ele>
        <time>2024-02-11T20:02:23Z</time>
      </trkpt>
      <trkpt lat="43.78509" lon="5.28574">
        <ele>558</ele>
        <time>2024-02-11T20:02:25Z</time>
      </trkpt>
      <trkpt lat="43.78505" lon="5.28578">
        <ele>559</ele>
        <time>2024-02-11T20:02:26Z</time>
      </trkpt>
      <trkpt lat="43.785" lon="5.28575">
        <ele>558</ele>
        <time>2024-02-11T20:02:27Z</time>
      </trkpt>
      <trkpt lat="43.78491" lon="5.28578">
        <ele>558</ele>
        <time>2024-02-11T20:02:29Z</time>
      </trkpt>
      <trkpt lat="43.78487" lon="5.28584">
        <ele>558</ele>
        <time>2024-02-11T20:02:31Z</time>
      </trkpt>
      <trkpt lat="43.78471" lon="5.2859">
        <ele>555</ele>
        <time>2024-02-11T20:02:34Z</time>
      </trkpt>
      <trkpt lat="43.7847" lon="5.28596">
        <ele>554</ele>
        <time>2024-02-11T20:02:36Z</time>
      </trkpt>
      <trkpt lat="43.78463" lon="5.28603">
        <ele>553</ele>
        <time>2024-02-11T20:02:38Z</time>
      </trkpt>
      <trkpt lat="43.78462" lon="5.28607">
        <ele>553</ele>
        <time>2024-02-11T20:02:38Z</time>
      </trkpt>
      <trkpt lat="43.78448" lon="5.28618">
        <ele>551</ele>
        <time>2024-02-11T20:02:42Z</time>
      </trkpt>
      <trkpt lat="43.78447" lon="5.28624">
        <ele>551</ele>
        <time>2024-02-11T20:02:43Z</time>
      </trkpt>
      <trkpt lat="43.78438" lon="5.28636">
        <ele>551</ele>
        <time>2024-02-11T20:02:46Z</time>
      </trkpt>
      <trkpt lat="43.78436" lon="5.28649">
        <ele>551</ele>
        <time>2024-02-11T20:02:48Z</time>
      </trkpt>
      <trkpt lat="43.78415" lon="5.2867">
        <ele>552</ele>
        <time>2024-02-11T20:02:54Z</time>
      </trkpt>
      <trkpt lat="43.78406" lon="5.28669">
        <ele>551</ele>
        <time>2024-02-11T20:02:56Z</time>
      </trkpt>
      <trkpt lat="43.78394" lon="5.28673">
        <ele>549</ele>
        <time>2024-02-11T20:02:59Z</time>
      </trkpt>
      <trkpt lat="43.78389" lon="5.28672">
        <ele>548</ele>
        <time>2024-02-11T20:03:00Z</time>
      </trkpt>
      <trkpt lat="43.78385" lon="5.28675">
        <ele>547</ele>
        <time>2024-02-11T20:03:01Z</time>
      </trkpt>
      <trkpt lat="43.78365" lon="5.28671">
        <ele>544</ele>
        <time>2024-02-11T20:03:06Z</time>
      </trkpt>
      <trkpt lat="43.7835" lon="5.28676">
        <ele>542</ele>
        <time>2024-02-11T20:03:10Z</time>
      </trkpt>
      <trkpt lat="43.78345" lon="5.28672">
        <ele>541</ele>
        <time>2024-02-11T20:03:11Z</time>
      </trkpt>
      <trkpt lat="43.78338" lon="5.28676">
        <ele>540</ele>
        <time>2024-02-11T20:03:13Z</time>
      </trkpt>
      <trkpt lat="43.78327" lon="5.28674">
        <ele>539</ele>
        <time>2024-02-11T20:03:16Z</time>
      </trkpt>
      <trkpt lat="43.78307" lon="5.28679">
        <ele>536</ele>
        <time>2024-02-11T20:03:20Z</time>
      </trkpt>
      <trkpt lat="43.78299" lon="5.28674">
        <ele>535</ele>
        <time>2024-02-11T20:03:22Z</time>
      </trkpt>
      <trkpt lat="43.78291" lon="5.28677">
        <ele>534</ele>
        <time>2024-02-11T20:03:24Z</time>
      </trkpt>
      <trkpt lat="43.78279" lon="5.28674">
        <ele>533</ele>
        <time>2024-02-11T20:03:27Z</time>
      </trkpt>
      <trkpt lat="43.78267" lon="5.28677">
        <ele>531</ele>
        <time>2024-02-11T20:03:30Z</time>
      </trkpt>
      <trkpt lat="43.78259" lon="5.28683">
        <ele>530</ele>
        <time>2024-02-11T20:03:32Z</time>
      </trkpt>
      <trkpt lat="43.78224" lon="5.28685">
        <ele>526</ele>
        <time>2024-02-11T20:03:40Z</time>
      </trkpt>
      <trkpt lat="43.78211" lon="5.28694">
        <ele>525</ele>
        <time>2024-02-11T20:03:44Z</time>
      </trkpt>
      <trkpt lat="43.78209" lon="5.287">
        <ele>524</ele>
        <time>2024-02-11T20:03:45Z</time>
      </trkpt>
      <trkpt lat="43.78197" lon="5.2871">
        <ele>524</ele>
        <time>2024-02-11T20:03:48Z</time>
      </trkpt>
      <trkpt lat="43.78184" lon="5.28711">
        <ele>524</ele>
        <time>2024-02-11T20:03:51Z</time>
      </trkpt>
      <trkpt lat="43.78176" lon="5.28709">
        <ele>523</ele>
        <time>2024-02-11T20:03:53Z</time>
      </trkpt>
      <trkpt lat="43.7817" lon="5.28715">
        <ele>524</ele>
        <time>2024-02-11T20:03:55Z</time>
      </trkpt>
      <trkpt lat="43.78161" lon="5.28718">
        <ele>524</ele>
        <time>2024-02-11T20:03:57Z</time>
      </trkpt>
      <trkpt lat="43.78152" lon="5.28717">
        <ele>523</ele>
        <time>2024-02-11T20:03:59Z</time>
      </trkpt>
      <trkpt lat="43.78143" lon="5.28731">
        <ele>525</ele>
        <time>2024-02-11T20:04:02Z</time>
      </trkpt>
      <trkpt lat="43.78136" lon="5.28732">
        <ele>525</ele>
        <time>2024-02-11T20:04:04Z</time>
      </trkpt>
      <trkpt lat="43.7813" lon="5.28737">
        <ele>525</ele>
        <time>2024-02-11T20:04:05Z</time>
      </trkpt>
      <trkpt lat="43.78127" lon="5.28748">
        <ele>527</ele>
        <time>2024-02-11T20:04:07Z</time>
      </trkpt>
      <trkpt lat="43.78118" lon="5.28763">
        <ele>526</ele>
        <time>2024-02-11T20:04:11Z</time>
      </trkpt>
      <trkpt lat="43.78105" lon="5.2877">
        <ele>526</ele>
        <time>2024-02-11T20:04:14Z</time>
      </trkpt>
      <trkpt lat="43.78093" lon="5.28787">
        <ele>526</ele>
        <time>2024-02-11T20:04:18Z</time>
      </trkpt>
      <trkpt lat="43.7808" lon="5.28791">
        <ele>526</ele>
        <time>2024-02-11T20:04:21Z</time>
      </trkpt>
      <trkpt lat="43.78073" lon="5.2881">
        <ele>525</ele>
        <time>2024-02-11T20:04:25Z</time>
      </trkpt>
      <trkpt lat="43.78056" lon="5.28818">
        <ele>522</ele>
        <time>2024-02-11T20:04:29Z</time>
      </trkpt>
      <trkpt lat="43.78052" lon="5.28815">
        <ele>522</ele>
        <time>2024-02-11T20:04:30Z</time>
      </trkpt>
      <trkpt lat="43.78044" lon="5.28798">
        <ele>520</ele>
        <time>2024-02-11T20:04:33Z</time>
      </trkpt>
      <trkpt lat="43.78041" lon="5.28796">
        <ele>519</ele>
        <time>2024-02-11T20:04:34Z</time>
      </trkpt>
      <trkpt lat="43.78037" lon="5.28799">
        <ele>519</ele>
        <time>2024-02-11T20:04:35Z</time>
      </trkpt>
      <trkpt lat="43.78024" lon="5.28789">
        <ele>516</ele>
        <time>2024-02-11T20:04:39Z</time>
      </trkpt>
      <trkpt lat="43.78017" lon="5.28789">
        <ele>515</ele>
        <time>2024-02-11T20:04:40Z</time>
      </trkpt>
      <trkpt lat="43.78011" lon="5.2878">
        <ele>513</ele>
        <time>2024-02-11T20:04:42Z</time>
      </trkpt>
      <trkpt lat="43.77999" lon="5.28782">
        <ele>511</ele>
        <time>2024-02-11T20:04:45Z</time>
      </trkpt>
      <trkpt lat="43.77991" lon="5.28773">
        <ele>508</ele>
        <time>2024-02-11T20:04:48Z</time>
      </trkpt>
      <trkpt lat="43.77978" lon="5.28776">
        <ele>506</ele>
        <time>2024-02-11T20:04:51Z</time>
      </trkpt>
      <trkpt lat="43.77972" lon="5.28767">
        <ele>504</ele>
        <time>2024-02-11T20:04:53Z</time>
      </trkpt>
      <trkpt lat="43.77965" lon="5.28766">
        <ele>502</ele>
        <time>2024-02-11T20:04:54Z</time>
      </trkpt>
      <trkpt lat="43.7796" lon="5.28769">
        <ele>501</ele>
        <time>2024-02-11T20:04:56Z</time>
      </trkpt>
      <trkpt lat="43.77954" lon="5.28767">
        <ele>500</ele>
        <time>2024-02-11T20:04:57Z</time>
      </trkpt>
      <trkpt lat="43.77944" lon="5.28758">
        <ele>496</ele>
        <time>2024-02-11T20:05:00Z</time>
      </trkpt>
      <trkpt lat="43.77938" lon="5.28757">
        <ele>495</ele>
        <time>2024-02-11T20:05:01Z</time>
      </trkpt>
      <trkpt lat="43.77935" lon="5.28759">
        <ele>495</ele>
        <time>2024-02-11T20:05:02Z</time>
      </trkpt>
      <trkpt lat="43.77936" lon="5.28739">
        <ele>491</ele>
        <time>2024-02-11T20:05:05Z</time>
      </trkpt>
      <trkpt lat="43.77934" lon="5.28738">
        <ele>490</ele>
        <time>2024-02-11T20:05:06Z</time>
      </trkpt>
      <trkpt lat="43.77923" lon="5.28746">
        <ele>490</ele>
        <time>2024-02-11T20:05:09Z</time>
      </trkpt>
      <trkpt lat="43.7787" lon="5.28728">
        <ele>477</ele>
        <time>2024-02-11T20:05:22Z</time>
      </trkpt>
      <trkpt lat="43.77855" lon="5.2871">
        <ele>471</ele>
        <time>2024-02-11T20:05:26Z</time>
      </trkpt>
      <trkpt lat="43.77845" lon="5.28701">
        <ele>468</ele>
        <time>2024-02-11T20:05:29Z</time>
      </trkpt>
      <trkpt lat="43.77842" lon="5.28701">
        <ele>468</ele>
        <time>2024-02-11T20:05:30Z</time>
      </trkpt>
      <trkpt lat="43.7784" lon="5.28692">
        <ele>466</ele>
        <time>2024-02-11T20:05:31Z</time>
      </trkpt>
      <trkpt lat="43.77832" lon="5.28685">
        <ele>464</ele>
        <time>2024-02-11T20:05:33Z</time>
      </trkpt>
      <trkpt lat="43.77821" lon="5.28686">
        <ele>463</ele>
        <time>2024-02-11T20:05:36Z</time>
      </trkpt>
      <trkpt lat="43.77818" lon="5.28651">
        <ele>456</ele>
        <time>2024-02-11T20:05:42Z</time>
      </trkpt>
      <trkpt lat="43.77807" lon="5.28634">
        <ele>452</ele>
        <time>2024-02-11T20:05:46Z</time>
      </trkpt>
      <trkpt lat="43.778" lon="5.28635">
        <ele>452</ele>
        <time>2024-02-11T20:05:47Z</time>
      </trkpt>
      <trkpt lat="43.77795" lon="5.28633">
        <ele>452</ele>
        <time>2024-02-11T20:05:49Z</time>
      </trkpt>
      <trkpt lat="43.77769" lon="5.28611">
        <ele>452</ele>
        <time>2024-02-11T20:05:56Z</time>
      </trkpt>
      <trkpt lat="43.77762" lon="5.28613">
        <ele>453</ele>
        <time>2024-02-11T20:05:57Z</time>
      </trkpt>
      <trkpt lat="43.77761" lon="5.28609">
        <ele>453</ele>
        <time>2024-02-11T20:05:58Z</time>
      </trkpt>
      <trkpt lat="43.77751" lon="5.28601">
        <ele>454</ele>
        <time>2024-02-11T20:06:01Z</time>
      </trkpt>
      <trkpt lat="43.77746" lon="5.28601">
        <ele>454</ele>
        <time>2024-02-11T20:06:02Z</time>
      </trkpt>
      <trkpt lat="43.77733" lon="5.28607">
        <ele>454</ele>
        <time>2024-02-11T20:06:05Z</time>
      </trkpt>
      <trkpt lat="43.77726" lon="5.286">
        <ele>455</ele>
        <time>2024-02-11T20:06:07Z</time>
      </trkpt>
      <trkpt lat="43.77723" lon="5.286">
        <ele>455</ele>
        <time>2024-02-11T20:06:08Z</time>
      </trkpt>
      <trkpt lat="43.77718" lon="5.28601">
        <ele>455</ele>
        <time>2024-02-11T20:06:09Z</time>
      </trkpt>
      <trkpt lat="43.77712" lon="5.28607">
        <ele>454</ele>
        <time>2024-02-11T20:06:11Z</time>
      </trkpt>
      <trkpt lat="43.77703" lon="5.2859">
        <ele>456</ele>
        <time>2024-02-11T20:06:14Z</time>
      </trkpt>
      <trkpt lat="43.77697" lon="5.28588">
        <ele>457</ele>
        <time>2024-02-11T20:06:16Z</time>
      </trkpt>
      <trkpt lat="43.77692" lon="5.28592">
        <ele>456</ele>
        <time>2024-02-11T20:06:17Z</time>
      </trkpt>
      <trkpt lat="43.7769" lon="5.28581">
        <ele>457</ele>
        <time>2024-02-11T20:06:19Z</time>
      </trkpt>
      <trkpt lat="43.77681" lon="5.28574">
        <ele>457</ele>
        <time>2024-02-11T20:06:22Z</time>
      </trkpt>
      <trkpt lat="43.77683" lon="5.28563">
        <ele>455</ele>
        <time>2024-02-11T20:06:23Z</time>
      </trkpt>
      <trkpt lat="43.77677" lon="5.28559">
        <ele>455</ele>
        <time>2024-02-11T20:06:25Z</time>
      </trkpt>
      <trkpt lat="43.77668" lon="5.28559">
        <ele>456</ele>
        <time>2024-02-11T20:06:27Z</time>
      </trkpt>
      <trkpt lat="43.77659" lon="5.28548">
        <ele>455</ele>
        <time>2024-02-11T20:06:30Z</time>
      </trkpt>
      <trkpt lat="43.77658" lon="5.28542">
        <ele>454</ele>
        <time>2024-02-11T20:06:31Z</time>
      </trkpt>
      <trkpt lat="43.7765" lon="5.28539">
        <ele>455</ele>
        <time>2024-02-11T20:06:33Z</time>
      </trkpt>
      <trkpt lat="43.77644" lon="5.2853">
        <ele>455</ele>
        <time>2024-02-11T20:06:35Z</time>
      </trkpt>
      <trkpt lat="43.77637" lon="5.28525">
        <ele>455</ele>
        <time>2024-02-11T20:06:37Z</time>
      </trkpt>
      <trkpt lat="43.77616" lon="5.28522">
        <ele>458</ele>
        <time>2024-02-11T20:06:42Z</time>
      </trkpt>
      <trkpt lat="43.77607" lon="5.28517">
        <ele>459</ele>
        <time>2024-02-11T20:06:44Z</time>
      </trkpt>
      <trkpt lat="43.776" lon="5.28507">
        <ele>461</ele>
        <time>2024-02-11T20:06:46Z</time>
      </trkpt>
      <trkpt lat="43.7759" lon="5.28507">
        <ele>462</ele>
        <time>2024-02-11T20:06:49Z</time>
      </trkpt>
      <trkpt lat="43.77579" lon="5.28496">
        <ele>462</ele>
        <time>2024-02-11T20:06:52Z</time>
      </trkpt>
      <trkpt lat="43.77574" lon="5.28495">
        <ele>461</ele>
        <time>2024-02-11T20:06:53Z</time>
      </trkpt>
      <trkpt lat="43.77565" lon="5.28512">
        <ele>460</ele>
        <time>2024-02-11T20:06:57Z</time>
      </trkpt>
      <trkpt lat="43.77567" lon="5.28517">
        <ele>460</ele>
        <time>2024-02-11T20:06:58Z</time>
      </trkpt>
      <trkpt lat="43.77563" lon="5.28531">
        <ele>458</ele>
        <time>2024-02-11T20:07:00Z</time>
      </trkpt>
      <trkpt lat="43.77556" lon="5.28536">
        <ele>456</ele>
        <time>2024-02-11T20:07:02Z</time>
      </trkpt>
      <trkpt lat="43.77555" lon="5.28545">
        <ele>455</ele>
        <time>2024-02-11T20:07:03Z</time>
      </trkpt>
      <trkpt lat="43.77557" lon="5.28553">
        <ele>454</ele>
        <time>2024-02-11T20:07:05Z</time>
      </trkpt>
      <trkpt lat="43.77562" lon="5.28556">
        <ele>455</ele>
        <time>2024-02-11T20:07:06Z</time>
      </trkpt>
      <trkpt lat="43.77553" lon="5.28561">
        <ele>452</ele>
        <time>2024-02-11T20:07:08Z</time>
      </trkpt>
      <trkpt lat="43.7756" lon="5.28591">
        <ele>450</ele>
        <time>2024-02-11T20:07:14Z</time>
      </trkpt>
      <trkpt lat="43.77559" lon="5.28593">
        <ele>449</ele>
        <time>2024-02-11T20:07:14Z</time>
      </trkpt>
      <trkpt lat="43.77552" lon="5.28593">
        <ele>448</ele>
        <time>2024-02-11T20:07:16Z</time>
      </trkpt>
      <trkpt lat="43.77551" lon="5.28597">
        <ele>447</ele>
        <time>2024-02-11T20:07:17Z</time>
      </trkpt>
      <trkpt lat="43.77546" lon="5.28592">
        <ele>446</ele>
        <time>2024-02-11T20:07:18Z</time>
      </trkpt>
      <trkpt lat="43.77543" lon="5.28595">
        <ele>445</ele>
        <time>2024-02-11T20:07:19Z</time>
      </trkpt>
      <trkpt lat="43.77543" lon="5.2861">
        <ele>442</ele>
        <time>2024-02-11T20:07:21Z</time>
      </trkpt>
      <trkpt lat="43.77548" lon="5.28629">
        <ele>439</ele>
        <time>2024-02-11T20:07:25Z</time>
      </trkpt>
      <trkpt lat="43.77544" lon="5.28633">
        <ele>438</ele>
        <time>2024-02-11T20:07:26Z</time>
      </trkpt>
      <trkpt lat="43.7754" lon="5.28633">
        <ele>437</ele>
        <time>2024-02-11T20:07:27Z</time>
      </trkpt>
      <trkpt lat="43.77534" lon="5.28648">
        <ele>433</ele>
        <time>2024-02-11T20:07:30Z</time>
      </trkpt>
      <trkpt lat="43.77538" lon="5.28653">
        <ele>433</ele>
        <time>2024-02-11T20:07:31Z</time>
      </trkpt>
      <trkpt lat="43.77536" lon="5.28659">
        <ele>431</ele>
        <time>2024-02-11T20:07:32Z</time>
      </trkpt>
      <trkpt lat="43.77527" lon="5.28655">
        <ele>430</ele>
        <time>2024-02-11T20:07:34Z</time>
      </trkpt>
      <trkpt lat="43.77526" lon="5.28657">
        <ele>430</ele>
        <time>2024-02-11T20:07:35Z</time>
      </trkpt>
      <trkpt lat="43.77526" lon="5.28667">
        <ele>428</ele>
        <time>2024-02-11T20:07:36Z</time>
      </trkpt>
      <trkpt lat="43.77532" lon="5.28678">
        <ele>426</ele>
        <time>2024-02-11T20:07:39Z</time>
      </trkpt>
      <trkpt lat="43.7752" lon="5.28679">
        <ele>424</ele>
        <time>2024-02-11T20:07:42Z</time>
      </trkpt>
      <trkpt lat="43.77518" lon="5.28687">
        <ele>422</ele>
        <time>2024-02-11T20:07:43Z</time>
      </trkpt>
      <trkpt lat="43.7752" lon="5.28695">
        <ele>421</ele>
        <time>2024-02-11T20:07:44Z</time>
      </trkpt>
      <trkpt lat="43.77506" lon="5.28698">
        <ele>419</ele>
        <time>2024-02-11T20:07:48Z</time>
      </trkpt>
      <trkpt lat="43.77503" lon="5.28705">
        <ele>417</ele>
        <time>2024-02-11T20:07:49Z</time>
      </trkpt>
      <trkpt lat="43.77491" lon="5.28702">
        <ele>414</ele>
        <time>2024-02-11T20:07:52Z</time>
      </trkpt>
      <trkpt lat="43.77488" lon="5.28704">
        <ele>413</ele>
        <time>2024-02-11T20:07:53Z</time>
      </trkpt>
      <trkpt lat="43.77487" lon="5.28711">
        <ele>412</ele>
        <time>2024-02-11T20:07:54Z</time>
      </trkpt>
      <trkpt lat="43.77484" lon="5.28714">
        <ele>410</ele>
        <time>2024-02-11T20:07:55Z</time>
      </trkpt>
      <trkpt lat="43.7748" lon="5.28712">
        <ele>410</ele>
        <time>2024-02-11T20:07:56Z</time>
      </trkpt>
      <trkpt lat="43.77478" lon="5.28714">
        <ele>409</ele>
        <time>2024-02-11T20:07:56Z</time>
      </trkpt>
      <trkpt lat="43.77477" lon="5.28728">
        <ele>407</ele>
        <time>2024-02-11T20:07:59Z</time>
      </trkpt>
      <trkpt lat="43.7748" lon="5.28738">
        <ele>406</ele>
        <time>2024-02-11T20:08:01Z</time>
      </trkpt>
      <trkpt lat="43.77473" lon="5.28737">
        <ele>405</ele>
        <time>2024-02-11T20:08:02Z</time>
      </trkpt>
      <trkpt lat="43.77466" lon="5.28741">
        <ele>403</ele>
        <time>2024-02-11T20:08:04Z</time>
      </trkpt>
      <trkpt lat="43.77456" lon="5.28771">
        <ele>395</ele>
        <time>2024-02-11T20:08:10Z</time>
      </trkpt>
      <trkpt lat="43.77452" lon="5.28771">
        <ele>394</ele>
        <time>2024-02-11T20:08:10Z</time>
      </trkpt>
      <trkpt lat="43.77444" lon="5.28757">
        <ele>396</ele>
        <time>2024-02-11T20:08:13Z</time>
      </trkpt>
      <trkpt lat="43.7744" lon="5.28755">
        <ele>396</ele>
        <time>2024-02-11T20:08:14Z</time>
      </trkpt>
      <trkpt lat="43.77437" lon="5.2877">
        <ele>393</ele>
        <time>2024-02-11T20:08:17Z</time>
      </trkpt>
      <trkpt lat="43.77438" lon="5.28792">
        <ele>388</ele>
        <time>2024-02-11T20:08:21Z</time>
      </trkpt>
      <trkpt lat="43.77434" lon="5.28791">
        <ele>388</ele>
        <time>2024-02-11T20:08:22Z</time>
      </trkpt>
      <trkpt lat="43.7743" lon="5.28785">
        <ele>389</ele>
        <time>2024-02-11T20:08:23Z</time>
      </trkpt>
      <trkpt lat="43.77428" lon="5.28784">
        <ele>389</ele>
        <time>2024-02-11T20:08:24Z</time>
      </trkpt>
      <trkpt lat="43.77426" lon="5.28787">
        <ele>388</ele>
        <time>2024-02-11T20:08:24Z</time>
      </trkpt>
      <trkpt lat="43.77416" lon="5.28779">
        <ele>388</ele>
        <time>2024-02-11T20:08:27Z</time>
      </trkpt>
      <trkpt lat="43.77414" lon="5.28787">
        <ele>386</ele>
        <time>2024-02-11T20:08:28Z</time>
      </trkpt>
      <trkpt lat="43.77406" lon="5.2878">
        <ele>385</ele>
        <time>2024-02-11T20:08:31Z</time>
      </trkpt>
      <trkpt lat="43.77403" lon="5.28781">
        <ele>384</ele>
        <time>2024-02-11T20:08:31Z</time>
      </trkpt>
      <trkpt lat="43.77402" lon="5.28786">
        <ele>383</ele>
        <time>2024-02-11T20:08:32Z</time>
      </trkpt>
      <trkpt lat="43.77401" lon="5.2878">
        <ele>383</ele>
        <time>2024-02-11T20:08:33Z</time>
      </trkpt>
      <trkpt lat="43.77397" lon="5.28776">
        <ele>383</ele>
        <time>2024-02-11T20:08:34Z</time>
      </trkpt>
      <trkpt lat="43.77395" lon="5.28783">
        <ele>381</ele>
        <time>2024-02-11T20:08:36Z</time>
      </trkpt>
      <trkpt lat="43.774" lon="5.28797">
        <ele>381</ele>
        <time>2024-02-11T20:08:38Z</time>
      </trkpt>
      <trkpt lat="43.77397" lon="5.28799">
        <ele>379</ele>
        <time>2024-02-11T20:08:39Z</time>
      </trkpt>
      <trkpt lat="43.77389" lon="5.28795">
        <ele>378</ele>
        <time>2024-02-11T20:08:41Z</time>
      </trkpt>
      <trkpt lat="43.77388" lon="5.28797">
        <ele>377</ele>
        <time>2024-02-11T20:08:42Z</time>
      </trkpt>
      <trkpt lat="43.77389" lon="5.28804">
        <ele>377</ele>
        <time>2024-02-11T20:08:43Z</time>
      </trkpt>
      <trkpt lat="43.77385" lon="5.28821">
        <ele>373</ele>
        <time>2024-02-11T20:08:46Z</time>
      </trkpt>
      <trkpt lat="43.77386" lon="5.28835">
        <ele>372</ele>
        <time>2024-02-11T20:08:48Z</time>
      </trkpt>
      <trkpt lat="43.77383" lon="5.28837">
        <ele>370</ele>
        <time>2024-02-11T20:08:49Z</time>
      </trkpt>
      <trkpt lat="43.77376" lon="5.28828">
        <ele>370</ele>
        <time>2024-02-11T20:08:51Z</time>
      </trkpt>
      <trkpt lat="43.77374" lon="5.28829">
        <ele>370</ele>
        <time>2024-02-11T20:08:52Z</time>
      </trkpt>
      <trkpt lat="43.77368" lon="5.2885">
        <ele>364</ele>
        <time>2024-02-11T20:08:55Z</time>
      </trkpt>
      <trkpt lat="43.77368" lon="5.28863">
        <ele>361</ele>
        <time>2024-02-11T20:08:58Z</time>
      </trkpt>
      <trkpt lat="43.77362" lon="5.28862">
        <ele>360</ele>
        <time>2024-02-11T20:08:59Z</time>
      </trkpt>
      <trkpt lat="43.77355" lon="5.28847">
        <ele>362</ele>
        <time>2024-02-11T20:09:02Z</time>
      </trkpt>
      <trkpt lat="43.77353" lon="5.2885">
        <ele>361</ele>
        <time>2024-02-11T20:09:03Z</time>
      </trkpt>
      <trkpt lat="43.77352" lon="5.28872">
        <ele>357</ele>
        <time>2024-02-11T20:09:06Z</time>
      </trkpt>
      <trkpt lat="43.77355" lon="5.28882">
        <ele>355</ele>
        <time>2024-02-11T20:09:08Z</time>
      </trkpt>
      <trkpt lat="43.77363" lon="5.28897">
        <ele>353</ele>
        <time>2024-02-11T20:09:11Z</time>
      </trkpt>
      <trkpt lat="43.77379" lon="5.28912">
        <ele>350</ele>
        <time>2024-02-11T20:09:16Z</time>
      </trkpt>
      <trkpt lat="43.77365" lon="5.28925">
        <ele>347</ele>
        <time>2024-02-11T20:09:20Z</time>
      </trkpt>
      <trkpt lat="43.77359" lon="5.28945">
        <ele>342</ele>
        <time>2024-02-11T20:09:24Z</time>
      </trkpt>
      <trkpt lat="43.77358" lon="5.28957">
        <ele>339</ele>
        <time>2024-02-11T20:09:26Z</time>
      </trkpt>
      <trkpt lat="43.77351" lon="5.28963">
        <ele>338</ele>
        <time>2024-02-11T20:09:27Z</time>
      </trkpt>
      <trkpt lat="43.77352" lon="5.28978">
        <ele>334</ele>
        <time>2024-02-11T20:09:30Z</time>
      </trkpt>
      <trkpt lat="43.77344" lon="5.28984">
        <ele>332</ele>
        <time>2024-02-11T20:09:32Z</time>
      </trkpt>
      <trkpt lat="43.77341" lon="5.29001">
        <ele>328</ele>
        <time>2024-02-11T20:09:35Z</time>
      </trkpt>
      <trkpt lat="43.77334" lon="5.29009">
        <ele>326</ele>
        <time>2024-02-11T20:09:37Z</time>
      </trkpt>
      <trkpt lat="43.77331" lon="5.2903">
        <ele>321</ele>
        <time>2024-02-11T20:09:41Z</time>
      </trkpt>
      <trkpt lat="43.77325" lon="5.29043">
        <ele>318</ele>
        <time>2024-02-11T20:09:43Z</time>
      </trkpt>
      <trkpt lat="43.77313" lon="5.29058">
        <ele>315</ele>
        <time>2024-02-11T20:09:47Z</time>
      </trkpt>
      <trkpt lat="43.77301" lon="5.29063">
        <ele>313</ele>
        <time>2024-02-11T20:09:50Z</time>
      </trkpt>
      <trkpt lat="43.77278" lon="5.29051">
        <ele>314</ele>
        <time>2024-02-11T20:09:56Z</time>
      </trkpt>
      <trkpt lat="43.77272" lon="5.29045">
        <ele>315</ele>
        <time>2024-02-11T20:09:58Z</time>
      </trkpt>
      <trkpt lat="43.77255" lon="5.29045">
        <ele>314</ele>
        <time>2024-02-11T20:10:02Z</time>
      </trkpt>
      <trkpt lat="43.77218" lon="5.2903">
        <ele>316</ele>
        <time>2024-02-11T20:10:11Z</time>
      </trkpt>
      <trkpt lat="43.77201" lon="5.2903">
        <ele>317</ele>
        <time>2024-02-11T20:10:15Z</time>
      </trkpt>
      <trkpt lat="43.77188" lon="5.29036">
        <ele>317</ele>
        <time>2024-02-11T20:10:18Z</time>
      </trkpt>
      <trkpt lat="43.77161" lon="5.29031">
        <ele>316</ele>
        <time>2024-02-11T20:10:24Z</time>
      </trkpt>
      <trkpt lat="43.77155" lon="5.29025">
        <ele>316</ele>
        <time>2024-02-11T20:10:26Z</time>
      </trkpt>
      <trkpt lat="43.77146" lon="5.29022">
        <ele>314</ele>
        <time>2024-02-11T20:10:28Z</time>
      </trkpt>
      <trkpt lat="43.77141" lon="5.2901">
        <ele>314</ele>
        <time>2024-02-11T20:10:30Z</time>
      </trkpt>
      <trkpt lat="43.77135" lon="5.29003">
        <ele>313</ele>
        <time>2024-02-11T20:10:32Z</time>
      </trkpt>
      <trkpt lat="43.77122" lon="5.28996">
        <ele>310</ele>
        <time>2024-02-11T20:10:35Z</time>
      </trkpt>
      <trkpt lat="43.77093" lon="5.28968">
        <ele>305</ele>
        <time>2024-02-11T20:10:44Z</time>
      </trkpt>
      <trkpt lat="43.77097" lon="5.2895">
        <ele>305</ele>
        <time>2024-02-11T20:10:47Z</time>
      </trkpt>
      <trkpt lat="43.77107" lon="5.28934">
        <ele>306</ele>
        <time>2024-02-11T20:10:50Z</time>
      </trkpt>
      <trkpt lat="43.77105" lon="5.28924">
        <ele>306</ele>
        <time>2024-02-11T20:10:52Z</time>
      </trkpt>
      <trkpt lat="43.77109" lon="5.28917">
        <ele>306</ele>
        <time>2024-02-11T20:10:54Z</time>
      </trkpt>
      <trkpt lat="43.7711" lon="5.28904">
        <ele>306</ele>
        <time>2024-02-11T20:10:56Z</time>
      </trkpt>
      <trkpt lat="43.77105" lon="5.28886">
        <ele>305</ele>
        <time>2024-02-11T20:10:59Z</time>
      </trkpt>
      <trkpt lat="43.77105" lon="5.28863">
        <ele>305</ele>
        <time>2024-02-11T20:11:03Z</time>
      </trkpt>
      <trkpt lat="43.77108" lon="5.28852">
        <ele>306</ele>
        <time>2024-02-11T20:11:05Z</time>
      </trkpt>
      <trkpt lat="43.77106" lon="5.28843">
        <ele>305</ele>
        <time>2024-02-11T20:11:07Z</time>
      </trkpt>
      <trkpt lat="43.77119" lon="5.28824">
        <ele>309</ele>
        <time>2024-02-11T20:11:11Z</time>
      </trkpt>
      <trkpt lat="43.77124" lon="5.28821">
        <ele>310</ele>
        <time>2024-02-11T20:11:12Z</time>
      </trkpt>
      <trkpt lat="43.77126" lon="5.28814">
        <ele>311</ele>
        <time>2024-02-11T20:11:14Z</time>
      </trkpt>
      <trkpt lat="43.77122" lon="5.28807">
        <ele>310</ele>
        <time>2024-02-11T20:11:15Z</time>
      </trkpt>
      <trkpt lat="43.77126" lon="5.28792">
        <ele>311</ele>
        <time>2024-02-11T20:11:18Z</time>
      </trkpt>
      <trkpt lat="43.77123" lon="5.28779">
        <ele>310</ele>
        <time>2024-02-11T20:11:20Z</time>
      </trkpt>
      <trkpt lat="43.77123" lon="5.28762">
        <ele>310</ele>
        <time>2024-02-11T20:11:23Z</time>
      </trkpt>
      <trkpt lat="43.77112" lon="5.28753">
        <ele>307</ele>
        <time>2024-02-11T20:11:26Z</time>
      </trkpt>
      <trkpt lat="43.77107" lon="5.28713">
        <ele>305</ele>
        <time>2024-02-11T20:11:33Z</time>
      </trkpt>
      <trkpt lat="43.77109" lon="5.287">
        <ele>305</ele>
        <time>2024-02-11T20:11:35Z</time>
      </trkpt>
      <trkpt lat="43.77116" lon="5.28692">
        <ele>307</ele>
        <time>2024-02-11T20:11:37Z</time>
      </trkpt>
      <trkpt lat="43.77118" lon="5.28682">
        <ele>308</ele>
        <time>2024-02-11T20:11:39Z</time>
      </trkpt>
      <trkpt lat="43.77115" lon="5.28677">
        <ele>307</ele>
        <time>2024-02-11T20:11:40Z</time>
      </trkpt>
      <trkpt lat="43.77114" lon="5.28668">
        <ele>306</ele>
        <time>2024-02-11T20:11:41Z</time>
      </trkpt>
      <trkpt lat="43.77116" lon="5.28656">
        <ele>307</ele>
        <time>2024-02-11T20:11:44Z</time>
      </trkpt>
      <trkpt lat="43.77119" lon="5.2865">
        <ele>308</ele>
        <time>2024-02-11T20:11:45Z</time>
      </trkpt>
      <trkpt lat="43.77125" lon="5.28646">
        <ele>309</ele>
        <time>2024-02-11T20:11:46Z</time>
      </trkpt>
      <trkpt lat="43.7712" lon="5.28628">
        <ele>308</ele>
        <time>2024-02-11T20:11:50Z</time>
      </trkpt>
      <trkpt lat="43.77125" lon="5.2862">
        <ele>310</ele>
        <time>2024-02-11T20:11:51Z</time>
      </trkpt>
      <trkpt lat="43.7712" lon="5.28601">
        <ele>309</ele>
        <time>2024-02-11T20:11:55Z</time>
      </trkpt>
      <trkpt lat="43.77122" lon="5.28595">
        <ele>309</ele>
        <time>2024-02-11T20:11:56Z</time>
      </trkpt>
      <trkpt lat="43.77119" lon="5.28591">
        <ele>308</ele>
        <time>2024-02-11T20:11:57Z</time>
      </trkpt>
      <trkpt lat="43.77114" lon="5.28594">
        <ele>307</ele>
        <time>2024-02-11T20:11:58Z</time>
      </trkpt>
      <trkpt lat="43.77111" lon="5.28578">
        <ele>307</ele>
        <time>2024-02-11T20:12:01Z</time>
      </trkpt>
      <trkpt lat="43.77115" lon="5.28559">
        <ele>309</ele>
        <time>2024-02-11T20:12:04Z</time>
      </trkpt>
      <trkpt lat="43.77122" lon="5.28551">
        <ele>311</ele>
        <time>2024-02-11T20:12:06Z</time>
      </trkpt>
      <trkpt lat="43.77119" lon="5.28537">
        <ele>311</ele>
        <time>2024-02-11T20:12:09Z</time>
      </trkpt>
      <trkpt lat="43.77123" lon="5.28521">
        <ele>313</ele>
        <time>2024-02-11T20:12:12Z</time>
      </trkpt>
      <trkpt lat="43.77115" lon="5.28509">
        <ele>311</ele>
        <time>2024-02-11T20:12:14Z</time>
      </trkpt>
      <trkpt lat="43.77106" lon="5.28485">
        <ele>311</ele>
        <time>2024-02-11T20:12:19Z</time>
      </trkpt>
      <trkpt lat="43.77099" lon="5.28487">
        <ele>309</ele>
        <time>2024-02-11T20:12:21Z</time>
      </trkpt>
      <trkpt lat="43.77093" lon="5.28481">
        <ele>308</ele>
        <time>2024-02-11T20:12:22Z</time>
      </trkpt>
      <trkpt lat="43.77088" lon="5.28471">
        <ele>308</ele>
        <time>2024-02-11T20:12:24Z</time>
      </trkpt>
      <trkpt lat="43.7708" lon="5.28469">
        <ele>307</ele>
        <time>2024-02-11T20:12:26Z</time>
      </trkpt>
      <trkpt lat="43.77077" lon="5.28459">
        <ele>308</ele>
        <time>2024-02-11T20:12:28Z</time>
      </trkpt>
      <trkpt lat="43.77079" lon="5.28437">
        <ele>310</ele>
        <time>2024-02-11T20:12:32Z</time>
      </trkpt>
      <trkpt lat="43.77077" lon="5.28412">
        <ele>313</ele>
        <time>2024-02-11T20:12:36Z</time>
      </trkpt>
      <trkpt lat="43.77055" lon="5.28375">
        <ele>315</ele>
        <time>2024-02-11T20:12:44Z</time>
      </trkpt>
      <trkpt lat="43.77045" lon="5.28374">
        <ele>313</ele>
        <time>2024-02-11T20:12:47Z</time>
      </trkpt>
      <trkpt lat="43.77039" lon="5.28367">
        <ele>313</ele>
        <time>2024-02-11T20:12:48Z</time>
      </trkpt>
      <trkpt lat="43.77028" lon="5.28364">
        <ele>311</ele>
        <time>2024-02-11T20:12:51Z</time>
      </trkpt>
      <trkpt lat="43.76999" lon="5.28324">
        <ele>310</ele>
        <time>2024-02-11T20:13:01Z</time>
      </trkpt>
      <trkpt lat="43.76988" lon="5.28293">
        <ele>313</ele>
        <time>2024-02-11T20:13:06Z</time>
      </trkpt>
      <trkpt lat="43.76988" lon="5.28283">
        <ele>314</ele>
        <time>2024-02-11T20:13:08Z</time>
      </trkpt>
      <trkpt lat="43.76993" lon="5.28265">
        <ele>317</ele>
        <time>2024-02-11T20:13:11Z</time>
      </trkpt>
      <trkpt lat="43.76976" lon="5.28208">
        <ele>316</ele>
        <time>2024-02-11T20:13:22Z</time>
      </trkpt>
      <trkpt lat="43.76974" lon="5.28178">
        <ele>317</ele>
        <time>2024-02-11T20:13:27Z</time>
      </trkpt>
      <trkpt lat="43.76976" lon="5.28154">
        <ele>317</ele>
        <time>2024-02-11T20:13:31Z</time>
      </trkpt>
      <trkpt lat="43.76971" lon="5.28146">
        <ele>315</ele>
        <time>2024-02-11T20:13:33Z</time>
      </trkpt>
      <trkpt lat="43.76974" lon="5.28121">
        <ele>314</ele>
        <time>2024-02-11T20:13:37Z</time>
      </trkpt>
      <trkpt lat="43.76971" lon="5.28119">
        <ele>313</ele>
        <time>2024-02-11T20:13:38Z</time>
      </trkpt>
      <trkpt lat="43.76966" lon="5.2812">
        <ele>312</ele>
        <time>2024-02-11T20:13:39Z</time>
      </trkpt>
      <trkpt lat="43.76955" lon="5.28106">
        <ele>308</ele>
        <time>2024-02-11T20:13:42Z</time>
      </trkpt>
      <trkpt lat="43.76952" lon="5.28105">
        <ele>307</ele>
        <time>2024-02-11T20:13:43Z</time>
      </trkpt>
      <trkpt lat="43.76947" lon="5.28108">
        <ele>306</ele>
        <time>2024-02-11T20:13:44Z</time>
      </trkpt>
      <trkpt lat="43.76944" lon="5.28095">
        <ele>305</ele>
        <time>2024-02-11T20:13:47Z</time>
      </trkpt>
      <trkpt lat="43.76954" lon="5.2808">
        <ele>306</ele>
        <time>2024-02-11T20:13:50Z</time>
      </trkpt>
      <trkpt lat="43.7696" lon="5.28066">
        <ele>306</ele>
        <time>2024-02-11T20:13:53Z</time>
      </trkpt>
      <trkpt lat="43.76959" lon="5.28041">
        <ele>301</ele>
        <time>2024-02-11T20:13:57Z</time>
      </trkpt>
      <trkpt lat="43.76982" lon="5.28018">
        <ele>303</ele>
        <time>2024-02-11T20:14:04Z</time>
      </trkpt>
      <trkpt lat="43.77027" lon="5.27964">
        <ele>303</ele>
        <time>2024-02-11T20:14:18Z</time>
      </trkpt>
      <trkpt lat="43.77062" lon="5.27953">
        <ele>307</ele>
        <time>2024-02-11T20:14:26Z</time>
      </trkpt>
      <trkpt lat="43.77095" lon="5.27935">
        <ele>309</ele>
        <time>2024-02-11T20:14:34Z</time>
      </trkpt>
      <trkpt lat="43.77107" lon="5.27924">
        <ele>308</ele>
        <time>2024-02-11T20:14:38Z</time>
      </trkpt>
      <trkpt lat="43.77112" lon="5.27911">
        <ele>308</ele>
        <time>2024-02-11T20:14:40Z</time>
      </trkpt>
      <trkpt lat="43.77083" lon="5.2785">
        <ele>307</ele>
        <time>2024-02-11T20:14:52Z</time>
      </trkpt>
      <trkpt lat="43.77068" lon="5.27833">
        <ele>305</ele>
        <time>2024-02-11T20:14:57Z</time>
      </trkpt>
      <trkpt lat="43.77058" lon="5.27815">
        <ele>311</ele>
        <time>2024-02-11T20:15:01Z</time>
      </trkpt>
      <trkpt lat="43.7704" lon="5.27805">
        <ele>312</ele>
        <time>2024-02-11T20:15:05Z</time>
      </trkpt>
      <trkpt lat="43.77019" lon="5.27798">
        <ele>310</ele>
        <time>2024-02-11T20:15:10Z</time>
      </trkpt>
      <trkpt lat="43.76978" lon="5.27798">
        <ele>304</ele>
        <time>2024-02-11T20:15:20Z</time>
      </trkpt>
      <trkpt lat="43.76943" lon="5.27778">
        <ele>309</ele>
        <time>2024-02-11T20:15:29Z</time>
      </trkpt>
      <trkpt lat="43.76913" lon="5.27789">
        <ele>301</ele>
        <time>2024-02-11T20:15:36Z</time>
      </trkpt>
      <trkpt lat="43.76866" lon="5.27819">
        <ele>295</ele>
        <time>2024-02-11T20:15:48Z</time>
      </trkpt>
      <trkpt lat="43.76837" lon="5.27849">
        <ele>292</ele>
        <time>2024-02-11T20:15:57Z</time>
      </trkpt>
      <trkpt lat="43.76793" lon="5.27914">
        <ele>280</ele>
        <time>2024-02-11T20:16:12Z</time>
      </trkpt>
      <trkpt lat="43.76774" lon="5.27929">
        <ele>279</ele>
        <time>2024-02-11T20:16:17Z</time>
      </trkpt>
      <trkpt lat="43.7676" lon="5.27923">
        <ele>282</ele>
        <time>2024-02-11T20:16:20Z</time>
      </trkpt>
      <trkpt lat="43.76717" lon="5.27915">
        <ele>282</ele>
        <time>2024-02-11T20:16:30Z</time>
      </trkpt>
      <trkpt lat="43.76697" lon="5.27906">
        <ele>281</ele>
        <time>2024-02-11T20:16:35Z</time>
      </trkpt>
      <trkpt lat="43.76696" lon="5.27886">
        <ele>283</ele>
        <time>2024-02-11T20:16:39Z</time>
      </trkpt>
      <trkpt lat="43.76708" lon="5.2787">
        <ele>287</ele>
        <time>2024-02-11T20:16:42Z</time>
      </trkpt>
      <trkpt lat="43.76696" lon="5.27835">
        <ele>289</ele>
        <time>2024-02-11T20:16:49Z</time>
      </trkpt>
      <trkpt lat="43.76705" lon="5.27825">
        <ele>292</ele>
        <time>2024-02-11T20:16:52Z</time>
      </trkpt>
      <trkpt lat="43.76707" lon="5.27812">
        <ele>293</ele>
        <time>2024-02-11T20:16:54Z</time>
      </trkpt>
      <trkpt lat="43.76693" lon="5.27792">
        <ele>291</ele>
        <time>2024-02-11T20:16:59Z</time>
      </trkpt>
      <trkpt lat="43.76679" lon="5.27782">
        <ele>288</ele>
        <time>2024-02-11T20:17:02Z</time>
      </trkpt>
      <trkpt lat="43.76675" lon="5.27753">
        <ele>288</ele>
        <time>2024-02-11T20:17:07Z</time>
      </trkpt>
      <trkpt lat="43.76666" lon="5.27741">
        <ele>286</ele>
        <time>2024-02-11T20:17:10Z</time>
      </trkpt>
      <trkpt lat="43.76671" lon="5.27715">
        <ele>286</ele>
        <time>2024-02-11T20:17:15Z</time>
      </trkpt>
      <trkpt lat="43.76664" lon="5.27697">
        <ele>284</ele>
        <time>2024-02-11T20:17:18Z</time>
      </trkpt>
      <trkpt lat="43.76687" lon="5.27655">
        <ele>288</ele>
        <time>2024-02-11T20:17:27Z</time>
      </trkpt>
      <trkpt lat="43.76719" lon="5.27581">
        <ele>287</ele>
        <time>2024-02-11T20:17:42Z</time>
      </trkpt>
      <trkpt lat="43.76791" lon="5.27544">
        <ele>292</ele>
        <time>2024-02-11T20:18:00Z</time>
      </trkpt>
      <trkpt lat="43.76847" lon="5.27521">
        <ele>298</ele>
        <time>2024-02-11T20:18:13Z</time>
      </trkpt>
      <trkpt lat="43.7689" lon="5.27508">
        <ele>305</ele>
        <time>2024-02-11T20:18:24Z</time>
      </trkpt>
      <trkpt lat="43.76904" lon="5.27478">
        <ele>309</ele>
        <time>2024-02-11T20:18:30Z</time>
      </trkpt>
      <trkpt lat="43.76894" lon="5.27463">
        <ele>308</ele>
        <time>2024-02-11T20:18:33Z</time>
      </trkpt>
      <trkpt lat="43.76882" lon="5.2746">
        <ele>305</ele>
        <time>2024-02-11T20:18:36Z</time>
      </trkpt>
      <trkpt lat="43.76859" lon="5.27442">
        <ele>300</ele>
        <time>2024-02-11T20:18:42Z</time>
      </trkpt>
      <trkpt lat="43.76833" lon="5.27409">
        <ele>296</ele>
        <time>2024-02-11T20:18:50Z</time>
      </trkpt>
      <trkpt lat="43.76807" lon="5.27358">
        <ele>297</ele>
        <time>2024-02-11T20:19:01Z</time>
      </trkpt>
      <trkpt lat="43.76792" lon="5.27312">
        <ele>296</ele>
        <time>2024-02-11T20:19:09Z</time>
      </trkpt>
      <trkpt lat="43.76792" lon="5.27261">
        <ele>297</ele>
        <time>2024-02-11T20:19:18Z</time>
      </trkpt>
      <trkpt lat="43.76777" lon="5.27209">
        <ele>291</ele>
        <time>2024-02-11T20:19:27Z</time>
      </trkpt>
      <trkpt lat="43.76756" lon="5.27157">
        <ele>283</ele>
        <time>2024-02-11T20:19:37Z</time>
      </trkpt>
      <trkpt lat="43.76756" lon="5.27119">
        <ele>282</ele>
        <time>2024-02-11T20:19:44Z</time>
      </trkpt>
      <trkpt lat="43.7679" lon="5.27051">
        <ele>292</ele>
        <time>2024-02-11T20:19:58Z</time>
      </trkpt>
      <trkpt lat="43.76825" lon="5.27007">
        <ele>299</ele>
        <time>2024-02-11T20:20:09Z</time>
      </trkpt>
      <trkpt lat="43.76862" lon="5.26986">
        <ele>300</ele>
        <time>2024-02-11T20:20:18Z</time>
      </trkpt>
      <trkpt lat="43.76892" lon="5.26985">
        <ele>297</ele>
        <time>2024-02-11T20:20:25Z</time>
      </trkpt>
      <trkpt lat="43.76918" lon="5.26996">
        <ele>297</ele>
        <time>2024-02-11T20:20:31Z</time>
      </trkpt>
      <trkpt lat="43.76927" lon="5.27003">
        <ele>298</ele>
        <time>2024-02-11T20:20:34Z</time>
      </trkpt>
      <trkpt lat="43.76941" lon="5.26995">
        <ele>295</ele>
        <time>2024-02-11T20:20:37Z</time>
      </trkpt>
      <trkpt lat="43.76961" lon="5.2701">
        <ele>297</ele>
        <time>2024-02-11T20:20:43Z</time>
      </trkpt>
      <trkpt lat="43.7697" lon="5.27007">
        <ele>296</ele>
        <time>2024-02-11T20:20:45Z</time>
      </trkpt>
      <trkpt lat="43.76963" lon="5.26997">
        <ele>294</ele>
        <time>2024-02-11T20:20:47Z</time>
      </trkpt>
      <trkpt lat="43.76961" lon="5.26974">
        <ele>293</ele>
        <time>2024-02-11T20:20:51Z</time>
      </trkpt>
      <trkpt lat="43.76942" lon="5.26943">
        <ele>290</ele>
        <time>2024-02-11T20:20:58Z</time>
      </trkpt>
      <trkpt lat="43.7694" lon="5.26927">
        <ele>288</ele>
        <time>2024-02-11T20:21:01Z</time>
      </trkpt>
      <trkpt lat="43.76934" lon="5.26911">
        <ele>285</ele>
        <time>2024-02-11T20:21:04Z</time>
      </trkpt>
      <trkpt lat="43.76939" lon="5.26903">
        <ele>285</ele>
        <time>2024-02-11T20:21:06Z</time>
      </trkpt>
      <trkpt lat="43.76924" lon="5.26889">
        <ele>282</ele>
        <time>2024-02-11T20:21:10Z</time>
      </trkpt>
      <trkpt lat="43.76909" lon="5.26837">
        <ele>275</ele>
        <time>2024-02-11T20:21:19Z</time>
      </trkpt>
      <trkpt lat="43.76886" lon="5.26788">
        <ele>272</ele>
        <time>2024-02-11T20:21:29Z</time>
      </trkpt>
      <trkpt lat="43.76891" lon="5.26777">
        <ele>269</ele>
        <time>2024-02-11T20:21:31Z</time>
      </trkpt>
      <trkpt lat="43.76914" lon="5.26806">
        <ele>271</ele>
        <time>2024-02-11T20:21:39Z</time>
      </trkpt>
      <trkpt lat="43.76914" lon="5.26792">
        <ele>270</ele>
        <time>2024-02-11T20:21:41Z</time>
      </trkpt>
      <trkpt lat="43.76903" lon="5.2676">
        <ele>267</ele>
        <time>2024-02-11T20:21:47Z</time>
      </trkpt>
      <trkpt lat="43.76876" lon="5.26728">
        <ele>263</ele>
        <time>2024-02-11T20:21:55Z</time>
      </trkpt>
      <trkpt lat="43.76864" lon="5.26697">
        <ele>260</ele>
        <time>2024-02-11T20:22:01Z</time>
      </trkpt>
      <trkpt lat="43.76844" lon="5.26687">
        <ele>255</ele>
        <time>2024-02-11T20:22:06Z</time>
      </trkpt>
      <trkpt lat="43.76823" lon="5.26685">
        <ele>252</ele>
        <time>2024-02-11T20:22:11Z</time>
      </trkpt>
      <trkpt lat="43.76811" lon="5.26674">
        <ele>250</ele>
        <time>2024-02-11T20:22:14Z</time>
      </trkpt>
      <trkpt lat="43.76807" lon="5.26661">
        <ele>248</ele>
        <time>2024-02-11T20:22:17Z</time>
      </trkpt>
      <trkpt lat="43.76812" lon="5.26642">
        <ele>249</ele>
        <time>2024-02-11T20:22:20Z</time>
      </trkpt>
      <trkpt lat="43.768" lon="5.26618">
        <ele>249</ele>
        <time>2024-02-11T20:22:25Z</time>
      </trkpt>
      <trkpt lat="43.76785" lon="5.26607">
        <ele>247</ele>
        <time>2024-02-11T20:22:29Z</time>
      </trkpt>
      <trkpt lat="43.76777" lon="5.26587">
        <ele>246</ele>
        <time>2024-02-11T20:22:33Z</time>
      </trkpt>
      <trkpt lat="43.76766" lon="5.26577">
        <ele>245</ele>
        <time>2024-02-11T20:22:36Z</time>
      </trkpt>
      <trkpt lat="43.76748" lon="5.26567">
        <ele>243</ele>
        <time>2024-02-11T20:22:40Z</time>
      </trkpt>
      <trkpt lat="43.7675" lon="5.26543">
        <ele>244</ele>
        <time>2024-02-11T20:22:45Z</time>
      </trkpt>
      <trkpt lat="43.76747" lon="5.26524">
        <ele>245</ele>
        <time>2024-02-11T20:22:48Z</time>
      </trkpt>
      <trkpt lat="43.76733" lon="5.26514">
        <ele>243</ele>
        <time>2024-02-11T20:22:52Z</time>
      </trkpt>
      <trkpt lat="43.76714" lon="5.26427">
        <ele>243</ele>
        <time>2024-02-11T20:23:07Z</time>
      </trkpt>
      <trkpt lat="43.76721" lon="5.26411">
        <ele>245</ele>
        <time>2024-02-11T20:23:10Z</time>
      </trkpt>
      <trkpt lat="43.76726" lon="5.26441">
        <ele>245</ele>
        <time>2024-02-11T20:23:15Z</time>
      </trkpt>
      <trkpt lat="43.76747" lon="5.26448">
        <ele>250</ele>
        <time>2024-02-11T20:23:20Z</time>
      </trkpt>
      <trkpt lat="43.76753" lon="5.26439">
        <ele>252</ele>
        <time>2024-02-11T20:23:22Z</time>
      </trkpt>
      <trkpt lat="43.76754" lon="5.26381">
        <ele>254</ele>
        <time>2024-02-11T20:23:32Z</time>
      </trkpt>
      <trkpt lat="43.76759" lon="5.26361">
        <ele>256</ele>
        <time>2024-02-11T20:23:36Z</time>
      </trkpt>
      <trkpt lat="43.76771" lon="5.26364">
        <ele>259</ele>
        <time>2024-02-11T20:23:38Z</time>
      </trkpt>
      <trkpt lat="43.76778" lon="5.26355">
        <ele>261</ele>
        <time>2024-02-11T20:23:41Z</time>
      </trkpt>
      <trkpt lat="43.76791" lon="5.26305">
        <ele>267</ele>
        <time>2024-02-11T20:23:50Z</time>
      </trkpt>
      <trkpt lat="43.76804" lon="5.26292">
        <ele>271</ele>
        <time>2024-02-11T20:23:53Z</time>
      </trkpt>
      <trkpt lat="43.76819" lon="5.26226">
        <ele>275</ele>
        <time>2024-02-11T20:24:05Z</time>
      </trkpt>
      <trkpt lat="43.76825" lon="5.26186">
        <ele>275</ele>
        <time>2024-02-11T20:24:12Z</time>
      </trkpt>
      <trkpt lat="43.76835" lon="5.26172">
        <ele>276</ele>
        <time>2024-02-11T20:24:15Z</time>
      </trkpt>
      <trkpt lat="43.76853" lon="5.26193">
        <ele>280</ele>
        <time>2024-02-11T20:24:21Z</time>
      </trkpt>
      <trkpt lat="43.76904" lon="5.26189">
        <ele>286</ele>
        <time>2024-02-11T20:24:33Z</time>
      </trkpt>
      <trkpt lat="43.76917" lon="5.26194">
        <ele>289</ele>
        <time>2024-02-11T20:24:36Z</time>
      </trkpt>
      <trkpt lat="43.76937" lon="5.26194">
        <ele>293</ele>
        <time>2024-02-11T20:24:41Z</time>
      </trkpt>
      <trkpt lat="43.76948" lon="5.26203">
        <ele>296</ele>
        <time>2024-02-11T20:24:44Z</time>
      </trkpt>
      <trkpt lat="43.76959" lon="5.26208">
        <ele>298</ele>
        <time>2024-02-11T20:24:46Z</time>
      </trkpt>
      <trkpt lat="43.76996" lon="5.26217">
        <ele>306</ele>
        <time>2024-02-11T20:24:55Z</time>
      </trkpt>
      <trkpt lat="43.77012" lon="5.26218">
        <ele>309</ele>
        <time>2024-02-11T20:24:59Z</time>
      </trkpt>
      <trkpt lat="43.77023" lon="5.26215">
        <ele>311</ele>
        <time>2024-02-11T20:25:01Z</time>
      </trkpt>
      <trkpt lat="43.77029" lon="5.2621">
        <ele>312</ele>
        <time>2024-02-11T20:25:03Z</time>
      </trkpt>
      <trkpt lat="43.7702" lon="5.26178">
        <ele>310</ele>
        <time>2024-02-11T20:25:09Z</time>
      </trkpt>
      <trkpt lat="43.77012" lon="5.26171">
        <ele>307</ele>
        <time>2024-02-11T20:25:11Z</time>
      </trkpt>
      <trkpt lat="43.76999" lon="5.2615">
        <ele>305</ele>
        <time>2024-02-11T20:25:16Z</time>
      </trkpt>
      <trkpt lat="43.76989" lon="5.26144">
        <ele>302</ele>
        <time>2024-02-11T20:25:18Z</time>
      </trkpt>
      <trkpt lat="43.76985" lon="5.26131">
        <ele>302</ele>
        <time>2024-02-11T20:25:21Z</time>
      </trkpt>
      <trkpt lat="43.76987" lon="5.26118">
        <ele>303</ele>
        <time>2024-02-11T20:25:23Z</time>
      </trkpt>
      <trkpt lat="43.76983" lon="5.26092">
        <ele>303</ele>
        <time>2024-02-11T20:25:27Z</time>
      </trkpt>
      <trkpt lat="43.7699" lon="5.26072">
        <ele>304</ele>
        <time>2024-02-11T20:25:31Z</time>
      </trkpt>
      <trkpt lat="43.76988" lon="5.26061">
        <ele>302</ele>
        <time>2024-02-11T20:25:33Z</time>
      </trkpt>
      <trkpt lat="43.76993" lon="5.26047">
        <ele>301</ele>
        <time>2024-02-11T20:25:36Z</time>
      </trkpt>
      <trkpt lat="43.76994" lon="5.26014">
        <ele>297</ele>
        <time>2024-02-11T20:25:41Z</time>
      </trkpt>
      <trkpt lat="43.77001" lon="5.26">
        <ele>297</ele>
        <time>2024-02-11T20:25:44Z</time>
      </trkpt>
      <trkpt lat="43.77015" lon="5.25994">
        <ele>298</ele>
        <time>2024-02-11T20:25:47Z</time>
      </trkpt>
      <trkpt lat="43.77044" lon="5.2597">
        <ele>298</ele>
        <time>2024-02-11T20:25:55Z</time>
      </trkpt>
      <trkpt lat="43.77049" lon="5.25958">
        <ele>296</ele>
        <time>2024-02-11T20:25:58Z</time>
      </trkpt>
      <trkpt lat="43.77059" lon="5.25952">
        <ele>296</ele>
        <time>2024-02-11T20:26:00Z</time>
      </trkpt>
      <trkpt lat="43.7707" lon="5.25953">
        <ele>298</ele>
        <time>2024-02-11T20:26:03Z</time>
      </trkpt>
      <trkpt lat="43.7708" lon="5.25959">
        <ele>302</ele>
        <time>2024-02-11T20:26:05Z</time>
      </trkpt>
      <trkpt lat="43.77087" lon="5.25958">
        <ele>303</ele>
        <time>2024-02-11T20:26:07Z</time>
      </trkpt>
      <trkpt lat="43.77091" lon="5.25957">
        <ele>303</ele>
        <time>2024-02-11T20:26:08Z</time>
      </trkpt>
      <trkpt lat="43.77092" lon="5.25951">
        <ele>302</ele>
        <time>2024-02-11T20:26:09Z</time>
      </trkpt>
      <trkpt lat="43.77074" lon="5.2593">
        <ele>293</ele>
        <time>2024-02-11T20:26:15Z</time>
      </trkpt>
      <trkpt lat="43.77071" lon="5.25919">
        <ele>290</ele>
        <time>2024-02-11T20:26:16Z</time>
      </trkpt>
      <trkpt lat="43.77066" lon="5.25918">
        <ele>288</ele>
        <time>2024-02-11T20:26:18Z</time>
      </trkpt>
      <trkpt lat="43.77064" lon="5.25913">
        <ele>288</ele>
        <time>2024-02-11T20:26:19Z</time>
      </trkpt>
      <trkpt lat="43.77065" lon="5.25906">
        <ele>289</ele>
        <time>2024-02-11T20:26:20Z</time>
      </trkpt>
      <trkpt lat="43.7706" lon="5.25904">
        <ele>288</ele>
        <time>2024-02-11T20:26:21Z</time>
      </trkpt>
      <trkpt lat="43.77054" lon="5.25906">
        <ele>287</ele>
        <time>2024-02-11T20:26:22Z</time>
      </trkpt>
      <trkpt lat="43.77044" lon="5.25888">
        <ele>287</ele>
        <time>2024-02-11T20:26:26Z</time>
      </trkpt>
      <trkpt lat="43.77041" lon="5.25887">
        <ele>287</ele>
        <time>2024-02-11T20:26:27Z</time>
      </trkpt>
      <trkpt lat="43.77035" lon="5.2589">
        <ele>285</ele>
        <time>2024-02-11T20:26:29Z</time>
      </trkpt>
      <trkpt lat="43.77015" lon="5.25891">
        <ele>282</ele>
        <time>2024-02-11T20:26:33Z</time>
      </trkpt>
      <trkpt lat="43.77004" lon="5.25898">
        <ele>279</ele>
        <time>2024-02-11T20:26:36Z</time>
      </trkpt>
      <trkpt lat="43.76966" lon="5.25914">
        <ele>269</ele>
        <time>2024-02-11T20:26:45Z</time>
      </trkpt>
      <trkpt lat="43.76929" lon="5.25912">
        <ele>261</ele>
        <time>2024-02-11T20:26:54Z</time>
      </trkpt>
      <trkpt lat="43.76921" lon="5.25899">
        <ele>259</ele>
        <time>2024-02-11T20:26:57Z</time>
      </trkpt>
      <trkpt lat="43.76918" lon="5.25882">
        <ele>258</ele>
        <time>2024-02-11T20:27:00Z</time>
      </trkpt>
      <trkpt lat="43.7691" lon="5.25866">
        <ele>256</ele>
        <time>2024-02-11T20:27:03Z</time>
      </trkpt>
      <trkpt lat="43.76905" lon="5.25821">
        <ele>254</ele>
        <time>2024-02-11T20:27:11Z</time>
      </trkpt>
      <trkpt lat="43.76911" lon="5.25784">
        <ele>254</ele>
        <time>2024-02-11T20:27:17Z</time>
      </trkpt>
      <trkpt lat="43.76915" lon="5.25775">
        <ele>254</ele>
        <time>2024-02-11T20:27:19Z</time>
      </trkpt>
      <trkpt lat="43.7693" lon="5.25754">
        <ele>257</ele>
        <time>2024-02-11T20:27:24Z</time>
      </trkpt>
      <trkpt lat="43.76943" lon="5.25743">
        <ele>260</ele>
        <time>2024-02-11T20:27:27Z</time>
      </trkpt>
      <trkpt lat="43.76946" lon="5.25736">
        <ele>260</ele>
        <time>2024-02-11T20:27:29Z</time>
      </trkpt>
      <trkpt lat="43.76957" lon="5.25731">
        <ele>263</ele>
        <time>2024-02-11T20:27:32Z</time>
      </trkpt>
      <trkpt lat="43.76965" lon="5.25722">
        <ele>264</ele>
        <time>2024-02-11T20:27:34Z</time>
      </trkpt>
      <trkpt lat="43.76967" lon="5.25712">
        <ele>263</ele>
        <time>2024-02-11T20:27:36Z</time>
      </trkpt>
      <trkpt lat="43.76984" lon="5.25675">
        <ele>262</ele>
        <time>2024-02-11T20:27:43Z</time>
      </trkpt>
      <trkpt lat="43.76994" lon="5.2566">
        <ele>263</ele>
        <time>2024-02-11T20:27:47Z</time>
      </trkpt>
      <trkpt lat="43.77009" lon="5.25646">
        <ele>267</ele>
        <time>2024-02-11T20:27:51Z</time>
      </trkpt>
      <trkpt lat="43.77013" lon="5.25638">
        <ele>268</ele>
        <time>2024-02-11T20:27:52Z</time>
      </trkpt>
      <trkpt lat="43.77022" lon="5.25629">
        <ele>271</ele>
        <time>2024-02-11T20:27:55Z</time>
      </trkpt>
      <trkpt lat="43.77027" lon="5.25602">
        <ele>270</ele>
        <time>2024-02-11T20:28:00Z</time>
      </trkpt>
      <trkpt lat="43.77027" lon="5.25555">
        <ele>269</ele>
        <time>2024-02-11T20:28:08Z</time>
      </trkpt>
      <trkpt lat="43.77017" lon="5.25552">
        <ele>267</ele>
        <time>2024-02-11T20:28:10Z</time>
      </trkpt>
      <trkpt lat="43.77" lon="5.25542">
        <ele>262</ele>
        <time>2024-02-11T20:28:14Z</time>
      </trkpt>
      <trkpt lat="43.76985" lon="5.25527">
        <ele>259</ele>
        <time>2024-02-11T20:28:19Z</time>
      </trkpt>
      <trkpt lat="43.76977" lon="5.25502">
        <ele>258</ele>
        <time>2024-02-11T20:28:23Z</time>
      </trkpt>
      <trkpt lat="43.76975" lon="5.25476">
        <ele>257</ele>
        <time>2024-02-11T20:28:28Z</time>
      </trkpt>
      <trkpt lat="43.76978" lon="5.25463">
        <ele>257</ele>
        <time>2024-02-11T20:28:30Z</time>
      </trkpt>
      <trkpt lat="43.76986" lon="5.2545">
        <ele>258</ele>
        <time>2024-02-11T20:28:33Z</time>
      </trkpt>
      <trkpt lat="43.76979" lon="5.2542">
        <ele>256</ele>
        <time>2024-02-11T20:28:38Z</time>
      </trkpt>
      <trkpt lat="43.76979" lon="5.25409">
        <ele>255</ele>
        <time>2024-02-11T20:28:40Z</time>
      </trkpt>
      <trkpt lat="43.76993" lon="5.25381">
        <ele>256</ele>
        <time>2024-02-11T20:28:46Z</time>
      </trkpt>
      <trkpt lat="43.76996" lon="5.25366">
        <ele>255</ele>
        <time>2024-02-11T20:28:48Z</time>
      </trkpt>
      <trkpt lat="43.77014" lon="5.25343">
        <ele>258</ele>
        <time>2024-02-11T20:28:54Z</time>
      </trkpt>
      <trkpt lat="43.77017" lon="5.25317">
        <ele>255</ele>
        <time>2024-02-11T20:28:59Z</time>
      </trkpt>
      <trkpt lat="43.77012" lon="5.253">
        <ele>250</ele>
        <time>2024-02-11T20:29:02Z</time>
      </trkpt>
      <trkpt lat="43.77013" lon="5.25285">
        <ele>246</ele>
        <time>2024-02-11T20:29:04Z</time>
      </trkpt>
      <trkpt lat="43.77029" lon="5.25272">
        <ele>248</ele>
        <time>2024-02-11T20:29:09Z</time>
      </trkpt>
      <trkpt lat="43.7705" lon="5.25231">
        <ele>246</ele>
        <time>2024-02-11T20:29:17Z</time>
      </trkpt>
      <trkpt lat="43.77031" lon="5.25238">
        <ele>242</ele>
        <time>2024-02-11T20:29:22Z</time>
      </trkpt>
      <trkpt lat="43.77032" lon="5.2522">
        <ele>240</ele>
        <time>2024-02-11T20:29:25Z</time>
      </trkpt>
      <trkpt lat="43.77037" lon="5.25198">
        <ele>239</ele>
        <time>2024-02-11T20:29:29Z</time>
      </trkpt>
      <trkpt lat="43.77047" lon="5.25183">
        <ele>238</ele>
        <time>2024-02-11T20:29:32Z</time>
      </trkpt>
      <trkpt lat="43.77059" lon="5.25176">
        <ele>238</ele>
        <time>2024-02-11T20:29:35Z</time>
      </trkpt>
      <trkpt lat="43.77077" lon="5.25172">
        <ele>239</ele>
        <time>2024-02-11T20:29:39Z</time>
      </trkpt>
      <trkpt lat="43.77084" lon="5.25173">
        <ele>240</ele>
        <time>2024-02-11T20:29:41Z</time>
      </trkpt>
      <trkpt lat="43.77089" lon="5.25179">
        <ele>242</ele>
        <time>2024-02-11T20:29:42Z</time>
      </trkpt>
      <trkpt lat="43.77093" lon="5.2517">
        <ele>240</ele>
        <time>2024-02-11T20:29:44Z</time>
      </trkpt>
      <trkpt lat="43.77101" lon="5.25176">
        <ele>243</ele>
        <time>2024-02-11T20:29:46Z</time>
      </trkpt>
      <trkpt lat="43.77115" lon="5.25181">
        <ele>246</ele>
        <time>2024-02-11T20:29:50Z</time>
      </trkpt>
      <trkpt lat="43.77126" lon="5.2518">
        <ele>247</ele>
        <time>2024-02-11T20:29:52Z</time>
      </trkpt>
      <trkpt lat="43.77143" lon="5.25183">
        <ele>250</ele>
        <time>2024-02-11T20:29:56Z</time>
      </trkpt>
      <trkpt lat="43.77152" lon="5.25178">
        <ele>250</ele>
        <time>2024-02-11T20:29:59Z</time>
      </trkpt>
      <trkpt lat="43.77155" lon="5.25164">
        <ele>249</ele>
        <time>2024-02-11T20:30:01Z</time>
      </trkpt>
      <trkpt lat="43.77151" lon="5.25159">
        <ele>249</ele>
        <time>2024-02-11T20:30:02Z</time>
      </trkpt>
      <trkpt lat="43.77146" lon="5.25158">
        <ele>249</ele>
        <time>2024-02-11T20:30:03Z</time>
      </trkpt>
      <trkpt lat="43.77138" lon="5.25151">
        <ele>249</ele>
        <time>2024-02-11T20:30:06Z</time>
      </trkpt>
      <trkpt lat="43.77128" lon="5.2515">
        <ele>248</ele>
        <time>2024-02-11T20:30:08Z</time>
      </trkpt>
      <trkpt lat="43.77121" lon="5.25145">
        <ele>248</ele>
        <time>2024-02-11T20:30:10Z</time>
      </trkpt>
      <trkpt lat="43.77102" lon="5.25121">
        <ele>251</ele>
        <time>2024-02-11T20:30:16Z</time>
      </trkpt>
      <trkpt lat="43.77083" lon="5.25104">
        <ele>252</ele>
        <time>2024-02-11T20:30:21Z</time>
      </trkpt>
      <trkpt lat="43.77072" lon="5.25098">
        <ele>254</ele>
        <time>2024-02-11T20:30:24Z</time>
      </trkpt>
      <trkpt lat="43.77032" lon="5.25092">
        <ele>255</ele>
        <time>2024-02-11T20:30:33Z</time>
      </trkpt>
      <trkpt lat="43.77019" lon="5.25094">
        <ele>254</ele>
        <time>2024-02-11T20:30:36Z</time>
      </trkpt>
      <trkpt lat="43.76983" lon="5.25109">
        <ele>249</ele>
        <time>2024-02-11T20:30:45Z</time>
      </trkpt>
      <trkpt lat="43.76961" lon="5.25098">
        <ele>252</ele>
        <time>2024-02-11T20:30:51Z</time>
      </trkpt>
      <trkpt lat="43.76936" lon="5.25097">
        <ele>251</ele>
        <time>2024-02-11T20:30:56Z</time>
      </trkpt>
      <trkpt lat="43.76921" lon="5.25082">
        <ele>253</ele>
        <time>2024-02-11T20:31:01Z</time>
      </trkpt>
      <trkpt lat="43.76921" lon="5.25069">
        <ele>254</ele>
        <time>2024-02-11T20:31:03Z</time>
      </trkpt>
      <trkpt lat="43.76925" lon="5.25061">
        <ele>255</ele>
        <time>2024-02-11T20:31:05Z</time>
      </trkpt>
      <trkpt lat="43.76924" lon="5.25048">
        <ele>255</ele>
        <time>2024-02-11T20:31:07Z</time>
      </trkpt>
      <trkpt lat="43.76929" lon="5.25035">
        <ele>256</ele>
        <time>2024-02-11T20:31:09Z</time>
      </trkpt>
      <trkpt lat="43.76926" lon="5.25016">
        <ele>257</ele>
        <time>2024-02-11T20:31:13Z</time>
      </trkpt>
      <trkpt lat="43.76927" lon="5.24965">
        <ele>259</ele>
        <time>2024-02-11T20:31:21Z</time>
      </trkpt>
      <trkpt lat="43.76957" lon="5.24921">
        <ele>261</ele>
        <time>2024-02-11T20:31:31Z</time>
      </trkpt>
      <trkpt lat="43.76961" lon="5.2491">
        <ele>262</ele>
        <time>2024-02-11T20:31:33Z</time>
      </trkpt>
      <trkpt lat="43.76967" lon="5.24875">
        <ele>261</ele>
        <time>2024-02-11T20:31:40Z</time>
      </trkpt>
      <trkpt lat="43.76966" lon="5.24871">
        <ele>261</ele>
        <time>2024-02-11T20:31:40Z</time>
      </trkpt>
      <trkpt lat="43.76959" lon="5.24867">
        <ele>261</ele>
        <time>2024-02-11T20:31:42Z</time>
      </trkpt>
      <trkpt lat="43.76956" lon="5.24861">
        <ele>260</ele>
        <time>2024-02-11T20:31:43Z</time>
      </trkpt>
      <trkpt lat="43.7696" lon="5.24848">
        <ele>260</ele>
        <time>2024-02-11T20:31:46Z</time>
      </trkpt>
      <trkpt lat="43.76968" lon="5.24839">
        <ele>261</ele>
        <time>2024-02-11T20:31:48Z</time>
      </trkpt>
      <trkpt lat="43.76969" lon="5.24832">
        <ele>260</ele>
        <time>2024-02-11T20:31:49Z</time>
      </trkpt>
      <trkpt lat="43.76965" lon="5.24825">
        <ele>260</ele>
        <time>2024-02-11T20:31:51Z</time>
      </trkpt>
      <trkpt lat="43.76951" lon="5.24768">
        <ele>256</ele>
        <time>2024-02-11T20:32:01Z</time>
      </trkpt>
      <trkpt lat="43.76945" lon="5.24753">
        <ele>255</ele>
        <time>2024-02-11T20:32:04Z</time>
      </trkpt>
      <trkpt lat="43.76936" lon="5.2474">
        <ele>254</ele>
        <time>2024-02-11T20:32:07Z</time>
      </trkpt>
      <trkpt lat="43.76924" lon="5.24704">
        <ele>250</ele>
        <time>2024-02-11T20:32:13Z</time>
      </trkpt>
      <trkpt lat="43.76934" lon="5.24688">
        <ele>250</ele>
        <time>2024-02-11T20:32:17Z</time>
      </trkpt>
      <trkpt lat="43.76947" lon="5.24649">
        <ele>250</ele>
        <time>2024-02-11T20:32:24Z</time>
      </trkpt>
      <trkpt lat="43.76947" lon="5.24641">
        <ele>250</ele>
        <time>2024-02-11T20:32:26Z</time>
      </trkpt>
      <trkpt lat="43.76944" lon="5.24635">
        <ele>250</ele>
        <time>2024-02-11T20:32:27Z</time>
      </trkpt>
      <trkpt lat="43.76933" lon="5.24629">
        <ele>249</ele>
        <time>2024-02-11T20:32:30Z</time>
      </trkpt>
      <trkpt lat="43.76919" lon="5.24617">
        <ele>247</ele>
        <time>2024-02-11T20:32:33Z</time>
      </trkpt>
      <trkpt lat="43.76906" lon="5.24616">
        <ele>246</ele>
        <time>2024-02-11T20:32:37Z</time>
      </trkpt>
      <trkpt lat="43.76896" lon="5.24606">
        <ele>245</ele>
        <time>2024-02-11T20:32:39Z</time>
      </trkpt>
      <trkpt lat="43.76877" lon="5.24602">
        <ele>244</ele>
        <time>2024-02-11T20:32:44Z</time>
      </trkpt>
      <trkpt lat="43.76867" lon="5.24588">
        <ele>243</ele>
        <time>2024-02-11T20:32:47Z</time>
      </trkpt>
      <trkpt lat="43.76862" lon="5.24576">
        <ele>242</ele>
        <time>2024-02-11T20:32:50Z</time>
      </trkpt>
      <trkpt lat="43.76847" lon="5.24567">
        <ele>241</ele>
        <time>2024-02-11T20:32:53Z</time>
      </trkpt>
      <trkpt lat="43.76839" lon="5.24557">
        <ele>240</ele>
        <time>2024-02-11T20:32:56Z</time>
      </trkpt>
      <trkpt lat="43.76832" lon="5.24564">
        <ele>240</ele>
        <time>2024-02-11T20:32:58Z</time>
      </trkpt>
      <trkpt lat="43.7683" lon="5.24572">
        <ele>240</ele>
        <time>2024-02-11T20:32:59Z</time>
      </trkpt>
      <trkpt lat="43.76835" lon="5.24599">
        <ele>241</ele>
        <time>2024-02-11T20:33:04Z</time>
      </trkpt>
      <trkpt lat="43.76834" lon="5.24606">
        <ele>241</ele>
        <time>2024-02-11T20:33:05Z</time>
      </trkpt>
      <trkpt lat="43.76832" lon="5.24609">
        <ele>241</ele>
        <time>2024-02-11T20:33:06Z</time>
      </trkpt>
      <trkpt lat="43.76822" lon="5.24604">
        <ele>241</ele>
        <time>2024-02-11T20:33:08Z</time>
      </trkpt>
      <trkpt lat="43.76809" lon="5.24609">
        <ele>241</ele>
        <time>2024-02-11T20:33:12Z</time>
      </trkpt>
      <trkpt lat="43.76804" lon="5.24621">
        <ele>242</ele>
        <time>2024-02-11T20:33:14Z</time>
      </trkpt>
      <trkpt lat="43.76805" lon="5.24627">
        <ele>242</ele>
        <time>2024-02-11T20:33:15Z</time>
      </trkpt>
      <trkpt lat="43.76803" lon="5.24628">
        <ele>242</ele>
        <time>2024-02-11T20:33:15Z</time>
      </trkpt>
      <trkpt lat="43.76784" lon="5.24631">
        <ele>242</ele>
        <time>2024-02-11T20:33:20Z</time>
      </trkpt>
      <trkpt lat="43.76763" lon="5.2462">
        <ele>242</ele>
        <time>2024-02-11T20:33:25Z</time>
      </trkpt>
      <trkpt lat="43.76757" lon="5.24614">
        <ele>241</ele>
        <time>2024-02-11T20:33:27Z</time>
      </trkpt>
      <trkpt lat="43.76749" lon="5.24613">
        <ele>241</ele>
        <time>2024-02-11T20:33:29Z</time>
      </trkpt>
      <trkpt lat="43.76742" lon="5.24604">
        <ele>241</ele>
        <time>2024-02-11T20:33:31Z</time>
      </trkpt>
      <trkpt lat="43.76735" lon="5.24589">
        <ele>241</ele>
        <time>2024-02-11T20:33:34Z</time>
      </trkpt>
      <trkpt lat="43.76731" lon="5.24586">
        <ele>241</ele>
        <time>2024-02-11T20:33:35Z</time>
      </trkpt>
      <trkpt lat="43.76721" lon="5.24584">
        <ele>243</ele>
        <time>2024-02-11T20:33:37Z</time>
      </trkpt>
      <trkpt lat="43.76715" lon="5.24586">
        <ele>243</ele>
        <time>2024-02-11T20:33:39Z</time>
      </trkpt>
      <trkpt lat="43.76711" lon="5.24583">
        <ele>244</ele>
        <time>2024-02-11T20:33:40Z</time>
      </trkpt>
      <trkpt lat="43.76694" lon="5.24591">
        <ele>246</ele>
        <time>2024-02-11T20:33:44Z</time>
      </trkpt>
      <trkpt lat="43.76665" lon="5.24576">
        <ele>248</ele>
        <time>2024-02-11T20:33:51Z</time>
      </trkpt>
      <trkpt lat="43.76655" lon="5.24577">
        <ele>249</ele>
        <time>2024-02-11T20:33:54Z</time>
      </trkpt>
      <trkpt lat="43.76649" lon="5.24582">
        <ele>250</ele>
        <time>2024-02-11T20:33:55Z</time>
      </trkpt>
      <trkpt lat="43.76642" lon="5.24583">
        <ele>250</ele>
        <time>2024-02-11T20:33:57Z</time>
      </trkpt>
      <trkpt lat="43.76637" lon="5.24588">
        <ele>250</ele>
        <time>2024-02-11T20:33:58Z</time>
      </trkpt>
      <trkpt lat="43.76629" lon="5.24591">
        <ele>251</ele>
        <time>2024-02-11T20:34:00Z</time>
      </trkpt>
      <trkpt lat="43.76617" lon="5.24606">
        <ele>251</ele>
        <time>2024-02-11T20:34:04Z</time>
      </trkpt>
      <trkpt lat="43.76612" lon="5.24605">
        <ele>252</ele>
        <time>2024-02-11T20:34:05Z</time>
      </trkpt>
      <trkpt lat="43.76603" lon="5.24582">
        <ele>251</ele>
        <time>2024-02-11T20:34:10Z</time>
      </trkpt>
      <trkpt lat="43.76602" lon="5.24567">
        <ele>250</ele>
        <time>2024-02-11T20:34:12Z</time>
      </trkpt>
      <trkpt lat="43.76584" lon="5.24529">
        <ele>247</ele>
        <time>2024-02-11T20:34:20Z</time>
      </trkpt>
      <trkpt lat="43.76582" lon="5.24517">
        <ele>247</ele>
        <time>2024-02-11T20:34:22Z</time>
      </trkpt>
      <trkpt lat="43.76567" lon="5.24498">
        <ele>247</ele>
        <time>2024-02-11T20:34:27Z</time>
      </trkpt>
      <trkpt lat="43.76562" lon="5.24483">
        <ele>246</ele>
        <time>2024-02-11T20:34:30Z</time>
      </trkpt>
      <trkpt lat="43.76558" lon="5.24478">
        <ele>246</ele>
        <time>2024-02-11T20:34:31Z</time>
      </trkpt>
      <trkpt lat="43.76556" lon="5.24463">
        <ele>245</ele>
        <time>2024-02-11T20:34:33Z</time>
      </trkpt>
      <trkpt lat="43.76547" lon="5.24435">
        <ele>244</ele>
        <time>2024-02-11T20:34:39Z</time>
      </trkpt>
      <trkpt lat="43.76541" lon="5.24433">
        <ele>244</ele>
        <time>2024-02-11T20:34:40Z</time>
      </trkpt>
      <trkpt lat="43.76536" lon="5.24425">
        <ele>243</ele>
        <time>2024-02-11T20:34:42Z</time>
      </trkpt>
      <trkpt lat="43.76539" lon="5.24388">
        <ele>239</ele>
        <time>2024-02-11T20:34:48Z</time>
      </trkpt>
      <trkpt lat="43.76536" lon="5.24372">
        <ele>237</ele>
        <time>2024-02-11T20:34:51Z</time>
      </trkpt>
      <trkpt lat="43.76525" lon="5.24345">
        <ele>233</ele>
        <time>2024-02-11T20:34:56Z</time>
      </trkpt>
      <trkpt lat="43.76526" lon="5.24325">
        <ele>231</ele>
        <time>2024-02-11T20:34:59Z</time>
      </trkpt>
      <trkpt lat="43.76519" lon="5.24305">
        <ele>229</ele>
        <time>2024-02-11T20:35:03Z</time>
      </trkpt>
      <trkpt lat="43.76523" lon="5.24282">
        <ele>227</ele>
        <time>2024-02-11T20:35:07Z</time>
      </trkpt>
      <trkpt lat="43.76509" lon="5.24243">
        <ele>223</ele>
        <time>2024-02-11T20:35:15Z</time>
      </trkpt>
      <trkpt lat="43.765" lon="5.24208">
        <ele>218</ele>
        <time>2024-02-11T20:35:21Z</time>
      </trkpt>
      <trkpt lat="43.76507" lon="5.24162">
        <ele>213</ele>
        <time>2024-02-11T20:35:29Z</time>
      </trkpt>
      <trkpt lat="43.76517" lon="5.24119">
        <ele>205</ele>
        <time>2024-02-11T20:35:36Z</time>
      </trkpt>
      <trkpt lat="43.76515" lon="5.24109">
        <ele>204</ele>
        <time>2024-02-11T20:35:38Z</time>
      </trkpt>
      <trkpt lat="43.76511" lon="5.24102">
        <ele>202</ele>
        <time>2024-02-11T20:35:40Z</time>
      </trkpt>
      <trkpt lat="43.76475" lon="5.2408">
        <ele>200</ele>
        <time>2024-02-11T20:35:49Z</time>
      </trkpt>
      <trkpt lat="43.76467" lon="5.24069">
        <ele>199</ele>
        <time>2024-02-11T20:35:51Z</time>
      </trkpt>
      <trkpt lat="43.76457" lon="5.24041">
        <ele>196</ele>
        <time>2024-02-11T20:35:57Z</time>
      </trkpt>
      <trkpt lat="43.76459" lon="5.24034">
        <ele>195</ele>
        <time>2024-02-11T20:35:58Z</time>
      </trkpt>
      <trkpt lat="43.7648" lon="5.24011">
        <ele>192</ele>
        <time>2024-02-11T20:36:04Z</time>
      </trkpt>
      <trkpt lat="43.76503" lon="5.24003">
        <ele>193</ele>
        <time>2024-02-11T20:36:10Z</time>
      </trkpt>
      <trkpt lat="43.76515" lon="5.23993">
        <ele>194</ele>
        <time>2024-02-11T20:36:13Z</time>
      </trkpt>
      <trkpt lat="43.76526" lon="5.23972">
        <ele>197</ele>
        <time>2024-02-11T20:36:17Z</time>
      </trkpt>
      <trkpt lat="43.76532" lon="5.23936">
        <ele>201</ele>
        <time>2024-02-11T20:36:24Z</time>
      </trkpt>
      <trkpt lat="43.76548" lon="5.23914">
        <ele>202</ele>
        <time>2024-02-11T20:36:29Z</time>
      </trkpt>
      <trkpt lat="43.76558" lon="5.23909">
        <ele>202</ele>
        <time>2024-02-11T20:36:31Z</time>
      </trkpt>
      <trkpt lat="43.76568" lon="5.23909">
        <ele>202</ele>
        <time>2024-02-11T20:36:34Z</time>
      </trkpt>
      <trkpt lat="43.76583" lon="5.23904">
        <ele>202</ele>
        <time>2024-02-11T20:36:37Z</time>
      </trkpt>
      <trkpt lat="43.76594" lon="5.23893">
        <ele>204</ele>
        <time>2024-02-11T20:36:40Z</time>
      </trkpt>
      <trkpt lat="43.76598" lon="5.23891">
        <ele>205</ele>
        <time>2024-02-11T20:36:41Z</time>
      </trkpt>
      <trkpt lat="43.76611" lon="5.23891">
        <ele>206</ele>
        <time>2024-02-11T20:36:44Z</time>
      </trkpt>
      <trkpt lat="43.76622" lon="5.23885">
        <ele>207</ele>
        <time>2024-02-11T20:36:47Z</time>
      </trkpt>
      <trkpt lat="43.76629" lon="5.23877">
        <ele>208</ele>
        <time>2024-02-11T20:36:49Z</time>
      </trkpt>
      <trkpt lat="43.76632" lon="5.23872">
        <ele>209</ele>
        <time>2024-02-11T20:36:50Z</time>
      </trkpt>
      <trkpt lat="43.76633" lon="5.23854">
        <ele>209</ele>
        <time>2024-02-11T20:36:54Z</time>
      </trkpt>
      <trkpt lat="43.76645" lon="5.23837">
        <ele>209</ele>
        <time>2024-02-11T20:36:58Z</time>
      </trkpt>
      <trkpt lat="43.76644" lon="5.23832">
        <ele>209</ele>
        <time>2024-02-11T20:36:58Z</time>
      </trkpt>
      <trkpt lat="43.76656" lon="5.23794">
        <ele>212</ele>
        <time>2024-02-11T20:37:05Z</time>
      </trkpt>
      <trkpt lat="43.76659" lon="5.23761">
        <ele>214</ele>
        <time>2024-02-11T20:37:11Z</time>
      </trkpt>
      <trkpt lat="43.76679" lon="5.23739">
        <ele>217</ele>
        <time>2024-02-11T20:37:17Z</time>
      </trkpt>
      <trkpt lat="43.76686" lon="5.23725">
        <ele>218</ele>
        <time>2024-02-11T20:37:20Z</time>
      </trkpt>
      <trkpt lat="43.76698" lon="5.23711">
        <ele>219</ele>
        <time>2024-02-11T20:37:23Z</time>
      </trkpt>
      <trkpt lat="43.76701" lon="5.23701">
        <ele>220</ele>
        <time>2024-02-11T20:37:25Z</time>
      </trkpt>
      <trkpt lat="43.76699" lon="5.23693">
        <ele>220</ele>
        <time>2024-02-11T20:37:27Z</time>
      </trkpt>
      <trkpt lat="43.76696" lon="5.23691">
        <ele>220</ele>
        <time>2024-02-11T20:37:28Z</time>
      </trkpt>
      <trkpt lat="43.76684" lon="5.23696">
        <ele>220</ele>
        <time>2024-02-11T20:37:30Z</time>
      </trkpt>
      <trkpt lat="43.76678" lon="5.23702">
        <ele>219</ele>
        <time>2024-02-11T20:37:32Z</time>
      </trkpt>
      <trkpt lat="43.7667" lon="5.23703">
        <ele>219</ele>
        <time>2024-02-11T20:37:34Z</time>
      </trkpt>
      <trkpt lat="43.76665" lon="5.237">
        <ele>219</ele>
        <time>2024-02-11T20:37:35Z</time>
      </trkpt>
      <trkpt lat="43.76656" lon="5.23677">
        <ele>220</ele>
        <time>2024-02-11T20:37:40Z</time>
      </trkpt>
      <trkpt lat="43.76639" lon="5.23668">
        <ele>221</ele>
        <time>2024-02-11T20:37:44Z</time>
      </trkpt>
      <trkpt lat="43.76632" lon="5.23658">
        <ele>221</ele>
        <time>2024-02-11T20:37:46Z</time>
      </trkpt>
      <trkpt lat="43.76619" lon="5.23629">
        <ele>223</ele>
        <time>2024-02-11T20:37:52Z</time>
      </trkpt>
      <trkpt lat="43.76614" lon="5.23612">
        <ele>224</ele>
        <time>2024-02-11T20:37:55Z</time>
      </trkpt>
      <trkpt lat="43.76599" lon="5.23597">
        <ele>224</ele>
        <time>2024-02-11T20:38:00Z</time>
      </trkpt>
      <trkpt lat="43.76586" lon="5.23544">
        <ele>227</ele>
        <time>2024-02-11T20:38:09Z</time>
      </trkpt>
      <trkpt lat="43.76579" lon="5.23531">
        <ele>228</ele>
        <time>2024-02-11T20:38:12Z</time>
      </trkpt>
      <trkpt lat="43.76578" lon="5.23511">
        <ele>229</ele>
        <time>2024-02-11T20:38:15Z</time>
      </trkpt>
      <trkpt lat="43.76571" lon="5.23502">
        <ele>230</ele>
        <time>2024-02-11T20:38:17Z</time>
      </trkpt>
      <trkpt lat="43.76567" lon="5.2349">
        <ele>231</ele>
        <time>2024-02-11T20:38:20Z</time>
      </trkpt>
      <trkpt lat="43.76557" lon="5.23488">
        <ele>231</ele>
        <time>2024-02-11T20:38:22Z</time>
      </trkpt>
      <trkpt lat="43.76554" lon="5.23484">
        <ele>231</ele>
        <time>2024-02-11T20:38:23Z</time>
      </trkpt>
      <trkpt lat="43.76561" lon="5.23453">
        <ele>233</ele>
        <time>2024-02-11T20:38:28Z</time>
      </trkpt>
      <trkpt lat="43.7655" lon="5.23431">
        <ele>234</ele>
        <time>2024-02-11T20:38:33Z</time>
      </trkpt>
      <trkpt lat="43.76554" lon="5.23418">
        <ele>235</ele>
        <time>2024-02-11T20:38:35Z</time>
      </trkpt>
      <trkpt lat="43.76556" lon="5.23395">
        <ele>236</ele>
        <time>2024-02-11T20:38:39Z</time>
      </trkpt>
      <trkpt lat="43.76567" lon="5.23383">
        <ele>236</ele>
        <time>2024-02-11T20:38:42Z</time>
      </trkpt>
      <trkpt lat="43.76584" lon="5.23345">
        <ele>237</ele>
        <time>2024-02-11T20:38:50Z</time>
      </trkpt>
      <trkpt lat="43.76595" lon="5.23331">
        <ele>238</ele>
        <time>2024-02-11T20:38:53Z</time>
      </trkpt>
      <trkpt lat="43.766" lon="5.23309">
        <ele>239</ele>
        <time>2024-02-11T20:38:57Z</time>
      </trkpt>
      <trkpt lat="43.76607" lon="5.23292">
        <ele>240</ele>
        <time>2024-02-11T20:39:01Z</time>
      </trkpt>
      <trkpt lat="43.76635" lon="5.23262">
        <ele>241</ele>
        <time>2024-02-11T20:39:09Z</time>
      </trkpt>
      <trkpt lat="43.7664" lon="5.23245">
        <ele>241</ele>
        <time>2024-02-11T20:39:12Z</time>
      </trkpt>
      <trkpt lat="43.76661" lon="5.23217">
        <ele>240</ele>
        <time>2024-02-11T20:39:19Z</time>
      </trkpt>
      <trkpt lat="43.76664" lon="5.23192">
        <ele>240</ele>
        <time>2024-02-11T20:39:23Z</time>
      </trkpt>
      <trkpt lat="43.76667" lon="5.23186">
        <ele>239</ele>
        <time>2024-02-11T20:39:24Z</time>
      </trkpt>
      <trkpt lat="43.76679" lon="5.23184">
        <ele>239</ele>
        <time>2024-02-11T20:39:27Z</time>
      </trkpt>
      <trkpt lat="43.76695" lon="5.23162">
        <ele>238</ele>
        <time>2024-02-11T20:39:32Z</time>
      </trkpt>
      <trkpt lat="43.76719" lon="5.23151">
        <ele>236</ele>
        <time>2024-02-11T20:39:38Z</time>
      </trkpt>
      <trkpt lat="43.7674" lon="5.23135">
        <ele>233</ele>
        <time>2024-02-11T20:39:44Z</time>
      </trkpt>
      <trkpt lat="43.76751" lon="5.23139">
        <ele>234</ele>
        <time>2024-02-11T20:39:47Z</time>
      </trkpt>
      <trkpt lat="43.76769" lon="5.2314">
        <ele>234</ele>
        <time>2024-02-11T20:39:51Z</time>
      </trkpt>
      <trkpt lat="43.76774" lon="5.23143">
        <ele>235</ele>
        <time>2024-02-11T20:39:52Z</time>
      </trkpt>
      <trkpt lat="43.76781" lon="5.23141">
        <ele>234</ele>
        <time>2024-02-11T20:39:54Z</time>
      </trkpt>
      <trkpt lat="43.7679" lon="5.23132">
        <ele>233</ele>
        <time>2024-02-11T20:39:56Z</time>
      </trkpt>
      <trkpt lat="43.76794" lon="5.23122">
        <ele>231</ele>
        <time>2024-02-11T20:39:58Z</time>
      </trkpt>
      <trkpt lat="43.76808" lon="5.23114">
        <ele>230</ele>
        <time>2024-02-11T20:40:02Z</time>
      </trkpt>
      <trkpt lat="43.76824" lon="5.23094">
        <ele>226</ele>
        <time>2024-02-11T20:40:07Z</time>
      </trkpt>
      <trkpt lat="43.76838" lon="5.23088">
        <ele>225</ele>
        <time>2024-02-11T20:40:10Z</time>
      </trkpt>
      <trkpt lat="43.76838" lon="5.23084">
        <ele>224</ele>
        <time>2024-02-11T20:40:11Z</time>
      </trkpt>
      <trkpt lat="43.76833" lon="5.23081">
        <ele>224</ele>
        <time>2024-02-11T20:40:12Z</time>
      </trkpt>
      <trkpt lat="43.76836" lon="5.23076">
        <ele>224</ele>
        <time>2024-02-11T20:40:13Z</time>
      </trkpt>
      <trkpt lat="43.7686" lon="5.23063">
        <ele>224</ele>
        <time>2024-02-11T20:40:19Z</time>
      </trkpt>
      <trkpt lat="43.76868" lon="5.23061">
        <ele>224</ele>
        <time>2024-02-11T20:40:21Z</time>
      </trkpt>
      <trkpt lat="43.76874" lon="5.23056">
        <ele>224</ele>
        <time>2024-02-11T20:40:23Z</time>
      </trkpt>
      <trkpt lat="43.76876" lon="5.2305">
        <ele>224</ele>
        <time>2024-02-11T20:40:24Z</time>
      </trkpt>
      <trkpt lat="43.76865" lon="5.23042">
        <ele>223</ele>
        <time>2024-02-11T20:40:27Z</time>
      </trkpt>
      <trkpt lat="43.76855" lon="5.23044">
        <ele>222</ele>
        <time>2024-02-11T20:40:29Z</time>
      </trkpt>
      <trkpt lat="43.76828" lon="5.23038">
        <ele>221</ele>
        <time>2024-02-11T20:40:36Z</time>
      </trkpt>
      <trkpt lat="43.76814" lon="5.23025">
        <ele>220</ele>
        <time>2024-02-11T20:40:40Z</time>
      </trkpt>
      <trkpt lat="43.76803" lon="5.23025">
        <ele>220</ele>
        <time>2024-02-11T20:40:42Z</time>
      </trkpt>
      <trkpt lat="43.76775" lon="5.22999">
        <ele>217</ele>
        <time>2024-02-11T20:40:50Z</time>
      </trkpt>
      <trkpt lat="43.76761" lon="5.22997">
        <ele>217</ele>
        <time>2024-02-11T20:40:53Z</time>
      </trkpt>
      <trkpt lat="43.76733" lon="5.22999">
        <ele>215</ele>
        <time>2024-02-11T20:41:00Z</time>
      </trkpt>
      <trkpt lat="43.76697" lon="5.22988">
        <ele>216</ele>
        <time>2024-02-11T20:41:08Z</time>
      </trkpt>
      <trkpt lat="43.76687" lon="5.22992">
        <ele>214</ele>
        <time>2024-02-11T20:41:11Z</time>
      </trkpt>
      <trkpt lat="43.76673" lon="5.23002">
        <ele>213</ele>
        <time>2024-02-11T20:41:15Z</time>
      </trkpt>
      <trkpt lat="43.76661" lon="5.23018">
        <ele>214</ele>
        <time>2024-02-11T20:41:18Z</time>
      </trkpt>
      <trkpt lat="43.76644" lon="5.23027">
        <ele>215</ele>
        <time>2024-02-11T20:41:23Z</time>
      </trkpt>
      <trkpt lat="43.76635" lon="5.23029">
        <ele>215</ele>
        <time>2024-02-11T20:41:25Z</time>
      </trkpt>
      <trkpt lat="43.76622" lon="5.23018">
        <ele>212</ele>
        <time>2024-02-11T20:41:28Z</time>
      </trkpt>
      <trkpt lat="43.76615" lon="5.22994">
        <ele>208</ele>
        <time>2024-02-11T20:41:33Z</time>
      </trkpt>
      <trkpt lat="43.76615" lon="5.22984">
        <ele>210</ele>
        <time>2024-02-11T20:41:34Z</time>
      </trkpt>
      <trkpt lat="43.76612" lon="5.22977">
        <ele>210</ele>
        <time>2024-02-11T20:41:36Z</time>
      </trkpt>
      <trkpt lat="43.76607" lon="5.22974">
        <ele>210</ele>
        <time>2024-02-11T20:41:37Z</time>
      </trkpt>
      <trkpt lat="43.76597" lon="5.22975">
        <ele>209</ele>
        <time>2024-02-11T20:41:39Z</time>
      </trkpt>
      <trkpt lat="43.76586" lon="5.22983">
        <ele>207</ele>
        <time>2024-02-11T20:41:42Z</time>
      </trkpt>
      <trkpt lat="43.76578" lon="5.23004">
        <ele>205</ele>
        <time>2024-02-11T20:41:46Z</time>
      </trkpt>
      <trkpt lat="43.76564" lon="5.23021">
        <ele>208</ele>
        <time>2024-02-11T20:41:51Z</time>
      </trkpt>
      <trkpt lat="43.76549" lon="5.23026">
        <ele>208</ele>
        <time>2024-02-11T20:41:54Z</time>
      </trkpt>
      <trkpt lat="43.76531" lon="5.23018">
        <ele>204</ele>
        <time>2024-02-11T20:41:59Z</time>
      </trkpt>
      <trkpt lat="43.76503" lon="5.22999">
        <ele>196</ele>
        <time>2024-02-11T20:42:06Z</time>
      </trkpt>
      <trkpt lat="43.76493" lon="5.22995">
        <ele>196</ele>
        <time>2024-02-11T20:42:08Z</time>
      </trkpt>
      <trkpt lat="43.76484" lon="5.22993">
        <ele>196</ele>
        <time>2024-02-11T20:42:10Z</time>
      </trkpt>
      <trkpt lat="43.76468" lon="5.22994">
        <ele>194</ele>
        <time>2024-02-11T20:42:14Z</time>
      </trkpt>
      <trkpt lat="43.76446" lon="5.23003">
        <ele>192</ele>
        <time>2024-02-11T20:42:20Z</time>
      </trkpt>
      <trkpt lat="43.7642" lon="5.23019">
        <ele>191</ele>
        <time>2024-02-11T20:42:26Z</time>
      </trkpt>
      <trkpt lat="43.76374" lon="5.23085">
        <ele>190</ele>
        <time>2024-02-11T20:42:42Z</time>
      </trkpt>
      <trkpt lat="43.76355" lon="5.23093">
        <ele>187</ele>
        <time>2024-02-11T20:42:46Z</time>
      </trkpt>
      <trkpt lat="43.76345" lon="5.23101">
        <ele>186</ele>
        <time>2024-02-11T20:42:49Z</time>
      </trkpt>
      <trkpt lat="43.76298" lon="5.23172">
        <ele>183</ele>
        <time>2024-02-11T20:43:05Z</time>
      </trkpt>
      <trkpt lat="43.76279" lon="5.23194">
        <ele>183</ele>
        <time>2024-02-11T20:43:11Z</time>
      </trkpt>
      <trkpt lat="43.7627" lon="5.23201">
        <ele>182</ele>
        <time>2024-02-11T20:43:13Z</time>
      </trkpt>
      <trkpt lat="43.76259" lon="5.23204">
        <ele>181</ele>
        <time>2024-02-11T20:43:16Z</time>
      </trkpt>
      <trkpt lat="43.76248" lon="5.23205">
        <ele>179</ele>
        <time>2024-02-11T20:43:19Z</time>
      </trkpt>
      <trkpt lat="43.76233" lon="5.23199">
        <ele>180</ele>
        <time>2024-02-11T20:43:22Z</time>
      </trkpt>
      <trkpt lat="43.76229" lon="5.23201">
        <ele>180</ele>
        <time>2024-02-11T20:43:23Z</time>
      </trkpt>
      <trkpt lat="43.76218" lon="5.23215">
        <ele>179</ele>
        <time>2024-02-11T20:43:27Z</time>
      </trkpt>
      <trkpt lat="43.76211" lon="5.23231">
        <ele>178</ele>
        <time>2024-02-11T20:43:30Z</time>
      </trkpt>
      <trkpt lat="43.76206" lon="5.23228">
        <ele>178</ele>
        <time>2024-02-11T20:43:31Z</time>
      </trkpt>
      <trkpt lat="43.76205" lon="5.23212">
        <ele>179</ele>
        <time>2024-02-11T20:43:34Z</time>
      </trkpt>
      <trkpt lat="43.76214" lon="5.23181">
        <ele>181</ele>
        <time>2024-02-11T20:43:40Z</time>
      </trkpt>
      <trkpt lat="43.76214" lon="5.23165">
        <ele>182</ele>
        <time>2024-02-11T20:43:42Z</time>
      </trkpt>
      <trkpt lat="43.76206" lon="5.23147">
        <ele>185</ele>
        <time>2024-02-11T20:43:46Z</time>
      </trkpt>
      <trkpt lat="43.76185" lon="5.23118">
        <ele>189</ele>
        <time>2024-02-11T20:43:53Z</time>
      </trkpt>
      <trkpt lat="43.76167" lon="5.2308">
        <ele>194</ele>
        <time>2024-02-11T20:44:00Z</time>
      </trkpt>
      <trkpt lat="43.76164" lon="5.23062">
        <ele>198</ele>
        <time>2024-02-11T20:44:04Z</time>
      </trkpt>
      <trkpt lat="43.76167" lon="5.23046">
        <ele>199</ele>
        <time>2024-02-11T20:44:06Z</time>
      </trkpt>
      <trkpt lat="43.76176" lon="5.23032">
        <ele>199</ele>
        <time>2024-02-11T20:44:09Z</time>
      </trkpt>
      <trkpt lat="43.76198" lon="5.2303">
        <ele>196</ele>
        <time>2024-02-11T20:44:15Z</time>
      </trkpt>
      <trkpt lat="43.76217" lon="5.23025">
        <ele>194</ele>
        <time>2024-02-11T20:44:19Z</time>
      </trkpt>
      <trkpt lat="43.7623" lon="5.23027">
        <ele>191</ele>
        <time>2024-02-11T20:44:22Z</time>
      </trkpt>
      <trkpt lat="43.76239" lon="5.23023">
        <ele>190</ele>
        <time>2024-02-11T20:44:24Z</time>
      </trkpt>
      <trkpt lat="43.76264" lon="5.22992">
        <ele>189</ele>
        <time>2024-02-11T20:44:32Z</time>
      </trkpt>
      <trkpt lat="43.76285" lon="5.22959">
        <ele>192</ele>
        <time>2024-02-11T20:44:40Z</time>
      </trkpt>
      <trkpt lat="43.76295" lon="5.22936">
        <ele>194</ele>
        <time>2024-02-11T20:44:44Z</time>
      </trkpt>
      <trkpt lat="43.76319" lon="5.22898">
        <ele>195</ele>
        <time>2024-02-11T20:44:53Z</time>
      </trkpt>
      <trkpt lat="43.76326" lon="5.22879">
        <ele>196</ele>
        <time>2024-02-11T20:44:56Z</time>
      </trkpt>
      <trkpt lat="43.76338" lon="5.22859">
        <ele>198</ele>
        <time>2024-02-11T20:45:01Z</time>
      </trkpt>
      <trkpt lat="43.76345" lon="5.22832">
        <ele>202</ele>
        <time>2024-02-11T20:45:06Z</time>
      </trkpt>
      <trkpt lat="43.76362" lon="5.22801">
        <ele>205</ele>
        <time>2024-02-11T20:45:12Z</time>
      </trkpt>
      <trkpt lat="43.76389" lon="5.22765">
        <ele>206</ele>
        <time>2024-02-11T20:45:21Z</time>
      </trkpt>
      <trkpt lat="43.76396" lon="5.22747">
        <ele>205</ele>
        <time>2024-02-11T20:45:24Z</time>
      </trkpt>
      <trkpt lat="43.76408" lon="5.2273">
        <ele>204</ele>
        <time>2024-02-11T20:45:28Z</time>
      </trkpt>
      <trkpt lat="43.76415" lon="5.22714">
        <ele>203</ele>
        <time>2024-02-11T20:45:31Z</time>
      </trkpt>
      <trkpt lat="43.76422" lon="5.22707">
        <ele>204</ele>
        <time>2024-02-11T20:45:33Z</time>
      </trkpt>
      <trkpt lat="43.76429" lon="5.22705">
        <ele>206</ele>
        <time>2024-02-11T20:45:35Z</time>
      </trkpt>
      <trkpt lat="43.76437" lon="5.22698">
        <ele>208</ele>
        <time>2024-02-11T20:45:37Z</time>
      </trkpt>
      <trkpt lat="43.7645" lon="5.2268">
        <ele>210</ele>
        <time>2024-02-11T20:45:42Z</time>
      </trkpt>
      <trkpt lat="43.76471" lon="5.2262">
        <ele>213</ele>
        <time>2024-02-11T20:45:53Z</time>
      </trkpt>
      <trkpt lat="43.76493" lon="5.22582">
        <ele>212</ele>
        <time>2024-02-11T20:46:01Z</time>
      </trkpt>
      <trkpt lat="43.76502" lon="5.22542">
        <ele>214</ele>
        <time>2024-02-11T20:46:08Z</time>
      </trkpt>
      <trkpt lat="43.76526" lon="5.225">
        <ele>218</ele>
        <time>2024-02-11T20:46:17Z</time>
      </trkpt>
      <trkpt lat="43.76544" lon="5.22487">
        <ele>222</ele>
        <time>2024-02-11T20:46:22Z</time>
      </trkpt>
      <trkpt lat="43.76594" lon="5.22474">
        <ele>226</ele>
        <time>2024-02-11T20:46:34Z</time>
      </trkpt>
      <trkpt lat="43.76607" lon="5.22481">
        <ele>226</ele>
        <time>2024-02-11T20:46:37Z</time>
      </trkpt>
      <trkpt lat="43.76616" lon="5.22489">
        <ele>226</ele>
        <time>2024-02-11T20:46:40Z</time>
      </trkpt>
      <trkpt lat="43.76636" lon="5.22513">
        <ele>230</ele>
        <time>2024-02-11T20:46:46Z</time>
      </trkpt>
      <trkpt lat="43.76648" lon="5.22517">
        <ele>232</ele>
        <time>2024-02-11T20:46:49Z</time>
      </trkpt>
      <trkpt lat="43.76665" lon="5.22512">
        <ele>234</ele>
        <time>2024-02-11T20:46:53Z</time>
      </trkpt>
      <trkpt lat="43.76669" lon="5.22507">
        <ele>233</ele>
        <time>2024-02-11T20:46:54Z</time>
      </trkpt>
      <trkpt lat="43.76677" lon="5.22469">
        <ele>234</ele>
        <time>2024-02-11T20:47:01Z</time>
      </trkpt>
      <trkpt lat="43.76691" lon="5.22445">
        <ele>236</ele>
        <time>2024-02-11T20:47:06Z</time>
      </trkpt>
      <trkpt lat="43.76712" lon="5.22393">
        <ele>239</ele>
        <time>2024-02-11T20:47:16Z</time>
      </trkpt>
      <trkpt lat="43.7673" lon="5.22329">
        <ele>239</ele>
        <time>2024-02-11T20:47:27Z</time>
      </trkpt>
      <trkpt lat="43.76764" lon="5.22277">
        <ele>241</ele>
        <time>2024-02-11T20:47:39Z</time>
      </trkpt>
      <trkpt lat="43.76806" lon="5.22237">
        <ele>243</ele>
        <time>2024-02-11T20:47:51Z</time>
      </trkpt>
      <trkpt lat="43.76816" lon="5.2221">
        <ele>243</ele>
        <time>2024-02-11T20:47:56Z</time>
      </trkpt>
      <trkpt lat="43.76811" lon="5.2219">
        <ele>245</ele>
        <time>2024-02-11T20:48:00Z</time>
      </trkpt>
      <trkpt lat="43.76808" lon="5.22162">
        <ele>248</ele>
        <time>2024-02-11T20:48:05Z</time>
      </trkpt>
      <trkpt lat="43.7681" lon="5.22085">
        <ele>259</ele>
        <time>2024-02-11T20:48:18Z</time>
      </trkpt>
      <trkpt lat="43.76816" lon="5.22036">
        <ele>262</ele>
        <time>2024-02-11T20:48:26Z</time>
      </trkpt>
      <trkpt lat="43.76828" lon="5.22021">
        <ele>260</ele>
        <time>2024-02-11T20:48:30Z</time>
      </trkpt>
      <trkpt lat="43.76834" lon="5.21985">
        <ele>261</ele>
        <time>2024-02-11T20:48:36Z</time>
      </trkpt>
      <trkpt lat="43.76834" lon="5.21962">
        <ele>262</ele>
        <time>2024-02-11T20:48:40Z</time>
      </trkpt>
      <trkpt lat="43.76821" lon="5.2193">
        <ele>268</ele>
        <time>2024-02-11T20:48:46Z</time>
      </trkpt>
      <trkpt lat="43.76824" lon="5.21904">
        <ele>269</ele>
        <time>2024-02-11T20:48:51Z</time>
      </trkpt>
      <trkpt lat="43.76839" lon="5.21883">
        <ele>268</ele>
        <time>2024-02-11T20:48:56Z</time>
      </trkpt>
      <trkpt lat="43.76843" lon="5.21839">
        <ele>272</ele>
        <time>2024-02-11T20:49:03Z</time>
      </trkpt>
      <trkpt lat="43.76841" lon="5.21819">
        <ele>274</ele>
        <time>2024-02-11T20:49:06Z</time>
      </trkpt>
      <trkpt lat="43.76825" lon="5.21782">
        <ele>278</ele>
        <time>2024-02-11T20:49:14Z</time>
      </trkpt>
      <trkpt lat="43.76847" lon="5.21714">
        <ele>282</ele>
        <time>2024-02-11T20:49:26Z</time>
      </trkpt>
      <trkpt lat="43.76855" lon="5.21639">
        <ele>288</ele>
        <time>2024-02-11T20:49:39Z</time>
      </trkpt>
      <trkpt lat="43.76863" lon="5.21601">
        <ele>292</ele>
        <time>2024-02-11T20:49:46Z</time>
      </trkpt>
      <trkpt lat="43.76859" lon="5.21561">
        <ele>294</ele>
        <time>2024-02-11T20:49:53Z</time>
      </trkpt>
      <trkpt lat="43.76849" lon="5.21522">
        <ele>297</ele>
        <time>2024-02-11T20:50:00Z</time>
      </trkpt>
      <trkpt lat="43.76867" lon="5.21481">
        <ele>300</ele>
        <time>2024-02-11T20:50:08Z</time>
      </trkpt>
      <trkpt lat="43.76901" lon="5.21364">
        <ele>305</ele>
        <time>2024-02-11T20:50:29Z</time>
      </trkpt>
      <trkpt lat="43.76912" lon="5.21259">
        <ele>311</ele>
        <time>2024-02-11T20:50:47Z</time>
      </trkpt>
      <trkpt lat="43.7692" lon="5.21234">
        <ele>311</ele>
        <time>2024-02-11T20:50:51Z</time>
      </trkpt>
      <trkpt lat="43.76901" lon="5.21215">
        <ele>313</ele>
        <time>2024-02-11T20:50:57Z</time>
      </trkpt>
      <trkpt lat="43.76888" lon="5.21191">
        <ele>315</ele>
        <time>2024-02-11T20:51:02Z</time>
      </trkpt>
      <trkpt lat="43.76873" lon="5.21181">
        <ele>317</ele>
        <time>2024-02-11T20:51:06Z</time>
      </trkpt>
      <trkpt lat="43.76874" lon="5.21163">
        <ele>318</ele>
        <time>2024-02-11T20:51:09Z</time>
      </trkpt>
      <trkpt lat="43.76868" lon="5.21133">
        <ele>319</ele>
        <time>2024-02-11T20:51:14Z</time>
      </trkpt>
      <trkpt lat="43.76867" lon="5.21081">
        <ele>321</ele>
        <time>2024-02-11T20:51:23Z</time>
      </trkpt>
      <trkpt lat="43.76871" lon="5.21042">
        <ele>322</ele>
        <time>2024-02-11T20:51:30Z</time>
      </trkpt>
      <trkpt lat="43.76869" lon="5.21032">
        <ele>323</ele>
        <time>2024-02-11T20:51:31Z</time>
      </trkpt>
      <trkpt lat="43.76863" lon="5.21024">
        <ele>324</ele>
        <time>2024-02-11T20:51:33Z</time>
      </trkpt>
      <trkpt lat="43.76864" lon="5.21012">
        <ele>324</ele>
        <time>2024-02-11T20:51:35Z</time>
      </trkpt>
      <trkpt lat="43.76854" lon="5.20994">
        <ele>326</ele>
        <time>2024-02-11T20:51:39Z</time>
      </trkpt>
      <trkpt lat="43.76845" lon="5.20986">
        <ele>327</ele>
        <time>2024-02-11T20:51:42Z</time>
      </trkpt>
      <trkpt lat="43.76836" lon="5.20964">
        <ele>329</ele>
        <time>2024-02-11T20:51:46Z</time>
      </trkpt>
      <trkpt lat="43.76819" lon="5.20945">
        <ele>330</ele>
        <time>2024-02-11T20:51:51Z</time>
      </trkpt>
      <trkpt lat="43.76815" lon="5.20936">
        <ele>331</ele>
        <time>2024-02-11T20:51:53Z</time>
      </trkpt>
      <trkpt lat="43.76808" lon="5.20928">
        <ele>331</ele>
        <time>2024-02-11T20:51:55Z</time>
      </trkpt>
      <trkpt lat="43.7679" lon="5.2092">
        <ele>332</ele>
        <time>2024-02-11T20:51:59Z</time>
      </trkpt>
      <trkpt lat="43.76784" lon="5.20894">
        <ele>332</ele>
        <time>2024-02-11T20:52:04Z</time>
      </trkpt>
      <trkpt lat="43.76764" lon="5.20877">
        <ele>332</ele>
        <time>2024-02-11T20:52:09Z</time>
      </trkpt>
      <trkpt lat="43.76758" lon="5.20864">
        <ele>332</ele>
        <time>2024-02-11T20:52:12Z</time>
      </trkpt>
      <trkpt lat="43.76741" lon="5.20841">
        <ele>332</ele>
        <time>2024-02-11T20:52:17Z</time>
      </trkpt>
      <trkpt lat="43.76728" lon="5.20832">
        <ele>332</ele>
        <time>2024-02-11T20:52:21Z</time>
      </trkpt>
      <trkpt lat="43.76717" lon="5.20819">
        <ele>331</ele>
        <time>2024-02-11T20:52:24Z</time>
      </trkpt>
      <trkpt lat="43.76703" lon="5.20812">
        <ele>330</ele>
        <time>2024-02-11T20:52:28Z</time>
      </trkpt>
      <trkpt lat="43.76691" lon="5.20819">
        <ele>331</ele>
        <time>2024-02-11T20:52:31Z</time>
      </trkpt>
      <trkpt lat="43.7667" lon="5.20843">
        <ele>332</ele>
        <time>2024-02-11T20:52:37Z</time>
      </trkpt>
      <trkpt lat="43.76644" lon="5.20886">
        <ele>331</ele>
        <time>2024-02-11T20:52:47Z</time>
      </trkpt>
      <trkpt lat="43.76626" lon="5.20901">
        <ele>330</ele>
        <time>2024-02-11T20:52:51Z</time>
      </trkpt>
      <trkpt lat="43.76612" lon="5.20918">
        <ele>330</ele>
        <time>2024-02-11T20:52:56Z</time>
      </trkpt>
      <trkpt lat="43.766" lon="5.20925">
        <ele>329</ele>
        <time>2024-02-11T20:52:59Z</time>
      </trkpt>
      <trkpt lat="43.76575" lon="5.2096">
        <ele>329</ele>
        <time>2024-02-11T20:53:07Z</time>
      </trkpt>
      <trkpt lat="43.76539" lon="5.2099">
        <ele>329</ele>
        <time>2024-02-11T20:53:17Z</time>
      </trkpt>
      <trkpt lat="43.76524" lon="5.20993">
        <ele>328</ele>
        <time>2024-02-11T20:53:21Z</time>
      </trkpt>
      <trkpt lat="43.76514" lon="5.20988">
        <ele>326</ele>
        <time>2024-02-11T20:53:23Z</time>
      </trkpt>
      <trkpt lat="43.76494" lon="5.20973">
        <ele>324</ele>
        <time>2024-02-11T20:53:28Z</time>
      </trkpt>
      <trkpt lat="43.76481" lon="5.20959">
        <ele>323</ele>
        <time>2024-02-11T20:53:32Z</time>
      </trkpt>
      <trkpt lat="43.76443" lon="5.20896">
        <ele>320</ele>
        <time>2024-02-11T20:53:46Z</time>
      </trkpt>
      <trkpt lat="43.76422" lon="5.20852">
        <ele>318</ele>
        <time>2024-02-11T20:53:55Z</time>
      </trkpt>
      <trkpt lat="43.7639" lon="5.20814">
        <ele>315</ele>
        <time>2024-02-11T20:54:05Z</time>
      </trkpt>
      <trkpt lat="43.76376" lon="5.20802">
        <ele>314</ele>
        <time>2024-02-11T20:54:09Z</time>
      </trkpt>
      <trkpt lat="43.76362" lon="5.20783">
        <ele>312</ele>
        <time>2024-02-11T20:54:13Z</time>
      </trkpt>
      <trkpt lat="43.76347" lon="5.20729">
        <ele>307</ele>
        <time>2024-02-11T20:54:23Z</time>
      </trkpt>
      <trkpt lat="43.76351" lon="5.20651">
        <ele>298</ele>
        <time>2024-02-11T20:54:36Z</time>
      </trkpt>
      <trkpt lat="43.76344" lon="5.20632">
        <ele>296</ele>
        <time>2024-02-11T20:54:40Z</time>
      </trkpt>
      <trkpt lat="43.7633" lon="5.20613">
        <ele>295</ele>
        <time>2024-02-11T20:54:44Z</time>
      </trkpt>
      <trkpt lat="43.76313" lon="5.20609">
        <ele>291</ele>
        <time>2024-02-11T20:54:48Z</time>
      </trkpt>
      <trkpt lat="43.76303" lon="5.20597">
        <ele>289</ele>
        <time>2024-02-11T20:54:51Z</time>
      </trkpt>
      <trkpt lat="43.76275" lon="5.20598">
        <ele>284</ele>
        <time>2024-02-11T20:54:58Z</time>
      </trkpt>
      <trkpt lat="43.76262" lon="5.20596">
        <ele>282</ele>
        <time>2024-02-11T20:55:01Z</time>
      </trkpt>
      <trkpt lat="43.7622" lon="5.20574">
        <ele>273</ele>
        <time>2024-02-11T20:55:12Z</time>
      </trkpt>
      <trkpt lat="43.76201" lon="5.20569">
        <ele>269</ele>
        <time>2024-02-11T20:55:16Z</time>
      </trkpt>
      <trkpt lat="43.76173" lon="5.20552">
        <ele>266</ele>
        <time>2024-02-11T20:55:23Z</time>
      </trkpt>
      <trkpt lat="43.76162" lon="5.20548">
        <ele>265</ele>
        <time>2024-02-11T20:55:26Z</time>
      </trkpt>
      <trkpt lat="43.76152" lon="5.20538">
        <ele>265</ele>
        <time>2024-02-11T20:55:29Z</time>
      </trkpt>
      <trkpt lat="43.76141" lon="5.20512">
        <ele>270</ele>
        <time>2024-02-11T20:55:34Z</time>
      </trkpt>
      <trkpt lat="43.76125" lon="5.20498">
        <ele>269</ele>
        <time>2024-02-11T20:55:38Z</time>
      </trkpt>
      <trkpt lat="43.76103" lon="5.20488">
        <ele>264</ele>
        <time>2024-02-11T20:55:44Z</time>
      </trkpt>
      <trkpt lat="43.7608" lon="5.20483">
        <ele>258</ele>
        <time>2024-02-11T20:55:49Z</time>
      </trkpt>
      <trkpt lat="43.76049" lon="5.20458">
        <ele>252</ele>
        <time>2024-02-11T20:55:57Z</time>
      </trkpt>
      <trkpt lat="43.76045" lon="5.20451">
        <ele>251</ele>
        <time>2024-02-11T20:55:59Z</time>
      </trkpt>
      <trkpt lat="43.7604" lon="5.20448">
        <ele>250</ele>
        <time>2024-02-11T20:56:00Z</time>
      </trkpt>
      <trkpt lat="43.76032" lon="5.20434">
        <ele>248</ele>
        <time>2024-02-11T20:56:03Z</time>
      </trkpt>
      <trkpt lat="43.76031" lon="5.20406">
        <ele>248</ele>
        <time>2024-02-11T20:56:08Z</time>
      </trkpt>
      <trkpt lat="43.76039" lon="5.20363">
        <ele>244</ele>
        <time>2024-02-11T20:56:15Z</time>
      </trkpt>
      <trkpt lat="43.76054" lon="5.20332">
        <ele>244</ele>
        <time>2024-02-11T20:56:22Z</time>
      </trkpt>
      <trkpt lat="43.76061" lon="5.20324">
        <ele>246</ele>
        <time>2024-02-11T20:56:24Z</time>
      </trkpt>
      <trkpt lat="43.76057" lon="5.20309">
        <ele>243</ele>
        <time>2024-02-11T20:56:27Z</time>
      </trkpt>
      <trkpt lat="43.76057" lon="5.20283">
        <ele>240</ele>
        <time>2024-02-11T20:56:31Z</time>
      </trkpt>
      <trkpt lat="43.7605" lon="5.20249">
        <ele>234</ele>
        <time>2024-02-11T20:56:37Z</time>
      </trkpt>
      <trkpt lat="43.76034" lon="5.20222">
        <ele>230</ele>
        <time>2024-02-11T20:56:43Z</time>
      </trkpt>
      <trkpt lat="43.76025" lon="5.20201">
        <ele>229</ele>
        <time>2024-02-11T20:56:47Z</time>
      </trkpt>
      <trkpt lat="43.7602" lon="5.20139">
        <ele>228</ele>
        <time>2024-02-11T20:56:57Z</time>
      </trkpt>
      <trkpt lat="43.76013" lon="5.20134">
        <ele>228</ele>
        <time>2024-02-11T20:56:59Z</time>
      </trkpt>
      <trkpt lat="43.7601" lon="5.20125">
        <ele>228</ele>
        <time>2024-02-11T20:57:01Z</time>
      </trkpt>
      <trkpt lat="43.75989" lon="5.2011">
        <ele>228</ele>
        <time>2024-02-11T20:57:06Z</time>
      </trkpt>
      <trkpt lat="43.75981" lon="5.20115">
        <ele>226</ele>
        <time>2024-02-11T20:57:08Z</time>
      </trkpt>
      <trkpt lat="43.75972" lon="5.20144">
        <ele>223</ele>
        <time>2024-02-11T20:57:14Z</time>
      </trkpt>
      <trkpt lat="43.75958" lon="5.2017">
        <ele>218</ele>
        <time>2024-02-11T20:57:19Z</time>
      </trkpt>
      <trkpt lat="43.75958" lon="5.2021">
        <ele>215</ele>
        <time>2024-02-11T20:57:26Z</time>
      </trkpt>
      <trkpt lat="43.75962" lon="5.2025">
        <ele>214</ele>
        <time>2024-02-11T20:57:33Z</time>
      </trkpt>
      <trkpt lat="43.75961" lon="5.20282">
        <ele>214</ele>
        <time>2024-02-11T20:57:38Z</time>
      </trkpt>
      <trkpt lat="43.75959" lon="5.20287">
        <ele>213</ele>
        <time>2024-02-11T20:57:39Z</time>
      </trkpt>
      <trkpt lat="43.75945" lon="5.20299">
        <ele>209</ele>
        <time>2024-02-11T20:57:43Z</time>
      </trkpt>
      <trkpt lat="43.75935" lon="5.2031">
        <ele>207</ele>
        <time>2024-02-11T20:57:46Z</time>
      </trkpt>
      <trkpt lat="43.75931" lon="5.20318">
        <ele>205</ele>
        <time>2024-02-11T20:57:48Z</time>
      </trkpt>
      <trkpt lat="43.75925" lon="5.20322">
        <ele>204</ele>
        <time>2024-02-11T20:57:49Z</time>
      </trkpt>
      <trkpt lat="43.75917" lon="5.20322">
        <ele>201</ele>
        <time>2024-02-11T20:57:51Z</time>
      </trkpt>
      <trkpt lat="43.75896" lon="5.20314">
        <ele>197</ele>
        <time>2024-02-11T20:57:56Z</time>
      </trkpt>
      <trkpt lat="43.7588" lon="5.20312">
        <ele>195</ele>
        <time>2024-02-11T20:58:00Z</time>
      </trkpt>
      <trkpt lat="43.7587" lon="5.20312">
        <ele>193</ele>
        <time>2024-02-11T20:58:02Z</time>
      </trkpt>
      <trkpt lat="43.75865" lon="5.20316">
        <ele>192</ele>
        <time>2024-02-11T20:58:04Z</time>
      </trkpt>
      <trkpt lat="43.75853" lon="5.20346">
        <ele>190</ele>
        <time>2024-02-11T20:58:09Z</time>
      </trkpt>
      <trkpt lat="43.75822" lon="5.2039">
        <ele>186</ele>
        <time>2024-02-11T20:58:20Z</time>
      </trkpt>
      <trkpt lat="43.75818" lon="5.20399">
        <ele>186</ele>
        <time>2024-02-11T20:58:22Z</time>
      </trkpt>
      <trkpt lat="43.75799" lon="5.20483">
        <ele>185</ele>
        <time>2024-02-11T20:58:36Z</time>
      </trkpt>
      <trkpt lat="43.75792" lon="5.20506">
        <ele>185</ele>
        <time>2024-02-11T20:58:41Z</time>
      </trkpt>
      <trkpt lat="43.75786" lon="5.20514">
        <ele>184</ele>
        <time>2024-02-11T20:58:43Z</time>
      </trkpt>
      <trkpt lat="43.75747" lon="5.20495">
        <ele>181</ele>
        <time>2024-02-11T20:58:52Z</time>
      </trkpt>
      <trkpt lat="43.75734" lon="5.20491">
        <ele>179</ele>
        <time>2024-02-11T20:58:55Z</time>
      </trkpt>
      <trkpt lat="43.75699" lon="5.2047">
        <ele>176</ele>
        <time>2024-02-11T20:59:04Z</time>
      </trkpt>
      <trkpt lat="43.75682" lon="5.20465">
        <ele>174</ele>
        <time>2024-02-11T20:59:08Z</time>
      </trkpt>
      <trkpt lat="43.7565" lon="5.20446">
        <ele>172</ele>
        <time>2024-02-11T20:59:16Z</time>
      </trkpt>
      <trkpt lat="43.75624" lon="5.20435">
        <ele>170</ele>
        <time>2024-02-11T20:59:23Z</time>
      </trkpt>
      <trkpt lat="43.75591" lon="5.20415">
        <ele>168</ele>
        <time>2024-02-11T20:59:31Z</time>
      </trkpt>
      <trkpt lat="43.75577" lon="5.20411">
        <ele>167</ele>
        <time>2024-02-11T20:59:35Z</time>
      </trkpt>
      <trkpt lat="43.75575" lon="5.20419">
        <ele>167</ele>
        <time>2024-02-11T20:59:36Z</time>
      </trkpt>
      <trkpt lat="43.75576" lon="5.20482">
        <ele>167</ele>
        <time>2024-02-11T20:59:47Z</time>
      </trkpt>
      <trkpt lat="43.75573" lon="5.20528">
        <ele>166</ele>
        <time>2024-02-11T20:59:54Z</time>
      </trkpt>
      <trkpt lat="43.75574" lon="5.20544">
        <ele>166</ele>
        <time>2024-02-11T20:59:57Z</time>
      </trkpt>
      <trkpt lat="43.75571" lon="5.20557">
        <ele>165</ele>
        <time>2024-02-11T20:59:59Z</time>
      </trkpt>
      <trkpt lat="43.75566" lon="5.2056">
        <ele>165</ele>
        <time>2024-02-11T21:00:01Z</time>
      </trkpt>
      <trkpt lat="43.75554" lon="5.2056">
        <ele>164</ele>
        <time>2024-02-11T21:00:03Z</time>
      </trkpt>
      <trkpt lat="43.75511" lon="5.20551">
        <ele>161</ele>
        <time>2024-02-11T21:00:14Z</time>
      </trkpt>
      <trkpt lat="43.75504" lon="5.20545">
        <ele>161</ele>
        <time>2024-02-11T21:00:16Z</time>
      </trkpt>
      <trkpt lat="43.75502" lon="5.20533">
        <ele>161</ele>
        <time>2024-02-11T21:00:18Z</time>
      </trkpt>
      <trkpt lat="43.75511" lon="5.20486">
        <ele>161</ele>
        <time>2024-02-11T21:00:26Z</time>
      </trkpt>
      <trkpt lat="43.75517" lon="5.2043">
        <ele>162</ele>
        <time>2024-02-11T21:00:35Z</time>
      </trkpt>
      <trkpt lat="43.75515" lon="5.20373">
        <ele>162</ele>
        <time>2024-02-11T21:00:45Z</time>
      </trkpt>
      <trkpt lat="43.75508" lon="5.20366">
        <ele>162</ele>
        <time>2024-02-11T21:00:47Z</time>
      </trkpt>
      <trkpt lat="43.75476" lon="5.20353">
        <ele>159</ele>
        <time>2024-02-11T21:00:55Z</time>
      </trkpt>
      <trkpt lat="43.75472" lon="5.20342">
        <ele>159</ele>
        <time>2024-02-11T21:00:57Z</time>
      </trkpt>
      <trkpt lat="43.75475" lon="5.20321">
        <ele>159</ele>
        <time>2024-02-11T21:01:00Z</time>
      </trkpt>
      <trkpt lat="43.75472" lon="5.20312">
        <ele>158</ele>
        <time>2024-02-11T21:01:02Z</time>
      </trkpt>
      <trkpt lat="43.75447" lon="5.20308">
        <ele>156</ele>
        <time>2024-02-11T21:01:08Z</time>
      </trkpt>
      <trkpt lat="43.75428" lon="5.20308">
        <ele>155</ele>
        <time>2024-02-11T21:01:12Z</time>
      </trkpt>
    </trkseg>
  </trk>
</gpx>